GFSSW_sfc_temp_000.txt.gz
Temp
62 62 62 62 62 63 63 63 63 63 63 63 63 63 63 62 62 63 72 85 86 80 82 90 89 89 87 84 87 81 64 63 67 70 73 80 78 83 86 78 82 84 79 79 83
62 62 62 62 62 62 62 62 62 62 62 62 62 62 63 62 62 69 83 83 83 80 89 87 86 87 80 83 86 80 67 71 78 78 78 81 82 82 78 77 77 78 82 83 83
61 61 61 61 62 62 62 62 62 62 62 62 62 62 62 62 67 78 81 84 82 83 91 90 89 85 78 82 83 81 76 82 82 83 84 80 81 81 77 72 76 75 78 80 80
61 60 60 61 61 61 61 61 61 61 61 61 62 63 63 61 65 89 81 80 81 89 88 88 85 77 75 76 86 78 87 86 81 84 83 81 80 79 78 76 83 82 81 81 79
60 60 60 60 60 60 61 61 60 60 60 61 62 63 60 63 71 89 82 81 86 88 86 85 80 78 75 78 86 84 85 87 87 83 81 82 78 78 78 82 85 85 83 80 79
60 59 59 59 60 60 60 60 59 60 60 61 63 63 59 62 87 91 87 85 88 87 85 85 85 85 81 81 80 88 86 85 84 80 80 79 79 79 79 83 82 82 79 81 80
59 59 59 59 60 60 60 59 59 60 60 61 63 65 63 72 89 88 84 81 86 88 83 88 90 82 82 81 88 89 80 83 82 81 80 83 75 75 81 82 80 80 80 81 81
59 59 59 59 59 59 58 58 58 60 61 61 63 60 63 83 83 85 84 84 88 84 88 91 88 83 81 85 85 80 78 68 78 81 81 76 64 76 82 79 77 79 80 81 80
59 59 59 59 58 58 57 57 59 63 62 63 56 58 65 86 82 87 88 86 83 84 87 98 86 81 81 74 67 70 66 69 73 80 78 73 66 78 81 79 77 79 80 81 79
58 58 58 58 57 56 56 57 60 60 62 67 72 62 73 82 87 90 88 91 84 82 85 84 77 71 68 66 58 64 65 73 71 77 75 72 69 77 80 78 78 79 80 80 80
58 58 57 57 57 56 54 53 65 63 64 68 72 75 82 87 93 88 91 88 85 78 70 76 68 64 70 72 74 73 71 71 76 80 72 71 71 75 78 78 78 77 77 78 79
58 57 57 57 56 55 53 55 68 68 63 77 78 79 86 86 81 87 90 80 76 69 72 69 64 74 79 78 76 73 71 70 75 81 73 70 70 76 78 78 79 78 77 79 77
57 57 56 56 55 53 57 67 75 69 60 72 80 80 82 84 80 82 85 80 74 70 71 64 72 82 80 76 73 69 69 71 73 78 75 71 64 68 76 80 81 81 81 81 77
57 57 56 54 57 55 63 72 72 72 54 64 69 78 81 84 76 91 90 83 76 72 72 69 80 79 77 75 74 63 77 81 76 75 60 71 53 62 72 73 76 78 78 79 78
57 56 55 54 47 51 70 68 72 69 43 74 75 88 82 76 77 82 92 82 74 74 71 69 75 75 74 77 78 74 79 77 76 72 64 63 56 66 66 64 68 76 79 81 80
56 56 55 52 49 53 62 62 65 55 45 69 79 74 75 76 79 83 85 83 83 75 72 74 82 78 79 84 82 85 77 69 65 60 52 63 60 56 62 71 75 76 80 82 80
55 54 53 57 49 60 59 63 52 45 68 69 67 72 73 71 76 76 77 73 71 60 61 69 77 81 84 73 78 74 62 53 52 50 51 59 61 66 70 78 77 76 80 82 81
53 52 51 55 53 55 55 56 43 60 62 71 71 73 67 71 72 76 71 69 72 66 60 61 61 76 81 76 72 68 65 53 48 49 54 62 57 70 74 81 81 83 83 84 80
52 47 52 54 58 55 56 45 50 57 68 69 69 64 64 70 70 72 68 71 76 70 65 56 60 78 81 84 78 70 61 67 57 50 53 57 65 73 74 76 79 80 79 80 81
48 44 50 64 62 57 51 48 55 68 71 71 57 63 60 64 66 67 67 74 76 77 72 65 58 72 82 80 78 77 74 60 54 49 46 54 58 59 65 70 74 76 76 78 81
43 47 61 66 64 54 45 49 62 71 73 67 64 63 66 65 70 67 71 77 81 80 73 72 61 70 70 68 70 68 63 61 60 54 50 48 54 66 70 72 72 75 80 76 78
41 43 66 68 53 50 47 56 62 68 72 70 72 70 67 70 69 70 71 76 85 84 71 70 61 63 68 76 79 73 68 62 56 53 52 53 56 72 73 73 77 78 78 76 79
38 41 62 63 47 48 55 63 67 67 67 68 70 74 75 70 64 72 72 83 83 83 77 75 59 58 60 64 68 71 68 64 58 55 53 52 56 72 72 70 74 73 74 75 76
40 39 52 55 53 50 50 55 60 72 70 72 72 76 72 69 71 68 70 81 82 85 81 77 60 62 61 60 67 65 70 68 63 54 53 56 61 65 70 71 71 73 74 74 74
42 43 48 44 48 49 47 55 59 61 69 68 67 69 66 60 66 67 71 72 78 79 80 74 60 60 65 75 73 76 74 69 64 64 62 63 64 66 68 71 72 75 76 75 74
42 44 47 44 47 49 50 51 58 63 65 63 62 68 66 60 67 63 65 60 63 72 71 64 61 64 69 72 76 73 76 75 74 71 66 66 64 71 74 75 72 77 76 74 74
46 50 44 43 44 45 47 53 58 62 65 66 64 65 63 69 73 70 69 68 69 64 65 63 60 57 57 67 70 65 68 72 72 73 73 63 70 71 68 72 72 73 74 75 76

GFSSW_sfc_temp_003.txt.gz
Temp
62 62 62 62 62 62 62 63 63 63 62 62 62 62 62 62 62 64 71 84 83 80 83 84 82 84 84 82 86 79 65 63 64 67 69 76 73 79 81 75 80 80 74 77 79
61 61 61 61 62 62 62 62 62 62 62 62 62 62 62 62 60 66 80 82 81 81 86 83 82 83 77 77 80 73 63 67 75 76 74 76 76 78 74 74 73 75 78 79 79
61 61 61 61 61 61 61 62 62 62 61 61 61 62 62 61 65 75 82 81 81 82 88 88 86 83 74 77 79 75 70 78 79 80 82 77 78 78 73 69 73 70 73 76 76
61 60 60 60 61 61 61 61 61 61 61 61 61 62 62 59 64 84 81 79 81 83 85 85 82 76 71 74 79 73 82 81 80 82 81 78 78 74 74 73 80 77 77 77 75
60 60 60 60 60 60 61 60 60 60 60 61 61 62 58 61 70 83 82 80 81 83 83 82 79 77 73 76 79 77 79 83 83 80 81 81 76 75 75 79 81 79 78 76 76
59 59 59 59 60 60 60 59 59 59 60 61 62 63 57 60 83 85 83 79 81 82 81 83 82 82 77 77 74 81 81 82 79 78 77 75 75 74 76 80 79 77 75 76 76
59 59 59 59 59 60 59 59 59 59 60 61 61 63 61 71 84 82 77 76 78 83 80 84 84 78 77 77 84 84 75 78 77 75 75 79 71 69 77 79 76 75 76 76 77
59 59 59 59 59 59 58 57 58 60 62 61 62 59 62 80 80 81 81 81 82 80 83 85 87 80 79 82 80 75 71 67 75 77 78 73 61 72 77 76 74 76 77 76 76
58 59 59 58 58 58 57 57 59 63 62 62 55 56 64 82 79 83 84 82 81 80 82 95 82 77 76 70 64 69 65 63 70 78 75 70 62 72 77 75 73 75 76 77 76
58 58 58 57 57 56 56 57 59 60 61 65 68 60 72 78 84 85 82 86 80 80 80 80 73 68 64 63 56 66 62 66 67 76 73 67 65 71 75 73 73 74 75 76 76
58 57 57 57 56 55 53 52 64 61 59 64 67 71 78 83 87 83 85 82 80 75 68 72 66 61 67 70 71 72 66 68 73 75 69 66 66 70 73 73 72 72 73 75 76
57 57 57 56 55 55 51 59 63 62 56 71 73 75 81 81 77 84 87 77 73 66 69 65 62 71 75 73 73 71 67 67 70 74 70 64 65 72 73 73 74 74 74 75 77
57 57 56 55 55 52 54 61 68 62 54 67 74 73 75 79 75 77 82 76 70 66 66 61 68 77 76 72 71 65 64 66 68 72 70 68 61 66 72 75 77 77 78 78 76
57 57 56 55 54 49 56 63 62 64 51 60 66 74 77 79 72 86 84 79 71 68 67 66 75 76 72 71 71 55 72 74 71 68 58 68 52 60 68 70 73 75 76 77 76
56 56 55 54 47 48 64 59 61 64 41 69 70 82 73 75 75 79 86 78 71 70 68 65 71 70 69 72 75 70 74 72 71 68 59 59 55 58 66 63 70 74 76 78 77
56 55 55 51 49 51 57 56 60 53 43 64 74 70 67 70 75 77 79 80 79 71 67 71 77 75 74 78 78 77 71 65 59 57 51 59 57 55 61 68 71 75 77 79 78
54 53 52 55 49 53 55 60 50 44 64 64 63 67 65 64 73 71 71 70 66 57 55 65 71 73 77 70 72 70 60 50 48 48 48 58 56 61 68 76 76 75 76 78 79
53 52 51 53 52 54 55 53 41 57 57 65 68 68 62 67 68 69 66 66 68 62 59 55 58 70 75 72 66 64 62 51 45 44 52 56 53 65 75 78 80 80 79 80 80
52 45 46 51 54 51 55 43 48 54 64 64 64 58 59 65 66 66 64 69 72 67 59 52 57 72 76 78 75 65 57 65 53 45 48 52 59 71 71 72 78 77 78 77 80
47 42 46 58 58 53 49 46 52 63 68 65 54 58 53 58 61 61 59 69 73 71 70 63 54 67 77 76 74 73 69 56 51 46 43 51 55 58 66 65 70 73 75 77 80
41 43 57 56 56 51 44 47 58 67 70 62 57 58 59 59 61 57 62 71 75 76 73 63 59 62 68 65 66 63 59 55 56 51 48 47 52 63 69 66 68 73 77 78 77
39 41 59 59 48 44 43 51 60 63 67 64 64 62 60 62 61 60 62 69 78 79 66 66 59 59 62 69 72 69 66 64 60 50 47 50 55 70 70 68 72 74 76 73 76
41 36 53 58 43 44 50 57 61 61 62 61 62 65 69 65 58 63 67 77 79 77 72 65 54 50 55 59 62 64 63 58 55 52 49 52 55 68 67 68 70 70 71 72 74
41 36 47 50 47 45 46 50 54 67 64 66 64 68 66 61 64 62 67 76 79 78 78 73 53 64 59 59 63 62 65 63 61 53 51 54 60 63 68 69 68 69 71 72 75
42 38 43 41 46 45 44 50 54 54 63 65 58 65 63 55 60 63 68 70 72 72 71 72 60 57 70 70 67 68 67 64 62 63 62 61 62 66 68 70 70 72 71 71 71
39 39 43 42 43 46 44 47 51 55 56 57 58 65 63 57 62 61 64 63 61 67 64 63 59 60 59 67 70 68 71 69 71 63 62 62 61 69 75 68 69 73 73 71 69
42 44 41 43 43 42 44 49 53 56 59 62 62 59 60 65 68 68 69 67 63 57 59 56 63 53 61 62 66 58 66 69 68 67 68 61 67 68 65 69 71 71 74 73 72

GFSSW_sfc_temp_006.txt.gz
Temp
62 62 61 61 62 62 62 62 63 63 63 63 62 62 62 62 61 62 70 82 80 79 81 78 79 79 79 76 81 78 66 60 62 65 67 73 70 77 79 73 76 77 72 75 77
61 61 61 61 61 62 62 62 62 62 62 62 62 62 62 62 58 63 79 81 80 80 82 78 76 78 72 74 77 71 63 67 72 72 70 73 73 74 72 72 71 71 75 76 76
61 61 61 61 61 61 61 62 62 62 61 61 61 62 62 61 64 74 82 81 81 82 85 84 83 80 73 73 76 72 69 74 76 77 78 74 74 76 71 66 70 67 70 73 73
60 60 60 60 61 61 61 61 61 61 61 61 61 62 62 58 62 79 81 80 80 81 83 82 80 74 70 71 77 70 77 77 77 79 77 73 75 72 72 71 77 74 74 73 72
60 59 59 60 60 60 60 60 60 60 60 61 61 62 56 59 68 82 82 79 78 79 80 79 76 73 71 73 76 73 74 78 79 77 77 78 73 72 73 76 78 76 75 73 72
59 59 59 59 59 60 60 59 59 59 60 61 62 62 54 59 81 81 80 76 77 79 78 81 79 79 75 75 73 77 77 76 75 74 74 72 72 73 73 76 74 74 73 73 74
59 59 59 59 59 59 59 59 58 59 60 62 62 62 57 70 82 78 74 74 77 80 77 81 81 77 76 72 78 79 71 75 73 73 72 77 68 69 74 75 72 73 73 74 75
59 59 59 59 59 59 58 57 58 60 62 62 62 57 60 79 77 78 77 76 78 77 81 82 81 76 75 77 76 70 69 63 72 74 74 72 61 69 75 73 70 72 73 73 74
58 58 58 58 58 57 56 56 59 62 62 63 56 55 62 81 77 79 80 78 77 76 80 92 80 72 73 68 63 65 60 61 66 74 73 68 61 70 74 72 70 71 72 73 73
58 57 57 57 57 56 55 56 58 59 61 64 67 58 70 75 78 81 79 83 77 76 77 75 69 64 62 61 54 60 62 60 63 71 71 65 62 69 72 71 70 71 72 73 73
57 57 57 57 56 55 53 51 60 58 57 63 64 67 75 79 82 79 81 79 77 71 64 68 63 59 64 68 70 68 65 68 68 72 66 63 63 67 71 71 70 71 71 72 73
57 57 57 56 55 55 49 57 59 58 55 66 69 71 77 76 73 80 83 73 70 64 63 62 60 67 72 71 70 69 64 64 67 71 68 62 63 67 70 70 71 71 71 72 74
57 56 56 55 54 52 49 55 62 58 52 63 67 68 70 74 71 75 79 73 67 64 62 58 64 73 72 67 67 62 64 63 68 68 66 65 59 61 68 71 72 73 74 74 74
56 56 55 54 53 47 53 57 58 58 48 57 63 72 71 72 66 82 82 77 69 65 65 63 72 72 68 68 67 58 69 71 67 64 55 64 51 57 65 66 70 72 73 74 75
56 55 55 54 46 46 59 52 55 58 40 66 67 78 70 68 69 73 81 74 67 67 64 62 66 68 65 69 72 68 71 69 66 60 57 56 54 58 64 61 67 72 74 75 76
55 55 54 50 46 49 54 51 56 51 41 61 69 66 64 65 70 72 76 77 75 69 63 68 72 72 72 73 76 74 68 61 56 54 47 57 58 54 56 66 71 73 75 76 77
54 53 52 54 47 50 52 57 47 41 61 60 59 62 62 63 66 67 68 65 61 54 52 61 67 69 74 67 68 66 58 48 46 45 46 53 53 64 66 72 75 74 75 77 79
53 51 49 52 48 51 52 51 38 54 55 61 63 62 58 62 63 67 63 60 62 60 53 53 54 67 72 68 64 61 60 49 44 43 50 54 51 63 77 76 75 76 78 78 78
52 45 43 48 52 48 51 40 45 51 61 60 61 54 54 62 63 62 60 61 66 64 57 51 54 67 72 73 73 60 55 61 50 43 47 50 57 69 72 71 71 74 74 75 77
46 43 43 53 54 50 46 43 49 59 62 61 51 55 50 54 58 57 55 65 66 69 65 60 50 64 72 70 69 68 66 56 48 43 40 49 51 57 63 68 68 69 72 75 77
40 42 55 52 51 48 41 44 55 62 63 59 55 53 53 54 57 54 58 66 70 70 66 60 55 58 64 65 65 60 56 53 53 49 45 44 50 61 67 69 70 69 75 75 76
41 41 55 54 46 40 41 48 56 59 62 61 58 58 57 59 55 56 58 65 72 70 62 63 59 55 59 64 69 70 62 59 57 47 46 48 53 68 69 69 68 71 74 72 74
37 38 49 52 39 41 46 53 57 57 57 57 57 60 61 57 52 57 61 71 73 68 63 62 52 53 53 57 59 60 59 55 53 50 46 50 54 67 65 67 66 67 69 69 70
41 33 42 46 42 40 42 47 51 63 61 62 60 60 56 54 57 56 59 70 73 72 71 71 53 58 56 60 61 58 62 59 58 49 50 52 59 65 67 66 66 66 68 68 70
43 35 39 36 41 40 39 46 50 51 59 59 54 57 56 50 54 55 62 66 70 67 65 60 57 58 68 64 64 64 63 60 58 58 58 63 59 66 68 67 68 70 68 68 67
41 39 40 37 40 40 40 42 48 52 52 54 53 60 58 54 57 56 60 59 60 61 60 57 55 54 63 67 65 65 65 64 63 61 62 61 61 68 69 67 67 68 68 68 68
40 42 42 41 38 38 40 43 48 51 55 59 58 54 54 58 61 63 63 65 59 59 53 54 53 49 55 58 58 53 67 65 64 63 65 59 67 67 65 68 69 67 69 71 71

GFSSW_sfc_temp_009.txt.gz
Temp
62 62 61 61 62 62 62 62 62 63 63 63 62 62 62 62 62 68 77 88 84 79 82 85 86 86 85 85 87 87 81 75 75 75 78 82 79 82 85 78 80 82 81 84 83
61 61 61 61 61 62 62 62 62 62 62 62 62 62 62 62 64 73 84 81 80 80 86 85 84 85 85 85 87 84 79 79 84 85 81 82 82 80 78 78 78 77 81 82 82
61 61 60 61 61 61 61 62 62 62 61 61 62 62 62 64 72 84 81 80 80 83 91 92 90 88 83 86 86 84 80 84 85 86 87 83 80 84 78 75 79 76 76 79 80
60 60 60 60 60 61 61 61 61 61 61 61 62 62 62 65 72 89 81 80 80 87 90 89 87 84 83 82 88 81 86 87 87 86 85 82 85 80 80 82 86 83 81 80 79
60 60 60 60 60 60 61 60 60 60 60 61 62 62 64 73 79 90 82 81 84 87 89 88 85 85 82 84 86 83 86 87 89 86 87 85 81 81 79 84 86 83 81 80 80
59 59 59 59 60 60 60 60 59 59 60 61 62 62 68 71 91 87 85 82 83 86 87 89 89 90 88 86 85 87 86 85 87 84 84 82 80 82 82 83 80 80 79 81 81
59 59 59 59 59 60 59 58 58 59 60 62 63 63 68 79 90 87 86 87 85 87 85 91 93 90 89 84 89 86 80 82 82 84 80 84 74 77 83 82 78 79 79 80 81
58 58 58 59 59 58 58 57 58 60 62 63 63 65 72 85 86 85 88 87 87 90 92 94 93 90 87 89 85 82 82 76 80 83 81 84 75 80 82 80 77 78 79 79 81
58 58 58 58 58 57 56 56 59 62 63 64 63 65 74 85 84 89 90 88 86 88 89 94 91 87 86 83 79 78 75 75 75 84 80 81 77 80 82 81 78 78 80 80 80
58 57 57 57 57 56 55 56 59 62 64 66 69 66 79 82 87 90 89 90 86 85 85 85 84 82 80 80 71 74 74 76 76 79 80 77 77 77 79 80 79 79 80 80 80
57 57 57 56 56 55 56 65 70 69 67 75 77 75 80 87 89 87 89 88 87 83 76 80 77 73 79 82 84 83 79 78 78 81 79 77 78 75 78 79 79 78 79 80 81
57 57 56 56 55 54 58 68 66 67 64 74 73 76 82 85 78 85 91 82 81 75 77 74 72 80 84 84 80 80 78 78 78 81 80 76 76 78 78 77 80 79 79 80 82
57 56 56 55 54 58 57 65 68 69 64 71 73 74 77 79 75 80 87 83 78 74 75 73 77 80 78 79 77 78 77 77 78 78 77 77 75 73 77 80 80 81 83 83 82
56 56 55 54 58 55 65 66 66 66 62 68 72 78 77 78 72 85 89 84 77 75 74 75 81 78 77 77 81 76 81 81 78 75 69 79 66 74 77 75 77 80 81 82 82
56 56 54 54 53 56 67 64 67 67 51 73 75 85 79 76 79 77 89 84 75 75 75 73 74 74 75 78 80 79 82 80 79 77 72 70 68 77 74 73 76 80 82 83 85
55 55 54 54 53 58 62 62 67 61 49 67 76 75 72 76 78 79 80 86 85 78 75 78 81 82 81 83 82 80 78 75 74 75 64 73 70 74 71 75 80 83 83 84 85
54 53 53 56 57 61 63 68 59 52 68 66 70 73 74 71 73 76 75 73 71 65 66 73 76 81 83 79 82 81 76 64 62 61 62 71 68 75 83 83 85 85 83 85 86
53 51 53 55 58 61 62 64 49 60 65 70 70 71 69 71 72 75 73 71 76 75 70 64 62 75 83 81 76 75 78 68 56 59 65 65 64 75 86 90 87 88 88 87 87
52 54 52 57 57 58 61 53 57 60 68 67 70 67 68 70 70 72 72 73 76 77 67 64 65 77 81 83 83 74 70 83 73 65 67 71 72 79 84 84 85 86 87 85 86
50 48 52 60 59 58 58 53 61 66 69 70 63 67 63 65 67 69 69 75 75 78 82 72 64 78 80 84 80 79 82 70 70 59 56 66 66 74 80 84 86 82 85 86 87
48 49 58 60 58 57 53 56 62 69 69 68 66 65 65 64 67 66 68 74 77 77 80 78 72 71 75 75 75 74 72 71 76 71 64 61 68 81 82 85 87 85 86 87 86
46 48 59 61 54 55 53 56 57 67 72 69 69 68 66 67 66 66 66 72 78 79 71 77 73 65 71 79 81 82 77 76 69 62 68 69 71 86 84 88 89 90 88 88 86
43 44 59 58 49 52 55 56 61 65 67 67 67 70 71 66 60 66 69 77 78 77 75 73 68 61 65 74 77 73 77 79 78 76 67 65 70 85 82 80 83 83 86 83 83
44 41 52 55 52 50 48 53 55 65 65 68 68 70 66 64 67 64 66 75 77 78 70 74 71 66 63 67 75 70 73 75 75 69 69 69 75 81 84 80 84 83 82 82 80
46 43 44 44 49 48 49 51 52 54 64 65 64 66 64 60 63 63 67 70 75 75 74 74 64 68 72 76 76 75 74 75 70 74 70 75 73 82 84 85 86 88 83 79 79
42 42 44 42 45 45 47 50 51 53 55 59 59 66 66 60 63 62 68 69 68 72 73 71 66 66 65 73 75 72 76 76 75 77 74 79 76 87 89 87 83 83 80 79 79
49 50 43 43 44 44 47 49 51 52 57 59 59 57 57 62 66 68 71 72 71 67 66 67 65 64 61 71 70 64 73 75 76 79 77 72 80 88 82 81 83 85 82 81 82

GFSSW_sfc_temp_012.txt.gz
Temp
62 62 62 62 62 62 62 63 63 63 63 63 63 62 62 62 64 76 87 93 92 80 83 96 96 96 98 96 98 98 88 85 84 83 86 92 88 92 94 87 88 91 91 92 92
62 61 61 61 62 62 62 62 62 63 62 62 62 62 62 62 80 89 92 83 81 80 96 93 92 95 94 95 96 93 88 87 93 93 91 91 91 90 87 86 86 86 91 92 91
61 61 61 61 61 61 62 62 62 62 62 62 62 62 62 67 84 94 80 81 80 82 102 101 101 96 93 98 96 95 88 93 93 95 96 92 90 93 89 84 88 85 87 89 89
60 60 60 60 61 61 61 61 61 61 61 61 62 62 63 77 78 96 81 80 80 94 99 98 97 92 91 90 98 90 95 96 97 95 95 92 96 90 90 90 95 94 91 89 88
60 60 60 60 60 60 61 61 60 60 60 61 62 63 72 82 89 99 82 83 91 94 95 94 92 93 90 95 95 91 95 97 98 96 97 97 92 90 90 93 96 94 90 89 90
59 59 59 59 60 60 60 60 59 59 60 61 62 63 77 78 101 99 97 94 97 94 96 97 95 99 95 94 93 96 95 96 96 95 95 92 91 91 92 95 92 90 89 91 90
59 59 59 59 59 60 59 59 58 59 60 62 63 71 79 86 100 100 98 98 99 98 95 100 102 97 98 93 99 95 89 90 93 94 91 95 84 85 94 93 89 89 90 90 91
58 59 58 58 59 58 58 57 58 60 61 63 64 76 81 98 100 97 99 98 98 100 99 102 103 98 97 99 94 91 92 85 91 92 91 91 81 89 93 91 88 89 89 89 90
58 58 58 58 58 57 56 56 59 63 63 65 73 78 83 86 91 100 101 95 96 97 97 101 99 94 95 89 87 90 83 85 84 92 88 88 85 91 93 92 89 88 89 89 89
58 58 57 57 57 56 56 57 62 64 69 75 78 75 87 89 96 96 100 99 93 93 90 91 91 88 89 88 77 81 83 87 84 87 89 86 87 89 92 92 90 89 89 89 90
57 57 57 57 56 55 60 80 76 75 75 83 88 87 89 96 97 95 98 95 95 91 83 89 82 80 86 90 91 90 87 85 90 92 88 87 87 88 89 91 90 89 89 89 90
57 57 56 56 55 55 65 80 74 74 72 87 87 88 93 95 84 93 99 89 87 81 87 84 78 88 92 91 89 89 86 86 91 90 89 88 86 90 91 89 91 90 90 90 92
57 56 56 55 54 65 73 77 81 81 73 83 87 85 88 90 83 87 94 90 85 82 83 80 85 90 88 87 85 87 85 86 86 87 89 88 83 86 92 92 92 93 94 94 92
56 56 55 54 63 72 77 80 81 79 70 79 80 85 85 88 80 93 98 91 86 82 84 83 91 86 84 83 88 82 92 90 87 83 76 87 74 85 91 89 90 91 92 94 93
56 56 54 53 64 71 77 81 81 78 58 80 82 94 90 84 86 86 97 92 82 83 85 80 83 82 80 84 90 84 94 89 88 84 83 81 77 83 89 87 90 92 93 94 95
56 55 54 66 67 72 77 79 77 66 57 76 83 80 80 84 85 85 86 94 92 85 85 85 91 89 87 90 91 92 89 89 88 85 73 81 79 80 86 86 92 95 95 94 96
54 54 55 66 72 76 77 77 65 61 76 74 77 83 82 81 81 82 79 79 77 71 72 80 83 88 90 85 90 88 83 71 68 70 70 83 79 81 91 95 96 98 97 96 97
53 52 62 68 73 71 71 69 57 69 72 79 79 81 76 81 80 81 79 76 82 81 78 71 68 82 88 86 83 83 84 74 61 67 72 82 73 82 94 98 100 101 101 99 98
52 69 69 74 70 70 68 60 64 70 77 76 79 74 76 80 79 80 79 79 83 84 74 74 72 87 88 89 90 83 78 90 80 81 75 80 81 90 95 94 97 98 98 98 98
58 63 68 73 71 68 64 58 71 77 78 78 70 78 72 77 75 77 78 83 82 87 89 81 70 84 86 90 90 87 90 77 80 65 63 74 77 79 85 90 96 95 97 98 98
61 59 69 73 70 64 58 65 71 79 78 74 73 74 75 75 76 77 77 82 86 86 87 85 78 78 83 80 80 82 80 82 84 79 69 67 74 90 88 92 94 98 98 101 99
59 55 70 72 60 66 63 69 62 74 79 76 77 76 75 76 74 74 74 80 86 87 80 85 81 71 76 88 90 88 82 83 74 69 78 76 78 97 96 96 98 99 102 104 102
55 59 75 68 54 61 66 66 69 69 72 74 73 76 78 74 69 74 77 84 85 83 81 85 76 68 71 81 85 81 85 85 85 83 74 71 75 96 96 95 96 96 99 100 98
55 53 64 63 65 57 58 57 60 71 70 75 74 77 74 71 76 71 74 81 84 84 73 79 79 72 69 72 81 75 79 83 83 76 75 77 81 88 91 92 96 98 99 99 94
56 55 55 53 58 55 55 56 55 59 68 73 69 71 71 66 70 70 75 79 81 76 80 81 70 76 78 81 82 81 80 80 78 79 74 80 81 87 90 93 95 99 100 98 93
47 50 54 51 53 52 52 53 54 59 63 62 64 69 72 67 70 69 74 74 74 81 79 82 70 75 73 80 80 77 81 81 81 81 81 82 81 94 96 96 95 97 98 97 93
56 57 49 48 49 49 52 55 53 56 60 64 63 62 63 70 75 78 80 80 80 77 75 75 73 70 65 77 77 70 77 81 82 84 83 77 84 92 92 93 94 97 98 97 95

GFSSW_sfc_temp_015.txt.gz
Temp
62 62 62 62 62 62 63 63 63 63 63 63 63 63 63 63 63 78 91 97 96 80 82 101 102 103 104 102 105 105 79 84 87 86 89 97 93 98 101 93 95 96 95 95 97
62 61 61 61 62 62 62 62 63 63 63 62 62 62 63 63 83 93 94 84 81 81 97 99 97 101 98 100 101 99 63 82 98 97 93 95 96 95 93 91 91 92 98 96 96
61 61 61 61 61 62 62 62 62 62 62 62 62 62 62 67 87 98 81 81 80 84 105 105 105 102 96 101 100 99 79 88 98 99 99 96 96 99 93 88 92 89 91 93 93
61 61 60 61 61 61 61 62 61 61 61 61 62 63 63 82 79 100 81 81 81 97 101 102 101 96 93 93 101 94 99 98 100 100 99 96 100 95 95 96 99 97 96 94 93
60 60 60 60 60 61 61 61 60 60 60 61 62 63 73 86 91 98 81 83 94 97 97 99 96 97 92 97 99 96 98 100 101 101 101 101 96 95 95 99 101 99 96 93 94
59 59 59 59 60 60 60 59 59 59 60 61 62 62 78 80 107 104 103 98 101 98 99 101 99 102 97 97 97 100 99 99 101 101 100 97 96 96 97 100 98 96 94 95 95
59 59 59 59 60 60 59 59 58 59 60 62 63 71 84 89 107 107 105 104 105 102 98 103 104 100 100 95 103 101 93 97 98 99 97 100 91 91 99 99 95 95 94 95 96
59 59 59 59 59 59 58 57 58 60 62 63 64 78 82 106 109 106 106 103 106 107 104 107 106 102 100 103 100 95 95 88 97 98 97 96 83 94 100 97 94 94 94 94 95
58 58 58 58 58 58 57 57 59 63 65 65 75 83 85 91 97 104 106 99 103 104 104 106 103 96 97 91 89 92 84 87 89 98 96 93 68 95 99 97 95 94 95 95 94
58 58 58 57 57 56 56 56 66 64 70 81 86 81 90 93 101 103 107 104 99 99 95 94 95 90 91 89 78 83 85 90 87 94 95 91 85 95 97 97 95 95 95 94 95
58 57 57 57 56 56 62 88 80 76 82 86 90 90 95 102 104 99 104 100 99 94 86 91 85 81 87 91 92 92 90 87 93 97 92 90 90 93 96 97 95 95 95 95 95
57 57 57 56 56 55 65 84 82 83 76 91 93 94 99 103 92 97 104 92 90 84 89 87 81 91 94 94 91 91 89 89 94 94 94 91 90 95 95 95 96 96 95 95 97
57 57 56 55 56 67 84 85 90 91 77 86 94 93 96 99 90 93 99 94 89 85 87 84 88 94 92 90 88 90 88 89 89 92 95 91 84 91 96 97 97 99 99 99 98
57 57 56 54 64 80 83 88 92 90 71 83 87 92 96 97 88 99 102 95 90 85 88 88 95 91 89 87 91 84 94 93 92 82 79 92 76 87 93 94 95 97 98 99 99
57 56 55 54 66 75 85 91 91 86 60 88 89 102 97 90 93 92 101 96 86 87 89 84 88 88 85 88 93 87 96 93 92 88 82 86 81 86 93 91 94 97 98 100 101
56 56 55 69 74 80 86 87 85 68 60 82 89 85 85 89 91 93 92 97 96 88 90 89 97 93 92 94 94 96 92 92 92 89 75 84 80 82 85 92 96 100 100 100 101
55 54 56 68 73 88 86 81 67 61 83 80 83 87 86 85 87 88 84 84 81 74 76 84 87 94 95 88 93 91 86 74 73 73 73 87 83 82 95 98 99 100 102 102 102
53 53 65 76 82 82 77 70 57 73 77 88 88 87 82 88 87 86 83 81 86 85 82 76 73 87 92 89 85 86 86 76 64 70 75 86 78 86 99 102 103 104 106 106 104
53 74 77 83 82 79 71 59 64 73 84 83 85 80 81 86 87 86 83 82 86 88 77 78 77 91 92 93 91 86 81 92 82 84 78 82 87 95 99 99 100 102 103 104 104
60 67 76 85 81 73 64 58 71 81 86 85 76 82 77 81 81 82 82 88 86 90 93 85 76 88 91 93 92 88 94 81 84 68 67 77 80 82 89 91 97 98 101 103 105
61 66 78 83 79 66 57 64 70 79 82 79 77 78 81 81 84 81 82 88 91 90 91 88 83 81 88 84 82 84 84 87 86 82 72 70 79 95 92 94 95 98 102 104 104
65 59 79 81 63 66 62 67 66 76 83 80 80 80 79 83 81 82 81 86 94 93 85 89 84 75 81 91 93 90 85 86 79 72 80 79 81 99 99 99 99 100 103 106 106
59 64 80 78 55 61 67 68 73 73 75 76 76 79 82 79 74 81 83 91 90 89 86 88 79 71 75 84 89 83 86 88 88 86 76 74 79 99 100 99 100 100 102 103 105
56 55 69 70 69 63 61 63 64 74 73 75 74 79 76 74 80 76 80 88 90 88 73 83 83 75 72 75 84 79 82 86 86 79 78 79 82 90 94 95 98 99 101 103 104
55 56 63 54 60 57 55 57 54 53 66 72 70 72 73 68 72 74 80 83 87 82 84 85 73 79 82 84 85 84 83 84 81 82 78 82 83 89 93 95 98 100 101 101 102
49 53 59 56 58 55 53 55 55 58 58 56 59 69 72 68 72 71 78 79 78 85 82 86 73 78 76 83 83 80 84 85 84 84 84 85 84 97 98 100 99 99 99 99 100
58 57 53 50 55 54 54 52 54 60 59 60 56 53 59 67 70 73 79 86 84 80 79 78 77 72 68 79 79 72 81 83 85 87 86 79 85 94 93 95 97 99 100 99 100

GFSSW_sfc_temp_018.txt.gz
Temp
62 62 62 62 62 62 62 63 63 63 63 63 63 62 62 62 63 78 83 95 97 81 81 101 98 100 103 99 102 79 80 77 76 85 87 96 92 99 98 94 95 92 90 94 97
62 62 61 61 62 62 62 62 62 62 62 62 62 62 62 62 76 86 95 87 82 81 97 97 96 99 96 97 99 83 65 75 81 92 90 95 94 94 92 91 92 90 95 96 97
61 61 61 61 61 61 62 62 62 62 62 62 62 62 62 66 82 94 84 82 82 85 102 103 103 100 94 98 98 88 71 84 94 96 96 90 95 97 91 87 91 86 89 92 94
61 61 60 61 61 61 61 61 61 61 61 61 62 62 63 76 75 98 81 81 81 96 99 98 99 93 91 90 99 89 93 95 95 100 94 89 98 94 94 92 97 95 93 92 92
60 60 60 60 60 60 61 61 60 60 60 61 62 62 74 82 86 102 81 83 94 96 95 95 95 94 89 94 97 95 97 98 102 101 99 97 95 94 94 99 99 97 93 91 92
59 59 59 59 60 60 60 60 59 59 60 61 62 62 74 75 103 102 102 97 101 97 97 98 97 100 95 95 94 99 99 99 102 101 100 95 95 96 96 100 97 95 92 92 93
59 59 59 59 59 60 59 59 59 59 60 62 63 68 80 84 106 107 105 102 103 100 97 101 103 98 98 93 100 99 93 97 98 99 97 99 89 90 97 99 95 93 92 93 93
59 59 59 59 59 59 58 58 58 60 61 64 64 74 78 103 106 102 107 103 106 106 103 105 105 99 97 100 96 92 93 85 96 98 98 96 81 93 98 96 93 93 93 92 93
59 58 58 58 58 58 57 57 59 62 64 66 70 77 81 98 97 105 107 99 102 104 104 106 102 95 95 88 84 89 81 84 88 98 95 91 76 89 99 96 92 92 93 93 93
58 58 58 58 57 57 56 57 66 65 68 79 82 79 88 92 101 104 106 104 98 98 96 95 93 88 88 84 72 79 82 86 85 93 95 78 71 82 86 95 93 93 93 93 93
58 57 57 57 57 56 59 77 80 75 77 81 86 86 96 100 107 101 105 100 99 94 84 90 82 77 84 86 88 88 87 86 89 93 91 80 69 70 83 95 94 93 93 93 93
58 57 57 57 56 57 63 79 86 86 75 88 89 91 96 103 92 97 105 92 89 82 88 85 77 87 91 90 87 87 85 86 91 90 90 89 77 81 87 94 95 94 94 94 95
57 57 57 56 56 65 82 84 94 92 75 82 90 89 92 97 91 94 99 93 88 83 84 80 85 91 90 87 85 85 84 85 87 92 93 90 85 87 94 96 97 98 97 97 96
57 57 56 55 65 75 79 92 94 93 67 78 89 91 95 95 87 100 103 95 88 83 85 85 91 89 87 85 88 80 91 90 89 85 76 89 71 82 89 90 93 96 97 97 97
57 56 55 54 62 69 84 91 91 86 55 89 91 105 99 90 93 93 102 96 84 85 87 82 86 86 84 86 91 86 93 90 90 84 81 82 76 83 89 86 91 94 97 99 99
56 56 55 66 70 75 84 89 86 65 55 83 91 87 87 90 91 97 94 97 96 87 89 87 96 92 90 93 93 95 90 89 89 86 73 80 78 78 85 83 89 96 98 99 101
55 54 55 64 67 84 84 80 63 58 84 80 84 87 86 84 85 89 85 82 79 73 74 83 86 93 95 88 92 90 84 72 70 72 71 85 77 78 89 92 93 85 97 100 101
53 53 61 71 79 78 77 66 53 70 72 88 89 88 81 86 85 87 84 79 85 84 78 72 71 86 93 88 84 85 84 75 61 67 72 84 76 83 95 95 95 93 101 102 101
53 69 72 81 84 81 68 55 61 69 81 82 85 81 82 85 86 84 83 81 85 85 75 76 75 92 92 94 91 84 78 89 78 81 75 81 86 94 96 94 94 97 102 102 101
58 62 70 82 87 76 61 53 66 75 79 81 72 80 76 82 81 83 82 87 86 90 91 84 74 88 91 93 92 87 91 76 78 64 63 75 77 80 88 87 93 91 98 102 104
59 63 78 86 82 67 54 59 66 73 75 70 68 70 77 80 83 82 82 89 91 90 91 87 81 81 88 83 81 82 80 82 83 79 70 68 76 93 89 91 93 96 99 102 103
61 54 83 83 62 64 59 64 63 69 74 73 75 74 73 76 77 81 81 86 95 93 84 88 82 74 80 91 93 89 82 82 73 69 77 76 79 98 95 96 98 98 100 102 102
55 59 75 76 54 58 64 65 69 68 70 70 70 74 78 74 70 77 82 93 94 92 86 89 79 70 73 84 89 84 85 85 84 82 72 71 76 97 92 89 94 97 99 99 100
53 51 64 70 68 62 59 60 61 71 70 71 69 72 72 71 77 73 76 86 94 93 76 87 82 74 71 74 83 78 83 85 83 75 75 78 81 88 88 89 92 94 96 100 99
53 51 59 50 57 58 52 51 52 53 65 67 62 64 61 58 69 70 76 80 87 84 86 85 72 79 80 83 84 83 82 83 79 80 75 81 82 88 90 90 93 98 97 97 98
42 48 55 52 55 55 53 51 52 56 56 51 55 57 57 54 56 49 60 69 77 86 83 86 71 76 75 82 82 80 84 84 83 83 82 84 83 95 97 97 94 91 94 95 96
55 54 45 46 51 51 54 53 50 53 52 58 54 50 51 53 58 61 64 69 73 76 79 77 75 70 66 78 79 72 80 83 84 86 85 78 85 93 91 91 93 96 96 94 97

GFSSW_sfc_temp_021.txt.gz
Temp
62 62 62 62 62 62 63 63 63 63 63 63 63 62 62 62 62 71 74 86 86 81 80 93 90 91 92 80 76 77 63 62 71 74 81 87 83 91 93 84 84 87 81 82 87
61 61 61 61 62 62 62 62 62 62 62 62 62 62 62 62 65 74 85 85 85 81 89 89 88 89 83 83 76 70 64 74 83 81 84 88 85 85 87 81 79 83 86 86 87
61 61 61 61 61 61 61 62 62 62 62 62 62 62 62 62 67 82 83 85 86 83 94 95 93 91 83 87 86 79 70 82 84 89 89 88 89 90 85 76 81 80 81 84 85
61 60 60 60 61 61 61 61 61 61 61 61 61 62 62 63 64 91 81 82 81 87 91 90 88 81 80 80 90 77 86 88 91 91 87 86 88 86 87 84 89 88 88 85 83
60 60 60 60 60 60 61 61 60 60 60 61 62 62 62 65 73 94 82 82 87 87 86 86 83 82 78 84 87 84 87 91 93 92 87 92 89 88 87 89 90 90 89 85 82
60 59 59 59 60 60 60 59 59 60 60 61 62 62 59 62 91 96 88 86 91 88 86 88 86 88 84 85 84 89 90 91 91 90 88 86 88 87 88 90 88 87 85 86 86
59 59 59 59 59 59 59 59 59 59 61 62 63 64 65 71 94 94 91 87 90 91 85 91 92 86 86 83 91 90 83 89 89 87 86 87 75 84 89 90 85 85 85 86 86
59 59 59 59 59 59 58 58 59 60 61 63 65 64 60 89 90 89 92 92 95 92 93 93 94 87 83 88 87 82 78 70 85 90 89 78 64 85 89 87 83 85 86 86 86
58 58 58 58 58 58 57 57 60 63 63 65 60 60 66 91 85 91 93 90 92 92 93 101 90 82 83 75 69 72 66 71 79 90 88 79 69 87 89 86 83 84 85 86 85
58 58 58 58 58 57 56 58 63 64 64 71 75 63 75 81 92 94 96 96 90 89 88 86 79 73 74 68 60 64 67 74 75 84 81 76 74 84 86 82 84 84 85 85 85
58 58 57 57 57 56 55 57 67 61 68 68 70 75 84 92 98 93 97 92 89 83 73 78 69 67 71 76 77 77 75 74 82 88 75 75 76 79 82 79 78 83 84 84 85
58 57 57 57 56 56 55 60 73 76 66 80 81 81 85 88 82 92 98 83 80 73 77 72 68 76 82 81 79 77 74 74 82 88 77 73 73 78 80 82 81 84 84 85 86
57 57 56 56 56 59 64 68 81 82 64 72 80 79 81 85 80 86 90 86 79 74 75 70 73 84 81 78 77 76 72 74 75 83 82 73 67 68 79 83 85 88 88 88 86
57 57 56 54 60 60 64 80 83 82 53 66 75 81 84 84 79 92 95 88 81 74 77 74 82 81 77 76 78 69 82 82 80 76 66 77 61 67 76 81 83 86 87 87 88
57 56 55 54 52 55 71 75 78 73 43 80 81 94 85 78 82 84 95 89 77 77 75 72 77 76 75 77 82 76 83 81 81 75 72 75 66 68 76 75 80 85 88 89 89
56 56 55 57 59 63 70 73 72 52 45 72 86 80 77 79 81 87 85 89 87 79 79 77 85 83 80 85 85 86 80 79 78 74 63 70 70 63 72 78 82 87 89 90 90
55 54 53 58 54 73 66 66 49 46 74 74 75 80 78 75 78 79 78 75 71 65 66 75 77 83 87 77 81 81 66 61 58 59 56 69 68 66 80 84 87 88 89 92 92
53 52 57 65 66 62 61 54 43 62 63 76 76 79 74 79 78 79 76 71 77 73 64 62 61 77 84 79 73 75 72 62 48 54 59 68 64 72 86 89 92 93 91 94 94
52 59 60 67 72 67 57 45 50 59 69 66 66 66 71 78 78 77 74 73 77 77 65 64 64 81 85 86 83 71 68 75 59 61 56 65 70 80 85 88 89 87 92 92 91
51 54 58 71 75 66 53 46 55 66 65 62 53 62 58 62 63 73 73 79 78 82 81 69 59 77 83 86 84 78 75 63 69 53 53 64 63 67 73 81 81 82 84 89 91
51 52 67 77 75 62 47 50 57 66 67 61 59 58 60 60 64 63 66 80 84 82 82 77 70 70 77 75 73 73 72 68 65 67 57 54 63 74 76 82 81 85 90 88 94
53 44 69 71 52 57 51 56 58 61 67 64 64 61 59 61 59 61 64 71 86 87 76 79 70 63 69 80 85 81 72 67 61 52 57 61 64 81 84 84 88 88 90 86 86
46 49 64 65 44 49 56 59 62 61 61 61 60 64 66 61 55 62 66 76 81 79 79 79 71 59 63 72 79 76 78 73 73 61 57 52 64 86 86 81 85 84 84 88 85
45 41 54 59 58 53 51 48 47 58 56 60 57 58 57 57 61 57 61 72 79 80 74 73 74 68 61 65 68 67 75 77 72 64 64 66 67 75 75 77 86 85 87 90 87
45 43 50 40 45 46 49 43 45 47 55 54 51 50 47 44 48 51 55 54 61 66 73 68 65 71 73 75 75 75 75 77 71 72 63 67 68 73 76 76 78 84 83 87 86
40 42 47 42 46 45 47 48 49 49 49 47 45 48 47 43 45 41 47 47 48 58 54 59 59 66 67 76 76 73 77 78 78 77 74 74 72 74 77 80 82 82 87 86 86
50 49 42 40 43 43 44 47 46 48 49 51 51 49 45 50 53 52 54 54 53 51 52 54 53 56 55 67 67 65 73 75 75 79 76 69 76 77 77 79 82 82 83 84 85

GFSSW_sfc_temp_024.txt.gz
Temp
62 62 61 61 62 62 62 62 62 62 63 63 62 62 62 62 62 64 68 80 80 80 82 82 84 85 85 74 75 75 62 63 66 71 74 81 77 83 86 78 80 82 77 79 83
61 61 61 61 61 62 62 62 62 62 62 62 62 62 62 62 60 66 81 83 82 81 85 79 79 82 76 75 75 68 59 68 78 80 79 84 80 81 77 76 77 77 81 83 83
61 61 60 61 61 61 61 61 62 61 61 61 61 62 62 61 62 74 81 83 83 83 89 88 86 84 74 72 73 71 65 76 82 85 85 82 80 83 76 72 76 73 77 80 81
61 60 60 60 60 61 61 61 61 61 61 61 61 62 62 59 62 87 81 80 83 86 86 84 82 75 73 73 78 70 79 82 84 88 84 81 83 78 79 79 83 80 81 80 79
60 60 60 60 60 60 60 60 60 60 60 61 62 62 58 59 67 89 83 82 83 84 82 81 77 75 71 76 80 77 81 84 88 88 84 86 83 80 81 85 85 83 82 79 79
60 59 59 59 60 60 60 60 59 59 60 61 62 62 55 58 84 88 88 84 85 83 80 80 79 80 76 78 76 82 83 85 88 87 87 84 83 82 82 86 82 81 79 80 80
59 59 59 59 59 60 59 59 59 59 60 61 62 62 58 68 86 85 84 81 82 84 79 83 85 79 77 76 84 83 76 82 84 84 83 83 76 76 83 85 81 79 80 81 81
59 59 59 59 59 59 58 58 58 60 62 62 63 60 54 79 82 82 83 82 86 83 85 86 86 80 75 81 80 74 69 65 78 83 82 79 66 79 83 82 80 81 80 80 80
59 59 58 58 58 58 57 57 59 63 64 64 56 54 58 82 75 82 83 83 83 84 85 94 82 76 75 70 64 64 60 65 72 85 82 74 64 80 83 80 78 80 82 81 82
58 58 58 58 57 57 56 57 59 62 65 68 69 57 68 78 83 85 83 87 83 82 81 80 73 67 64 61 55 59 61 64 67 76 78 71 70 79 81 79 78 79 81 82 82
58 57 57 57 57 56 54 48 61 59 60 61 62 66 76 82 89 85 87 84 82 75 67 71 64 63 65 67 70 69 66 66 72 79 73 73 73 77 79 79 77 78 79 80 82
58 57 57 57 56 56 51 55 60 65 56 72 74 74 78 80 75 82 88 76 74 68 69 65 62 68 74 73 72 71 68 67 72 78 71 71 75 79 79 79 79 79 79 80 82
57 57 56 56 55 55 53 59 69 67 54 65 74 73 74 76 71 74 80 78 72 67 67 63 67 77 75 72 70 69 67 68 68 75 72 71 65 69 77 77 81 82 83 83 82
57 57 56 54 53 52 56 65 67 66 47 58 65 72 75 77 69 84 84 82 73 69 69 66 75 74 73 71 71 58 75 76 73 66 59 71 54 65 72 71 77 80 81 82 83
57 56 55 54 45 47 62 63 66 60 41 72 72 83 75 73 75 78 87 80 71 70 68 65 71 71 70 72 75 68 76 73 74 66 60 67 57 62 71 70 73 77 82 83 84
56 55 55 51 47 54 60 59 57 49 41 64 76 71 68 69 73 80 80 81 80 73 71 72 78 76 75 78 78 80 71 69 66 66 53 64 64 59 65 72 76 81 83 85 85
55 54 53 56 45 57 57 55 45 40 65 66 60 64 66 66 71 70 75 70 67 57 62 68 72 74 80 69 74 72 59 53 51 53 53 63 60 66 73 78 82 83 84 86 87
53 52 52 57 51 53 52 48 37 55 57 64 61 64 63 66 67 71 66 67 71 63 57 59 57 70 77 72 69 64 65 55 44 45 51 62 55 68 79 84 85 89 88 88 87
52 49 50 52 60 55 46 36 41 51 58 55 57 54 57 63 60 63 67 67 72 70 60 53 60 73 79 78 76 65 59 69 53 47 49 56 62 71 77 80 83 85 86 87 88
46 42 45 59 61 52 40 38 45 57 59 58 47 53 47 53 54 55 55 69 72 77 76 66 53 68 78 76 79 70 71 57 50 49 49 52 56 63 68 73 77 82 85 87 89
42 39 52 63 59 46 36 39 51 60 60 53 50 49 51 51 53 52 55 66 72 73 77 73 62 63 67 68 67 67 65 56 60 59 54 45 59 68 71 72 74 82 87 89 89
39 33 54 61 39 40 41 46 53 56 60 57 57 55 53 53 52 53 54 61 72 69 61 69 66 59 65 72 77 75 68 62 59 50 55 63 63 76 76 76 77 80 87 90 90
36 36 52 50 32 35 42 48 51 50 50 51 50 53 51 47 44 54 55 67 58 60 57 59 57 54 54 61 67 65 71 72 55 54 58 51 57 75 73 74 79 79 83 83 83
37 31 39 43 42 39 38 42 42 52 53 52 49 50 46 43 46 44 48 55 57 58 61 57 53 58 57 61 64 60 70 71 69 63 60 62 60 66 68 71 73 77 81 84 82
38 33 37 30 35 40 42 42 41 41 50 49 44 46 42 36 40 43 47 47 54 59 54 48 41 52 60 67 72 69 68 71 67 70 64 68 60 66 70 71 76 80 78 81 82
38 37 37 39 36 35 40 41 38 39 42 42 42 45 44 37 41 40 44 41 42 49 47 46 41 48 53 66 72 69 72 73 73 73 71 65 62 71 76 71 75 78 83 80 88
46 46 41 37 33 32 34 39 40 44 44 48 48 44 43 46 49 48 50 49 47 44 44 41 41 43 42 60 68 62 70 70 70 72 72 64 68 71 71 74 74 77 76 77 78

GFSSW_sfc_temp_027.txt.gz
Temp
61 61 61 61 61 61 62 62 62 62 62 62 62 62 62 61 61 61 65 77 75 80 81 79 80 81 80 74 74 72 58 57 63 66 70 76 73 80 82 74 78 79 75 77 78
61 61 61 61 61 61 61 61 61 62 62 62 61 62 62 62 57 61 78 80 80 80 79 75 73 78 71 71 72 65 57 64 75 74 72 77 76 77 74 73 74 74 78 79 79
61 61 61 61 61 61 61 61 61 61 61 61 61 61 62 61 60 73 81 81 80 81 84 82 81 78 70 69 71 68 63 72 78 84 80 77 77 80 73 69 72 70 73 76 77
61 60 60 60 61 61 61 61 61 60 61 61 61 61 62 57 61 82 80 79 81 83 83 80 77 70 68 67 73 65 73 76 80 85 83 77 80 75 75 75 79 78 77 77 76
60 60 60 60 60 60 60 60 60 60 60 61 61 62 56 56 65 84 81 81 81 82 80 77 73 71 67 70 74 69 74 79 81 83 84 83 78 76 76 81 81 80 78 76 76
59 59 59 59 59 60 60 59 59 59 60 61 61 62 52 56 80 82 81 80 80 79 76 77 75 75 72 72 71 76 78 79 81 81 85 78 78 77 78 82 78 77 76 77 77
59 59 59 59 59 59 59 59 59 59 60 61 62 60 54 66 82 81 79 77 78 81 74 78 81 78 74 71 78 78 72 76 78 79 77 83 73 73 81 79 76 76 76 77 78
59 59 59 59 59 59 58 58 58 60 61 62 63 57 53 74 76 78 79 76 81 78 80 80 81 74 70 76 75 69 66 62 75 76 79 80 66 77 80 77 74 75 76 76 77
59 59 58 58 58 57 57 57 59 63 63 63 57 52 56 77 71 75 78 78 77 77 79 90 77 70 70 65 60 61 58 62 69 77 76 74 63 75 80 76 73 74 75 76 76
58 58 58 58 57 56 56 57 58 60 64 65 66 54 65 73 78 80 77 83 78 76 75 75 69 62 59 58 53 56 57 62 64 72 72 66 65 74 77 76 74 75 75 76 76
58 57 57 57 56 56 53 50 57 55 56 59 59 63 71 79 84 79 80 79 77 72 63 67 62 55 61 63 66 65 63 63 68 75 70 69 67 72 76 76 75 74 75 75 76
57 57 57 56 56 55 51 54 58 56 48 65 65 68 74 75 71 77 83 72 69 63 65 60 60 66 70 68 67 66 63 64 67 74 69 67 68 74 75 75 76 76 76 76 77
57 57 56 55 55 53 50 54 61 55 47 60 67 67 69 72 67 71 77 73 67 63 63 61 63 71 70 66 65 61 61 65 65 68 67 66 61 67 74 76 77 78 80 80 80
57 57 56 54 52 48 54 59 59 58 45 56 61 67 70 70 63 79 81 77 69 66 64 61 70 70 66 65 66 54 68 70 68 62 55 66 51 61 69 71 74 76 77 79 80
56 56 55 54 45 44 58 58 59 54 39 68 65 77 69 68 69 70 81 75 68 66 65 61 65 67 65 69 68 65 71 69 67 61 54 60 54 59 69 66 71 75 77 79 81
56 55 54 49 44 50 55 54 53 48 39 62 69 64 63 65 69 73 74 75 76 68 66 69 72 73 69 73 74 73 66 63 60 56 48 63 58 61 62 69 73 76 79 81 81
54 53 52 54 43 51 53 52 43 38 60 59 55 59 57 61 65 67 68 65 62 56 58 63 68 69 74 66 67 66 56 47 45 46 50 60 54 66 68 76 79 78 79 82 83
53 52 50 55 49 49 47 45 33 52 51 57 57 57 56 58 60 62 66 63 68 61 59 54 51 67 70 67 63 60 59 44 39 41 51 56 52 62 78 78 81 84 85 84 84
52 50 43 48 56 49 42 34 39 46 55 53 54 51 50 54 55 56 53 64 68 65 58 53 55 69 75 73 73 60 57 64 49 42 45 51 59 66 74 75 76 77 82 82 84
45 40 41 54 54 47 38 35 41 54 56 54 44 49 43 48 49 50 50 60 62 69 62 59 50 63 72 73 71 68 65 54 45 44 44 48 52 56 64 72 71 75 78 82 84
40 36 48 55 49 41 31 34 46 56 57 50 46 45 46 47 50 47 50 59 60 60 62 55 54 58 65 61 64 60 59 53 55 50 49 43 55 67 68 70 70 73 79 83 83
36 31 51 52 37 34 33 40 50 52 55 51 52 49 47 48 45 47 50 54 59 58 50 54 47 55 61 66 74 70 66 57 50 49 52 58 56 68 72 75 72 74 77 83 86
34 33 47 47 30 33 41 45 49 47 46 48 47 48 48 44 41 47 49 57 57 54 48 50 43 44 49 55 60 60 66 67 62 52 58 52 53 68 72 71 74 74 75 76 83
37 31 36 39 38 37 34 38 39 49 49 49 47 47 43 41 44 42 46 53 56 56 59 50 40 43 45 50 57 56 63 66 64 57 60 60 58 61 67 68 71 73 74 76 77
41 34 33 29 33 33 37 38 37 37 44 46 41 43 40 32 37 39 45 46 52 54 50 44 35 42 48 54 57 60 62 67 61 65 60 64 59 65 67 68 70 74 74 74 75
38 37 41 37 40 33 35 37 37 40 39 40 38 42 40 35 37 36 39 38 40 46 44 41 38 41 44 56 59 59 64 66 69 69 65 66 59 68 75 71 69 74 75 75 74
45 45 40 38 37 35 35 35 37 41 44 43 41 41 39 41 44 44 45 44 44 40 38 38 38 37 35 49 51 51 62 66 68 70 69 62 66 68 68 69 71 72 72 74 76

GFSSW_sfc_temp_030.txt.gz
Temp
62 61 61 61 61 61 62 62 62 62 62 62 62 62 62 61 61 59 62 75 74 79 80 78 78 78 78 72 73 71 56 55 59 64 67 73 71 77 79 72 75 76 72 74 75
61 61 61 61 61 61 61 61 61 61 61 61 61 61 61 61 56 57 75 79 79 79 76 74 71 75 67 69 69 63 55 61 71 73 70 75 74 74 72 71 71 72 75 75 75
61 61 61 61 61 61 61 61 61 61 61 61 61 61 61 60 57 70 81 79 79 80 80 79 77 75 69 68 68 65 60 69 75 76 76 73 74 76 71 67 70 68 70 72 73
61 60 60 60 61 61 61 61 61 60 60 61 61 61 61 56 59 76 79 79 80 82 79 77 74 67 64 64 70 62 70 73 76 79 76 73 76 73 74 72 79 75 74 73 71
60 60 60 60 60 60 60 60 60 60 60 60 61 61 54 53 63 78 79 79 79 80 76 74 70 68 63 66 70 66 74 78 81 77 77 78 75 75 73 79 78 77 75 72 72
60 60 60 59 60 60 60 60 59 59 60 60 61 61 50 53 77 78 78 77 77 76 74 74 72 73 67 69 67 72 73 76 76 75 75 74 75 75 76 79 76 74 73 73 73
59 59 59 59 59 60 59 59 59 59 60 61 62 59 52 63 79 76 75 73 76 78 72 75 77 75 71 67 75 74 69 72 73 73 74 78 69 71 78 77 73 73 74 74 74
59 59 59 59 59 59 58 57 58 60 61 62 63 56 54 71 71 72 74 72 78 75 74 76 77 70 67 72 71 66 63 59 70 73 75 75 64 74 77 74 72 73 74 74 74
58 58 58 58 58 58 57 57 59 64 63 63 55 50 56 75 69 72 76 73 72 71 74 87 75 66 66 62 57 57 54 59 66 75 72 72 63 75 76 74 71 72 73 74 74
58 58 58 58 57 56 56 57 58 62 63 64 63 52 62 69 73 75 72 78 73 71 72 71 64 59 56 56 51 53 54 57 62 69 69 66 64 71 74 73 72 72 73 73 74
58 57 57 57 56 56 53 52 53 52 53 55 56 60 68 74 79 74 75 76 73 67 58 63 57 54 58 60 62 61 60 60 65 71 68 68 64 67 72 73 72 71 72 73 74
57 57 57 56 56 55 51 53 53 52 44 59 59 62 70 70 68 74 79 69 67 59 62 56 57 63 65 64 64 63 59 59 65 71 65 64 67 68 71 72 73 72 72 73 75
57 57 56 55 55 50 47 52 56 50 42 55 60 62 64 67 64 67 74 69 64 60 62 60 60 68 67 62 61 56 59 60 60 66 64 62 59 62 70 72 75 75 76 76 75
57 56 56 54 51 45 51 53 53 53 41 53 58 65 66 65 60 75 78 73 65 64 60 58 67 68 62 62 62 50 64 67 66 59 54 62 50 58 65 68 72 73 74 76 76
56 56 55 54 44 43 54 53 54 49 37 65 59 72 65 63 64 67 76 69 63 62 62 59 61 63 62 64 65 61 69 65 65 58 53 56 52 56 62 62 68 72 75 77 79
55 55 54 48 43 46 51 50 48 44 36 58 64 60 59 61 64 67 69 71 72 65 61 63 67 69 65 69 68 69 64 58 54 52 47 56 55 52 56 66 69 74 76 78 79
54 53 51 52 45 49 48 47 41 35 56 53 52 55 54 56 60 61 62 63 60 52 54 60 65 65 69 62 63 63 54 43 42 44 47 55 53 63 65 71 74 74 76 78 80
53 52 49 52 50 48 44 43 31 48 46 54 54 54 51 53 54 56 58 60 62 58 55 53 49 64 67 64 59 56 54 42 38 39 47 52 50 58 72 73 78 80 81 81 81
52 43 43 47 54 47 42 31 35 41 52 50 51 46 47 51 51 52 50 59 63 60 54 50 53 66 70 68 70 55 55 58 46 40 43 48 54 65 70 70 73 77 79 79 81
43 40 40 51 51 44 36 33 37 50 52 50 40 46 41 45 47 47 48 51 53 59 56 54 48 61 69 70 68 63 62 51 43 40 37 45 48 55 60 69 71 70 75 79 82
38 34 48 52 47 39 28 31 42 51 53 46 43 43 43 43 45 45 47 51 54 54 56 49 51 52 62 60 63 56 55 49 54 46 43 39 50 59 65 67 73 75 76 79 79
35 30 49 49 34 32 31 39 45 45 49 47 48 45 43 45 43 45 45 47 56 54 45 46 42 49 53 61 69 70 62 53 50 46 44 45 53 65 68 71 70 73 74 76 78
33 33 45 45 27 28 36 41 46 43 42 44 43 45 45 41 38 44 47 54 55 52 46 48 40 40 47 57 58 56 62 58 62 49 52 49 53 75 66 69 72 70 71 72 74
34 30 34 40 34 30 30 33 38 48 43 44 43 45 41 39 41 39 43 52 54 54 58 50 38 39 40 43 50 49 58 60 61 56 57 56 57 60 65 66 69 69 70 73 72
35 32 39 28 31 37 30 34 36 34 43 42 40 40 38 31 36 36 43 44 50 52 48 43 37 39 43 49 52 53 54 57 56 61 56 62 61 64 65 65 70 73 69 72 73
33 37 39 36 39 37 36 30 34 38 37 38 36 38 40 32 34 32 37 36 38 44 41 40 37 38 40 51 52 50 55 59 60 60 58 63 60 65 71 67 68 70 70 70 71
45 45 39 37 33 34 32 34 36 38 41 43 39 36 38 41 42 42 42 42 42 37 37 36 36 35 34 45 47 45 55 58 59 62 62 57 63 69 66 67 69 72 72 71 72

GFSSW_sfc_temp_033.txt.gz
Temp
62 62 62 61 62 62 62 62 62 62 62 62 62 62 62 61 61 63 68 81 78 78 82 83 82 82 83 78 79 79 73 70 71 72 76 81 77 81 84 78 80 80 79 81 80
62 62 61 61 61 62 62 62 62 62 62 62 61 61 61 61 61 65 79 78 78 79 82 78 77 80 77 76 77 74 71 73 79 81 81 81 80 79 77 77 77 76 80 80 80
61 61 61 61 61 61 61 61 61 61 61 61 61 61 61 62 65 79 80 79 79 82 86 84 82 79 74 75 74 74 72 77 82 84 84 82 80 83 78 74 80 74 75 77 78
61 61 60 61 61 61 61 61 61 61 61 61 61 61 61 60 69 84 80 78 80 87 84 81 79 74 73 69 76 70 76 79 82 84 82 80 84 78 80 81 86 82 80 78 77
60 60 60 60 60 60 60 60 60 60 60 60 61 61 60 63 71 83 79 80 83 85 82 79 75 76 71 73 75 72 77 81 83 85 85 84 82 82 80 86 87 83 80 78 78
60 59 59 59 60 60 60 60 59 59 60 60 61 61 58 62 85 84 83 82 83 83 83 82 79 80 77 75 75 79 78 80 84 85 85 82 83 82 85 87 82 80 79 80 79
59 59 59 59 59 60 59 59 58 59 60 60 62 61 58 72 83 84 83 82 84 85 81 85 85 81 80 75 82 81 76 82 83 84 83 86 78 77 85 83 79 79 79 80 80
59 59 59 59 59 59 58 57 59 61 61 61 62 61 63 78 82 79 82 79 84 87 86 87 86 84 79 82 79 77 76 73 82 83 85 85 76 84 86 82 78 79 78 78 80
58 58 58 58 58 58 56 57 61 64 64 63 59 57 66 76 74 83 84 79 79 83 84 88 85 79 78 74 71 73 70 71 75 85 83 82 79 83 86 82 79 78 79 79 79
58 58 58 58 57 56 56 57 61 63 64 65 64 58 69 74 78 78 85 82 77 78 76 78 77 72 73 71 62 65 67 72 72 81 81 80 78 81 83 82 80 79 80 79 80
57 57 57 56 56 55 57 64 63 61 61 63 64 65 71 81 83 78 83 81 80 76 68 74 68 64 70 72 73 72 72 72 75 81 78 79 80 80 81 82 80 79 79 80 81
57 57 56 56 55 55 60 61 56 57 50 64 61 64 71 74 72 76 84 75 73 67 73 67 64 73 75 72 71 71 70 71 75 80 78 79 78 82 80 80 82 80 80 81 83
57 56 56 55 54 56 55 57 62 60 50 60 64 66 70 73 68 74 80 79 73 69 68 67 71 76 71 69 67 69 69 71 71 77 79 77 76 76 80 82 83 83 84 83 83
56 56 55 54 57 54 58 59 60 58 51 61 63 68 70 74 67 81 83 80 74 69 70 71 77 72 69 68 71 65 74 73 71 70 66 78 66 72 79 77 79 82 82 84 84
56 55 54 53 52 53 60 60 60 56 47 66 65 78 73 72 73 72 83 79 72 72 71 68 70 68 66 70 73 69 76 73 73 71 71 71 67 75 74 74 77 81 83 84 86
55 55 54 53 53 57 58 57 57 51 44 62 68 66 65 69 71 72 74 82 81 73 75 75 77 76 73 75 75 78 72 73 71 71 59 69 68 71 75 77 81 83 84 84 86
54 53 53 56 55 61 57 57 50 44 62 56 58 62 62 63 67 68 67 68 67 62 62 70 70 76 79 71 75 74 70 60 57 58 58 74 67 71 81 83 87 85 84 86 86
52 51 53 57 60 58 57 54 41 51 51 59 59 60 58 60 62 63 65 64 73 73 68 61 58 71 77 74 69 69 71 62 52 57 63 68 63 72 84 88 88 91 91 89 87
52 54 56 60 60 58 55 43 44 47 49 49 55 53 54 57 57 59 63 66 71 73 65 63 64 74 76 78 77 69 65 76 66 62 61 68 73 78 82 85 87 88 89 88 89
50 47 54 60 58 57 50 40 44 50 51 53 46 51 47 52 55 56 58 56 62 65 65 68 61 73 75 79 79 73 77 62 66 53 53 63 63 70 75 80 83 84 87 89 90
49 48 59 59 59 53 41 40 44 51 52 50 48 47 50 48 52 53 51 56 58 59 63 64 65 64 73 70 69 68 67 70 71 66 59 58 66 77 78 80 83 87 89 90 90
46 45 58 58 46 45 41 42 46 49 52 49 52 50 49 50 50 51 49 53 59 60 55 58 64 62 65 77 80 76 71 71 63 58 64 66 67 82 83 85 84 88 89 91 92
41 40 56 58 36 38 42 42 46 46 46 45 45 49 51 49 46 50 51 57 59 59 54 59 56 57 61 69 72 70 74 73 74 72 61 60 66 85 81 81 85 85 86 86 87
44 40 48 48 46 38 36 39 40 49 46 44 44 49 47 47 50 46 49 54 57 58 58 58 55 56 58 62 61 60 67 72 72 65 64 65 70 77 80 79 83 85 86 88 85
43 40 43 37 42 41 41 39 38 39 46 47 37 38 38 40 45 45 48 51 55 55 57 57 50 53 55 57 58 58 60 63 64 69 65 69 70 75 78 81 84 87 86 84 85
42 41 42 38 42 40 41 38 38 41 40 41 35 38 37 37 42 40 44 47 46 53 52 55 50 51 51 57 59 56 61 62 63 65 66 69 69 82 82 84 83 86 86 85 84
49 49 40 38 37 36 40 40 40 42 44 45 39 40 39 40 47 50 52 52 51 47 47 49 50 49 46 54 55 52 60 63 65 68 69 63 71 79 79 80 80 82 85 85 85

GFSSW_sfc_temp_036.txt.gz
Temp
62 62 62 62 62 62 62 62 63 63 63 63 62 62 62 62 62 72 77 87 85 79 83 92 91 91 91 88 89 89 82 82 81 82 84 90 86 90 92 86 87 88 88 87 88
62 62 62 61 62 62 62 62 62 62 62 62 62 62 62 62 73 78 87 81 80 79 91 88 85 88 86 87 87 84 82 83 89 90 88 90 89 87 86 85 85 85 91 89 89
61 61 61 61 61 61 61 62 62 62 61 61 61 62 62 65 75 88 82 80 80 82 97 94 93 89 86 89 86 86 83 88 89 91 92 91 89 92 87 83 87 83 84 86 87
61 61 61 61 61 61 61 61 61 61 61 61 61 62 62 72 74 91 81 79 80 93 95 91 89 84 84 80 88 80 87 88 91 91 90 88 93 89 89 90 94 90 88 87 85
60 60 60 60 60 60 61 61 60 60 60 61 61 62 68 73 81 96 79 80 88 93 91 88 84 86 82 85 86 82 87 89 92 92 92 92 89 89 89 93 96 92 88 87 87
59 59 59 59 60 60 60 59 59 59 60 61 61 62 70 68 96 95 93 88 91 92 91 92 88 92 87 86 84 89 88 89 92 93 94 89 90 91 93 95 91 89 87 89 88
59 59 59 59 59 60 59 58 58 59 61 61 62 67 69 78 93 95 93 92 94 94 91 95 95 90 89 84 90 90 82 88 89 92 90 93 87 88 95 94 89 89 88 89 89
59 59 59 59 59 59 58 57 58 62 63 62 63 69 72 90 94 90 94 92 96 97 97 98 96 92 88 90 86 83 86 80 91 92 93 91 82 92 97 93 88 89 88 88 89
58 58 58 58 58 57 56 57 60 64 63 63 67 70 75 80 83 91 93 87 91 94 95 96 92 86 88 80 80 83 78 81 84 93 91 89 85 91 98 93 90 89 89 88 88
58 58 57 57 57 56 55 58 62 65 69 72 74 65 77 80 88 90 94 93 87 86 84 83 83 81 81 78 70 76 77 82 82 89 90 88 87 93 95 92 91 89 90 88 89
58 57 57 57 56 55 63 77 72 68 73 73 77 77 79 87 89 87 91 88 87 83 76 82 75 72 78 82 83 84 82 80 86 91 87 86 88 91 93 92 91 90 89 89 90
57 57 57 56 55 55 72 70 61 61 56 73 74 77 83 82 79 85 92 82 79 73 81 77 71 81 84 84 81 80 77 80 86 90 86 86 86 92 92 91 92 90 90 90 92
57 57 56 55 55 66 69 64 71 70 59 71 77 76 77 82 78 81 87 86 79 76 77 75 79 84 81 79 76 77 77 79 80 85 87 85 82 86 91 93 93 95 94 94 92
57 57 55 53 63 69 69 73 73 70 57 71 70 75 80 82 75 89 89 87 81 76 79 79 86 80 79 76 79 74 83 81 81 79 73 87 73 84 90 89 91 94 93 95 92
57 56 55 52 65 66 68 73 71 67 52 74 73 85 81 78 85 81 90 86 79 79 81 75 78 78 75 77 82 77 86 81 80 78 77 79 75 81 90 86 90 93 95 95 96
56 55 53 65 71 72 73 72 68 55 50 68 73 71 71 75 79 84 81 88 88 81 82 81 88 85 82 84 84 85 81 80 79 78 68 77 77 78 85 86 91 95 96 95 96
54 53 58 67 64 73 73 68 55 52 70 62 65 70 72 72 74 76 74 73 72 67 69 76 79 84 86 79 83 81 76 66 64 66 65 81 76 79 89 94 94 95 97 97 96
53 51 61 69 74 72 69 60 46 59 56 63 63 66 64 72 72 74 72 70 76 77 75 68 66 79 84 81 77 76 77 70 58 65 70 79 71 80 92 96 97 98 101 100 98
52 70 71 73 73 71 63 51 53 51 55 54 61 61 66 67 67 69 71 72 76 80 72 71 71 84 84 85 84 76 71 84 76 77 72 79 81 88 92 93 95 96 99 100 98
62 66 69 75 74 69 59 46 52 56 56 58 52 58 55 60 62 66 70 67 73 81 84 77 69 81 82 85 86 83 84 72 75 61 60 72 74 77 84 86 91 94 97 100 101
64 60 68 74 73 64 51 50 53 58 58 53 52 53 57 57 60 63 63 63 67 74 72 77 76 76 81 76 76 77 76 78 80 76 67 66 75 89 86 89 90 94 98 101 101
62 55 69 72 59 58 51 50 49 56 59 56 57 54 55 57 57 59 58 61 66 68 65 75 75 70 74 84 87 84 78 78 70 66 73 74 79 92 92 93 94 96 98 101 102
56 57 70 68 48 48 51 51 54 52 52 50 49 55 56 55 51 57 58 63 65 66 65 72 69 64 70 78 82 78 81 82 81 80 69 68 76 91 91 90 91 93 96 97 99
56 51 62 62 60 51 47 47 48 55 52 53 41 48 52 54 58 54 57 61 64 64 60 63 70 68 66 70 77 72 77 80 79 72 73 75 78 84 87 88 90 93 95 96 96
59 52 51 46 50 49 47 49 46 44 52 54 40 37 37 45 53 52 56 59 63 62 66 66 62 63 70 67 68 74 76 78 75 77 72 78 78 83 87 89 91 93 94 94 95
51 48 49 49 48 44 45 45 45 46 46 46 39 44 45 35 37 41 50 55 55 61 61 65 59 61 60 66 66 65 70 73 77 79 78 79 79 91 91 91 91 91 91 91 93
58 56 47 45 46 43 43 45 45 47 50 50 48 48 46 46 48 54 58 59 59 55 56 57 59 57 57 66 64 59 67 71 73 77 77 72 79 86 86 86 87 90 92 92 94

GFSSW_sfc_temp_039.txt.gz
Temp
62 62 62 62 62 62 62 62 63 63 63 63 63 62 62 62 62 74 79 90 90 79 81 94 95 96 98 91 92 97 83 76 84 72 88 96 92 96 98 91 93 93 89 87 88
62 62 62 61 62 62 62 62 62 62 62 62 62 62 62 62 74 82 90 84 82 80 91 92 91 94 91 91 94 89 75 69 90 93 87 95 94 93 92 90 89 92 92 89 89
61 61 61 61 61 62 62 62 62 61 61 61 62 62 62 66 78 90 84 83 81 83 99 99 98 94 89 94 93 92 78 71 94 96 97 95 93 97 91 87 90 87 87 89 90
61 61 60 61 61 61 61 61 61 60 61 61 61 62 62 75 75 94 82 81 81 94 98 96 95 88 87 87 95 86 93 91 96 97 96 93 96 92 94 94 97 95 92 91 91
60 60 60 60 60 60 60 60 60 60 60 61 61 62 67 77 83 97 80 82 90 92 94 93 90 90 86 92 93 89 89 95 96 97 97 97 93 86 94 100 100 96 93 91 92
60 60 59 60 60 60 60 59 59 59 60 61 62 63 71 73 101 104 100 90 94 92 95 97 93 96 92 93 91 94 94 95 97 97 98 94 94 95 97 100 96 94 92 92 93
59 59 59 59 59 60 59 59 59 59 61 62 63 69 77 82 101 102 101 95 99 96 95 99 100 94 96 90 98 95 88 92 94 96 95 97 90 91 99 98 94 93 92 93 93
59 59 59 59 59 59 58 57 59 62 63 63 63 72 75 98 100 98 101 97 101 101 101 103 103 97 94 97 91 88 89 82 93 95 96 95 84 95 101 96 93 93 93 92 93
59 59 59 59 58 58 57 57 60 64 63 64 70 75 78 84 89 97 100 94 98 99 100 103 99 92 92 85 83 86 79 82 87 97 95 93 87 95 101 98 94 93 93 93 93
58 58 58 58 57 57 56 58 65 62 70 77 80 72 81 85 94 96 101 99 95 94 91 92 90 84 86 83 72 78 80 86 83 93 94 91 90 95 100 99 95 94 94 93 93
58 58 57 57 56 55 63 84 75 72 77 76 80 80 88 95 96 93 98 95 94 89 80 87 79 75 81 85 86 87 86 84 90 93 91 90 90 94 98 98 96 94 94 93 94
57 57 57 57 56 55 75 73 69 70 61 76 79 81 87 91 84 90 98 87 85 78 84 81 74 84 87 87 86 85 84 85 91 95 92 90 89 95 98 96 96 95 95 95 96
57 57 56 55 55 70 78 74 81 79 63 73 83 82 84 88 82 87 91 89 83 79 80 78 82 87 86 85 82 83 82 84 85 91 93 89 85 90 97 98 98 99 99 98 96
57 57 56 53 64 78 76 80 83 79 59 74 78 84 88 87 79 93 95 89 84 79 82 82 89 85 83 82 85 78 88 87 86 85 78 90 74 85 92 93 95 97 98 99 98
57 56 54 51 71 74 76 83 82 75 51 81 78 90 89 81 88 85 96 90 83 82 83 79 84 83 80 83 87 82 91 86 85 83 82 83 79 85 92 89 93 97 98 100 100
56 55 54 71 78 81 83 82 77 57 50 74 80 76 77 81 84 90 87 92 91 85 86 85 93 90 87 89 89 90 86 86 85 82 71 79 80 81 88 91 95 98 100 100 102
55 53 57 73 72 83 82 75 57 51 76 65 66 74 77 77 77 84 79 76 75 70 73 81 84 89 91 85 89 86 81 69 67 69 68 82 79 82 93 97 98 98 100 102 102
53 52 66 79 83 82 76 64 47 60 60 66 64 66 64 74 78 79 77 74 79 80 78 72 70 83 89 86 82 81 81 71 60 65 71 82 75 82 96 100 103 103 104 104 104
52 80 78 80 82 80 68 54 56 56 60 58 62 64 68 75 75 77 76 75 79 82 72 75 74 89 89 90 89 81 76 87 79 82 77 80 84 92 97 97 99 100 102 103 103
64 75 78 82 82 75 63 52 59 63 62 61 52 61 54 63 68 72 74 80 80 84 87 81 73 86 87 90 89 86 89 75 78 65 66 77 79 80 87 91 96 97 99 102 105
68 68 76 82 80 69 57 56 59 64 64 57 55 55 55 52 57 66 72 74 76 79 84 83 80 80 87 81 79 81 80 82 83 80 71 70 78 93 91 93 93 97 100 102 104
70 61 77 79 62 71 58 57 54 61 64 60 60 58 55 55 51 56 63 68 71 74 71 83 80 72 80 88 90 87 82 82 73 70 79 80 81 97 99 99 98 97 101 104 105
63 66 79 75 54 56 60 58 59 59 58 55 52 53 55 51 46 52 58 68 71 72 69 77 73 67 73 83 86 82 85 86 85 84 74 73 78 95 95 95 98 98 101 102 104
62 56 66 68 67 57 53 52 52 59 58 58 53 54 51 52 56 52 52 64 69 70 63 67 71 70 70 75 82 76 82 84 84 77 77 79 82 87 89 91 93 97 100 101 100
61 54 58 52 55 55 55 53 50 48 57 59 48 47 47 44 50 41 48 60 69 66 71 72 64 72 77 81 82 82 80 82 80 82 76 83 82 87 90 91 94 97 97 97 97
48 45 53 51 54 50 51 50 49 51 53 50 50 50 50 44 46 41 44 51 56 64 65 72 62 69 70 79 75 73 81 82 83 83 83 85 85 95 95 96 94 95 95 94 95
49 50 45 45 49 45 49 50 50 52 55 56 52 53 51 51 58 59 59 61 61 59 59 61 64 64 61 72 71 65 75 79 83 86 85 78 86 95 93 91 92 93 94 94 96

GFSSW_sfc_temp_042.txt.gz
Temp
62 62 62 62 62 62 62 63 63 63 63 63 63 63 63 62 62 72 73 87 88 80 81 92 93 93 95 91 94 94 68 69 76 76 74 95 90 93 97 91 92 90 82 83 86
62 62 62 61 62 62 62 62 62 62 62 62 62 62 62 62 68 75 86 84 83 81 89 90 87 91 88 89 91 84 60 63 80 80 80 90 93 92 90 90 85 84 83 85 86
61 61 61 61 61 62 62 62 62 61 61 61 61 62 62 65 71 86 84 85 83 84 94 95 95 92 86 91 90 88 72 69 76 82 93 88 93 97 90 85 85 80 81 84 84
61 61 61 61 61 61 61 61 61 61 61 61 61 62 62 70 70 92 84 82 82 93 92 93 92 87 84 83 92 85 78 83 83 90 86 76 84 84 92 89 92 88 86 85 83
60 60 60 60 60 60 61 61 60 60 60 61 61 62 64 69 78 99 81 83 91 92 89 90 88 88 83 88 91 88 79 84 81 88 83 75 84 79 88 95 95 91 88 86 86
60 59 59 60 60 60 60 60 59 60 60 61 62 63 66 66 98 102 99 90 92 90 90 93 91 94 89 89 89 92 93 93 89 97 90 87 84 87 88 98 93 90 88 89 89
59 59 59 59 60 60 60 59 59 60 61 64 63 67 71 76 102 105 101 93 95 93 89 95 98 93 92 88 95 94 86 92 88 96 95 97 82 85 77 96 91 90 89 90 92
59 59 59 59 59 59 59 58 59 61 64 64 65 69 69 97 94 97 102 98 99 98 96 99 101 95 92 95 93 88 86 78 90 94 96 94 81 88 89 93 90 90 90 90 92
59 59 59 59 58 58 57 57 60 63 64 64 66 71 74 91 90 97 100 95 96 98 97 101 98 90 91 83 80 85 75 79 84 95 93 91 84 94 96 95 90 89 90 90 90
58 58 58 58 58 57 56 58 67 63 66 74 77 70 78 84 94 96 100 99 93 93 90 90 90 83 84 80 69 75 77 81 80 90 92 89 88 94 97 92 91 91 91 90 90
58 58 58 57 57 56 62 84 76 72 77 71 76 77 86 95 100 94 97 94 94 89 79 85 79 75 79 83 84 84 82 81 87 92 88 87 88 91 94 92 91 88 91 90 91
58 57 57 57 56 56 63 75 74 75 63 75 77 78 83 90 84 91 98 86 85 77 83 80 74 83 86 85 83 82 81 82 88 93 89 88 86 93 93 94 93 90 92 92 92
57 57 57 56 56 67 82 77 85 83 64 68 77 77 80 85 80 87 92 88 82 78 79 75 80 86 84 82 80 80 79 81 84 88 87 88 82 88 93 93 95 95 96 95 93
57 57 56 54 65 78 78 84 86 84 57 68 78 83 84 86 78 93 95 88 84 78 81 79 87 83 81 80 82 75 86 86 85 83 75 89 72 83 90 90 92 95 93 95 95
57 57 55 53 65 73 79 86 86 79 45 81 81 93 91 80 87 83 97 89 79 81 81 77 80 81 78 80 85 80 89 85 85 82 81 82 76 82 89 87 90 94 92 97 97
56 56 54 71 76 80 86 85 80 57 46 68 75 73 76 82 82 88 85 91 89 83 84 82 90 87 86 87 88 90 86 85 84 81 70 78 79 79 85 87 92 95 97 98 99
55 54 56 70 71 85 84 76 57 48 69 62 62 67 67 69 77 80 79 77 74 68 71 78 81 88 91 84 87 86 79 68 66 67 65 80 77 80 91 94 96 95 97 99 100
54 53 68 78 84 84 78 64 47 59 59 66 63 64 62 71 72 77 75 73 78 78 74 70 68 81 89 85 81 81 79 69 57 63 68 79 72 79 93 99 102 101 101 102 101
54 75 79 84 85 82 68 54 56 58 63 59 61 56 58 65 63 66 74 75 78 79 70 72 71 87 89 90 88 80 74 85 75 77 71 76 80 89 94 95 98 100 101 100 101
61 68 72 84 85 77 63 52 61 65 64 62 52 57 50 54 55 56 61 79 79 83 85 78 70 84 87 91 89 85 88 73 76 61 61 72 75 77 83 89 94 96 99 101 101
67 68 79 85 82 68 56 59 61 66 65 59 55 53 53 50 49 52 57 61 71 80 85 81 76 77 85 80 79 81 79 80 80 76 66 66 75 93 86 90 92 96 99 101 102
64 60 81 82 62 65 58 61 56 63 66 62 60 57 49 49 47 45 48 56 67 72 69 81 76 69 75 89 90 86 81 81 71 67 75 75 77 96 96 96 97 97 99 102 102
59 65 81 76 53 55 60 60 62 59 58 54 55 58 57 49 44 46 46 55 61 66 63 68 70 64 69 80 86 81 83 83 83 81 70 70 76 94 95 95 97 96 99 98 100
59 52 61 61 61 55 53 53 54 63 56 51 51 59 54 48 52 42 43 54 59 65 65 67 66 66 66 72 82 76 80 83 81 74 74 77 79 86 90 92 95 95 97 99 98
60 53 54 45 51 51 53 54 52 50 54 52 53 45 47 44 45 42 47 52 56 63 69 71 62 69 74 80 82 81 79 81 78 81 74 80 82 84 88 90 94 97 98 98 97
48 43 45 46 52 50 49 46 50 54 54 52 50 45 47 46 48 45 49 47 45 59 60 68 60 67 67 76 78 75 82 81 82 82 83 84 84 91 93 93 93 93 93 92 94
52 51 42 39 47 45 47 48 50 54 55 57 52 53 52 54 58 59 60 58 53 54 57 59 60 60 58 70 72 68 77 81 82 85 84 79 86 91 90 90 91 92 93 93 95

GFSSW_sfc_temp_045.txt.gz
Temp
62 62 62 62 62 62 62 62 62 62 63 62 62 62 62 62 62 65 61 77 78 80 80 86 86 85 86 80 84 85 61 59 64 71 74 76 82 88 89 81 82 83 77 79 81
62 62 62 61 62 62 62 62 62 62 62 62 62 62 62 62 59 62 76 81 82 81 81 81 80 83 77 78 80 75 61 64 75 76 76 82 82 83 80 75 74 75 80 82 82
61 61 61 61 61 62 62 62 62 62 61 61 61 62 62 62 61 72 83 80 83 82 84 86 86 83 76 80 80 80 65 73 74 78 84 80 81 87 77 70 73 71 76 80 80
61 61 60 61 61 61 61 61 61 61 61 61 61 61 62 61 60 87 83 81 82 85 85 83 82 76 74 73 82 75 82 80 82 83 80 81 78 81 81 77 80 79 79 80 79
60 60 60 60 60 61 61 61 60 60 60 61 61 62 58 57 63 90 83 81 84 84 81 80 77 77 73 77 82 79 81 83 86 82 78 84 81 80 81 82 81 81 80 79 78
60 60 60 60 60 60 60 60 60 60 61 62 62 62 55 53 85 89 89 83 83 82 81 81 79 84 79 80 79 84 84 82 80 79 82 79 82 82 82 84 80 79 78 79 79
59 59 59 59 60 60 60 59 59 60 61 62 64 63 59 62 89 90 88 81 85 84 79 85 86 82 83 78 87 86 81 81 79 80 80 82 76 80 83 83 80 79 79 80 80
59 59 59 59 59 59 59 58 59 61 61 64 65 62 53 81 80 80 86 84 88 87 86 87 88 82 81 85 84 79 80 73 82 84 83 81 67 80 86 81 78 79 80 80 80
59 59 59 59 59 58 57 58 62 64 63 64 60 58 58 86 79 85 86 86 86 86 86 92 86 78 80 74 70 72 66 70 76 87 84 80 72 79 83 82 79 80 81 81 81
58 58 58 58 58 57 57 60 65 62 64 70 70 55 68 78 86 88 89 90 86 84 82 80 76 71 73 68 58 63 65 72 72 82 84 78 75 76 80 82 80 81 82 83 81
58 58 58 58 57 56 55 58 65 61 66 61 64 67 69 84 86 86 90 86 85 80 69 75 66 63 69 73 74 74 72 72 79 86 80 79 78 78 80 81 73 72 82 82 84
58 58 57 57 56 58 58 66 67 69 58 71 71 71 76 78 70 79 90 78 76 69 74 69 63 73 78 77 75 74 71 73 79 85 82 78 77 82 81 75 74 75 70 82 84
58 57 57 56 57 63 67 70 79 76 57 64 70 70 71 74 69 72 80 80 74 70 71 66 70 79 78 75 73 72 70 71 72 82 86 80 75 80 82 77 75 72 73 85 84
58 57 56 54 60 64 68 76 79 77 46 59 66 75 76 74 69 82 84 81 76 70 73 71 78 76 74 73 75 66 78 78 77 74 62 77 58 69 80 76 74 74 77 83 85
57 57 55 54 55 60 70 78 79 71 35 70 68 83 75 68 74 77 84 79 72 73 73 69 73 72 71 74 78 71 80 77 76 71 70 72 65 71 77 76 76 75 75 79 87
57 56 55 60 62 68 76 78 71 46 40 62 68 64 63 67 71 77 79 82 82 75 76 74 83 79 76 81 81 82 77 74 74 70 60 67 69 69 73 75 77 78 80 82 88
55 54 53 63 60 75 75 68 46 40 65 57 56 61 60 60 62 63 62 68 65 60 61 71 74 80 82 74 79 77 66 55 55 56 55 65 62 66 80 83 84 84 83 84 87
54 53 60 69 71 74 70 54 39 56 55 61 58 59 54 58 58 59 55 54 72 69 60 59 58 73 81 75 70 71 68 58 47 50 56 65 59 68 82 85 92 92 88 87 84
54 64 68 74 75 73 58 43 47 52 57 54 55 50 51 54 55 53 50 50 61 71 61 59 60 79 81 82 79 70 64 70 55 57 52 58 65 76 83 83 84 89 91 87 84
54 61 65 77 77 67 52 46 53 61 60 58 46 51 44 49 46 47 47 55 52 56 54 67 57 74 80 82 81 75 75 61 63 47 48 59 62 66 74 79 82 82 89 91 92
59 57 71 80 75 61 48 52 56 63 62 55 50 48 48 48 48 45 47 52 55 51 55 55 61 65 74 71 70 71 67 69 62 57 48 48 60 75 78 80 82 82 84 92 92
56 50 72 73 55 57 49 54 55 58 62 56 54 52 48 48 47 45 44 49 55 50 45 55 53 57 63 76 82 77 72 68 61 53 57 55 62 78 79 85 86 87 87 89 93
50 55 70 66 44 46 50 51 57 56 55 52 49 51 51 47 39 41 44 54 54 48 48 52 47 48 58 66 74 73 75 74 65 60 55 56 61 82 80 84 87 84 89 84 90
52 47 54 57 55 47 45 46 47 56 53 54 50 53 49 44 44 38 42 49 53 51 56 55 49 48 50 60 65 66 74 75 70 61 60 64 61 74 77 78 79 81 83 83 85
53 48 48 41 41 44 47 47 43 42 53 56 47 49 44 38 42 41 45 46 52 52 50 49 45 54 60 66 69 70 73 75 70 69 63 66 65 72 71 76 78 80 82 84 82
48 43 44 40 44 43 46 44 44 46 46 45 47 49 45 39 42 38 46 44 43 47 43 47 45 52 54 66 69 69 75 77 75 74 72 70 69 76 78 78 79 79 81 79 80
53 52 43 39 40 41 43 43 43 46 49 50 49 48 44 50 53 53 55 54 51 45 41 44 48 45 45 61 65 56 68 75 76 77 76 68 71 76 74 77 78 79 80 80 82

GFSSW_sfc_temp_048.txt.gz
Temp
62 62 62 61 62 62 62 62 62 62 62 62 62 62 62 62 61 62 57 71 71 78 81 78 79 80 80 75 77 72 61 58 61 62 64 74 74 79 84 76 80 80 74 73 77
62 62 61 61 62 62 62 62 62 62 62 62 62 62 62 62 57 57 71 77 78 79 77 76 73 77 70 73 75 70 58 62 74 77 75 74 76 79 76 74 72 73 76 76 77
61 61 61 61 61 61 61 61 61 61 61 61 61 61 61 61 56 66 79 77 79 79 81 81 80 76 69 73 73 71 61 73 77 80 81 74 80 80 73 67 71 68 71 76 76
61 61 60 61 61 61 61 61 61 61 61 61 62 62 61 58 60 82 82 77 79 80 79 77 74 69 67 67 76 67 76 78 79 83 80 77 80 77 76 73 77 76 76 76 75
60 60 60 60 60 61 61 61 60 60 61 61 62 61 56 52 59 81 83 79 80 79 76 74 71 69 66 71 74 72 76 82 83 80 80 82 80 77 77 78 79 78 77 76 76
60 60 60 60 60 61 61 60 60 60 61 61 63 62 52 50 78 80 82 76 79 78 76 76 73 75 71 73 72 78 78 81 84 79 79 77 80 77 75 78 76 76 75 76 76
59 59 59 59 60 60 60 59 60 61 62 61 64 62 53 58 80 80 76 74 78 79 74 79 79 77 75 71 80 79 74 80 79 80 79 82 73 71 75 77 74 75 76 77 77
59 59 59 59 59 59 59 59 60 63 62 62 65 62 50 71 73 72 75 77 80 80 80 80 81 73 70 77 76 72 71 68 78 77 82 79 65 74 76 74 72 74 76 76 77
59 59 59 59 59 58 57 58 61 65 63 65 58 56 49 75 70 75 78 78 77 76 78 88 76 69 70 65 60 63 59 66 73 80 80 73 66 75 76 73 71 73 74 76 76
58 58 58 58 58 57 57 58 62 62 64 66 66 51 62 72 76 80 78 82 77 75 74 73 66 60 63 56 52 56 58 63 67 75 80 72 70 75 76 73 72 73 74 75 75
58 58 58 58 57 56 53 57 61 55 59 55 61 60 67 74 80 76 81 80 78 71 61 66 60 56 62 64 66 66 65 65 71 79 75 75 73 74 75 74 72 72 73 74 75
58 58 58 57 56 56 53 56 57 63 51 67 68 66 70 71 64 72 78 71 69 64 66 59 58 66 70 69 68 68 64 66 72 79 77 76 71 75 76 74 74 73 75 76 77
58 58 57 56 55 57 56 60 67 58 47 59 65 64 65 66 63 66 70 71 66 62 65 61 64 73 70 68 66 66 63 65 66 73 79 75 70 71 77 77 77 78 79 81 80
58 57 56 55 56 53 57 65 67 62 40 53 62 68 71 67 62 79 77 71 70 65 65 64 72 70 68 67 69 59 72 72 71 66 58 75 59 68 72 72 76 76 77 79 83
57 57 56 54 46 51 64 61 68 57 34 65 62 74 70 62 66 68 77 70 64 65 65 63 68 67 65 68 73 66 74 71 71 63 57 67 60 68 72 67 70 74 75 78 82
57 56 55 53 48 55 61 65 57 43 35 57 61 60 59 61 62 67 66 69 72 66 67 68 76 73 71 75 75 77 70 68 64 60 54 62 64 63 66 68 70 75 74 77 81
55 54 53 58 55 61 61 55 40 34 57 50 49 54 53 53 56 57 56 52 46 43 54 65 67 75 77 69 73 71 59 51 46 49 49 61 57 66 73 74 73 75 74 78 83
54 53 54 59 56 59 55 46 31 49 46 54 53 52 48 50 51 52 50 46 53 47 39 54 52 67 76 69 66 66 62 47 41 44 51 59 54 66 77 81 80 80 79 81 80
53 52 54 61 64 58 49 34 36 45 53 51 49 44 44 51 48 48 47 48 52 49 37 34 55 71 75 77 73 64 60 64 50 46 49 54 60 71 76 75 79 78 81 79 81
48 45 53 67 66 55 44 39 43 55 55 52 39 44 38 43 43 45 45 53 50 54 50 43 35 64 73 75 75 70 69 54 49 45 40 50 54 61 68 72 74 78 78 80 83
43 43 57 70 60 48 35 38 49 57 58 48 42 40 40 37 41 42 45 51 53 51 51 44 39 50 65 63 65 60 64 58 59 50 50 43 57 66 69 71 73 77 81 82 85
40 38 58 64 44 41 36 44 50 50 54 50 50 47 41 41 38 40 42 45 54 50 42 46 41 36 52 69 71 73 62 62 57 48 48 48 58 77 75 77 78 82 83 85 86
38 40 56 54 32 34 41 46 51 48 50 49 46 47 44 38 34 40 44 53 54 48 41 42 39 32 45 53 62 60 68 63 58 55 50 55 60 73 73 73 75 81 81 86 86
39 35 42 43 40 33 35 40 43 52 49 49 47 46 41 37 38 36 40 47 50 49 51 45 39 35 32 43 52 55 65 65 66 56 55 58 61 69 76 74 77 76 78 84 87
39 35 37 33 36 37 39 41 42 41 49 50 43 43 39 32 35 36 41 46 49 49 45 40 33 38 43 48 53 54 64 67 62 63 60 63 61 68 69 74 71 73 76 82 86
37 37 37 35 39 39 40 40 39 42 43 41 40 43 41 34 37 34 40 43 41 43 38 40 33 37 38 53 56 56 66 67 68 70 64 64 62 70 73 73 71 72 77 80 84
42 43 42 40 38 36 37 38 39 43 46 48 44 41 39 43 47 47 49 50 45 41 37 35 35 32 35 53 59 52 57 64 67 69 67 62 66 69 69 68 68 72 76 74 77

GFSSW_sfc_temp_051.txt.gz
Temp
62 62 61 61 62 62 62 62 62 62 62 62 62 62 62 61 61 60 54 67 68 76 80 76 76 77 77 72 77 72 60 56 62 63 64 72 72 77 80 73 77 76 72 72 75
61 61 61 61 61 62 62 62 62 62 62 62 61 61 61 61 56 54 70 74 75 78 75 71 69 73 67 70 71 65 57 63 70 72 67 67 73 76 73 72 68 70 73 75 75
61 61 61 61 61 61 61 61 61 61 61 61 61 62 62 60 53 64 78 76 77 78 79 77 76 73 66 69 70 67 59 69 74 78 79 74 74 78 72 66 69 64 68 73 73
61 61 61 61 61 61 61 61 61 61 61 61 61 63 61 56 59 78 81 76 78 78 78 75 72 66 63 63 72 63 70 73 78 80 78 74 73 73 73 72 75 72 73 72 71
60 60 60 60 60 60 61 60 60 60 61 61 61 63 54 51 58 78 79 77 76 75 74 72 68 65 62 66 70 67 71 76 79 79 79 78 76 74 73 76 76 75 74 72 72
59 59 59 60 60 60 60 60 60 60 61 61 62 62 51 49 75 78 77 74 74 74 72 71 70 71 67 67 69 73 74 75 78 79 79 76 76 75 74 76 74 73 72 72 73
59 59 59 59 60 60 60 59 60 61 63 62 62 62 52 58 73 72 71 69 73 76 71 75 73 72 70 66 76 74 68 73 76 77 76 81 70 71 73 74 71 72 72 73 74
59 59 59 59 60 59 58 58 59 63 62 62 64 62 49 68 68 69 70 72 75 74 75 75 75 69 66 72 72 67 64 58 72 77 80 75 63 70 73 71 69 71 73 74 75
59 59 59 59 59 58 57 57 61 64 64 64 56 53 49 72 69 73 73 73 72 71 72 84 71 63 66 61 56 58 53 59 66 77 77 73 65 70 73 70 69 70 72 73 73
58 58 58 58 57 56 56 58 62 62 64 65 64 51 60 67 72 75 74 77 72 70 70 68 62 55 54 53 50 52 54 58 62 71 73 68 66 68 71 70 69 70 71 72 73
58 58 58 58 57 55 52 59 55 52 55 52 57 59 64 69 75 72 74 74 72 65 56 61 54 53 59 62 61 61 61 62 67 74 72 69 69 67 70 70 68 69 71 71 73
58 58 57 57 56 55 52 57 57 59 47 63 64 62 66 66 62 69 74 66 64 57 60 55 53 62 65 64 63 61 58 59 67 73 72 71 69 70 69 69 70 69 70 72 73
58 58 57 56 54 55 51 55 60 55 44 55 61 62 63 61 60 64 66 65 62 59 59 55 58 68 65 62 60 60 58 60 62 68 73 70 67 71 69 71 72 72 73 74 74
57 57 56 55 56 50 57 59 57 58 39 52 57 65 65 64 58 72 71 66 63 60 62 59 68 66 63 61 62 52 66 68 66 60 58 69 51 66 68 67 70 71 72 73 75
57 56 55 54 47 52 61 57 56 56 32 60 57 71 64 56 61 63 72 65 58 59 59 59 62 63 61 63 66 61 67 65 65 58 54 65 53 59 68 63 67 70 73 75 77
56 55 55 50 45 52 58 56 56 42 33 51 57 56 54 55 58 61 62 64 62 55 62 61 71 68 67 70 70 70 64 61 58 55 52 60 56 54 63 66 69 73 75 77 78
55 54 52 56 54 55 57 52 40 33 53 48 46 50 48 48 52 54 51 46 42 41 40 52 62 68 70 64 67 66 55 44 43 43 48 57 54 63 69 74 74 74 76 79 80
53 52 52 59 57 55 53 45 32 46 42 50 49 47 44 48 47 50 46 43 47 43 38 34 45 62 70 66 61 59 57 43 37 38 50 56 48 59 73 78 80 80 80 80 79
52 46 51 58 63 54 49 33 34 41 49 47 46 40 41 47 45 45 44 43 46 45 36 36 38 52 59 71 69 60 56 61 47 43 46 52 54 65 71 74 77 79 79 79 79
45 41 47 65 59 52 42 37 39 49 51 47 37 41 34 39 40 39 40 48 48 49 46 42 34 46 54 64 70 65 65 51 47 40 38 46 51 61 63 67 73 75 77 78 80
40 42 55 63 55 45 34 34 45 51 53 46 40 37 37 36 37 37 40 47 50 48 49 42 40 41 50 55 60 57 60 56 56 49 48 39 51 61 67 70 72 76 79 78 79
37 39 55 55 40 36 34 41 48 47 51 47 46 42 39 39 35 37 39 43 53 48 41 43 38 35 39 55 55 51 58 55 55 47 45 52 56 67 70 70 76 77 78 79 82
38 36 51 51 32 31 38 43 47 45 45 45 45 46 43 36 32 38 42 51 50 48 41 43 37 31 40 47 54 51 58 64 57 50 49 52 55 70 69 70 72 76 79 80 81
38 33 39 40 37 32 33 37 42 52 48 47 45 46 39 35 36 36 39 48 51 49 51 46 38 34 31 38 43 39 45 48 52 55 49 56 59 64 69 68 70 70 75 80 81
36 33 35 31 33 33 35 36 39 40 47 47 42 44 38 30 33 33 39 42 46 48 44 41 33 36 37 40 43 42 43 47 47 58 57 62 56 61 67 68 69 70 71 77 82
36 36 37 34 36 37 36 36 37 42 41 40 39 42 40 32 34 32 36 35 37 39 39 40 32 33 34 43 43 42 47 51 53 58 60 58 60 64 63 63 64 65 68 73 81
41 42 42 40 39 36 36 37 37 39 41 45 43 39 37 40 43 42 41 41 41 35 34 35 33 32 28 42 48 43 50 53 56 54 53 56 55 63 59 62 62 63 65 73 81

GFSSW_sfc_temp_054.txt.gz
Temp
62 62 61 61 61 62 62 62 62 62 62 62 62 61 61 61 61 57 53 66 66 75 78 75 74 74 74 69 75 74 57 54 61 62 66 72 70 76 79 71 75 74 71 71 73
61 61 61 61 61 62 62 62 62 62 62 62 61 61 62 61 54 52 67 73 74 78 73 69 66 70 64 67 72 66 55 60 70 71 68 73 74 73 71 69 67 67 71 73 73
61 61 61 61 61 61 61 61 62 61 61 61 61 61 62 58 52 64 78 75 76 78 76 75 73 70 63 66 68 67 58 67 72 76 74 72 73 77 71 65 66 63 66 70 70
61 61 60 60 61 61 61 61 61 61 61 61 61 61 61 54 57 72 79 76 77 76 75 72 70 64 61 61 69 61 68 70 74 78 74 72 75 72 73 72 73 70 70 70 69
60 60 60 60 60 60 60 60 60 60 60 61 61 62 53 49 58 74 78 76 75 73 72 68 67 63 60 63 67 64 68 73 75 75 74 76 72 72 72 73 74 72 72 70 69
60 59 59 60 60 60 60 60 59 60 61 62 61 62 49 50 71 72 73 72 72 70 70 70 68 68 64 64 65 70 72 72 74 73 74 73 74 73 70 72 71 70 70 70 70
59 59 59 59 60 60 59 59 59 60 62 62 63 61 51 56 69 68 70 67 67 70 68 69 72 70 66 63 72 71 66 72 72 72 73 77 68 69 70 71 68 69 69 70 71
59 59 59 59 59 59 58 57 58 61 62 63 65 57 49 67 66 67 68 69 72 68 70 73 72 65 62 69 68 64 62 56 68 73 75 74 60 68 71 68 66 68 69 70 71
58 59 59 59 58 57 56 57 61 63 63 65 57 49 55 72 66 69 69 69 69 68 70 83 68 60 63 58 53 55 51 57 63 73 73 70 62 67 70 68 66 67 69 70 70
58 58 58 58 57 56 56 59 64 62 62 64 63 50 61 65 69 72 69 73 68 67 66 64 59 53 50 51 45 50 51 56 60 69 70 66 63 66 68 67 67 68 69 70 70
58 58 58 57 56 55 52 53 52 50 54 47 56 57 63 67 71 69 71 70 68 62 53 57 51 51 56 59 58 58 57 59 65 71 67 65 64 64 67 67 66 67 68 69 71
58 57 57 56 56 55 52 54 54 56 45 57 60 59 63 63 60 68 71 63 61 53 56 51 49 58 61 60 58 58 54 56 64 69 67 65 65 66 66 66 67 67 68 70 72
57 57 56 56 54 54 51 56 58 52 43 53 58 59 62 57 58 62 65 63 59 55 54 50 55 64 61 57 56 55 52 55 58 65 68 63 61 62 67 68 70 71 71 72 72
57 57 56 54 56 49 55 56 56 54 39 50 54 62 64 60 55 69 68 61 60 56 57 55 62 62 59 57 57 48 62 63 61 57 51 64 48 59 63 63 67 68 70 71 72
56 56 55 53 45 52 60 52 51 53 30 56 55 67 61 54 57 60 67 60 55 57 56 53 58 59 56 60 62 57 63 61 61 55 51 58 52 56 64 59 63 68 70 72 74
56 55 54 51 46 53 54 52 53 40 32 48 54 52 51 52 55 58 57 59 58 52 55 58 65 63 64 66 65 65 59 57 54 51 46 56 58 53 57 63 65 69 71 73 74
54 53 51 54 53 58 51 51 39 32 50 45 43 47 44 46 49 50 48 44 39 39 39 49 56 63 65 58 62 62 52 40 38 39 46 56 53 58 65 70 71 70 72 74 76
52 51 51 57 55 52 52 45 29 43 40 46 46 44 42 46 45 47 44 40 45 41 36 34 42 56 61 59 55 57 53 40 33 37 48 52 47 57 73 73 76 76 76 76 77
52 44 48 54 60 52 48 33 32 37 44 44 44 38 38 44 43 43 40 40 43 42 34 32 38 52 56 59 59 54 51 57 43 40 41 53 53 66 67 71 73 76 76 76 77
42 39 47 60 53 51 42 35 38 46 47 45 36 39 33 37 37 36 38 45 44 47 43 38 31 45 52 57 60 56 62 48 44 37 34 44 48 56 62 65 68 70 73 76 78
39 43 53 57 52 44 33 32 42 49 50 42 38 36 36 35 36 35 38 44 48 45 45 36 36 40 47 48 52 54 54 51 54 47 42 39 49 60 64 69 72 70 74 76 78
36 38 55 52 39 32 30 36 45 44 48 45 43 41 38 38 34 35 38 41 50 45 37 39 39 33 37 50 53 49 46 49 50 44 47 44 52 67 67 69 74 75 75 77 79
37 35 49 49 30 28 33 38 43 43 42 42 41 43 40 36 32 37 40 48 50 45 38 38 37 27 37 40 49 46 45 42 41 47 49 49 49 68 67 67 69 70 73 75 77
37 33 38 38 34 29 33 33 37 49 44 45 43 43 39 36 37 34 37 46 49 47 51 44 33 32 29 35 40 39 44 45 40 36 48 54 56 63 67 66 67 68 69 71 72
36 32 34 30 33 38 35 34 35 36 42 44 40 42 37 31 35 34 38 40 45 48 42 36 29 32 36 40 40 41 42 43 40 43 40 53 55 60 65 68 65 67 67 68 71
36 35 35 33 39 38 38 34 37 39 38 37 37 42 39 34 36 34 38 34 36 38 36 35 30 37 33 39 40 40 47 48 49 48 48 50 52 58 59 61 60 60 62 63 66
42 45 42 40 40 37 37 38 38 39 40 42 40 38 38 40 42 42 43 39 37 34 33 34 34 34 28 39 40 38 47 52 49 47 49 50 53 57 57 58 57 58 60 61 63

GFSSW_sfc_temp_057.txt.gz
Temp
62 62 62 62 62 62 62 62 62 62 62 62 62 62 61 62 61 60 60 75 73 76 79 80 80 79 80 76 77 76 66 64 68 68 70 76 74 79 82 75 77 79 78 79 78
62 62 61 61 62 62 62 62 62 62 62 62 62 62 61 62 58 58 72 73 74 77 79 76 73 76 73 74 74 69 65 68 76 77 73 74 77 77 75 74 72 73 78 78 78
61 61 61 61 61 61 61 61 61 61 61 61 61 61 62 62 58 72 78 77 76 78 83 81 79 77 72 75 74 73 67 73 78 80 79 79 77 80 76 71 74 70 70 74 77
61 61 61 61 61 61 61 61 61 61 61 61 61 61 61 59 67 76 77 78 76 81 80 78 77 72 71 69 75 68 74 75 78 82 79 77 82 78 78 79 81 77 76 76 77
60 60 60 60 60 60 61 60 60 60 61 61 61 61 60 61 67 77 77 77 78 79 77 76 73 74 71 72 73 71 73 77 80 81 81 81 79 77 78 81 81 79 77 76 78
60 59 59 60 60 60 60 59 59 59 61 63 62 62 60 62 76 77 76 77 78 78 78 79 76 78 75 71 73 76 76 77 79 80 81 79 79 79 75 80 77 75 75 77 78
59 59 59 59 60 60 59 59 59 60 62 63 62 63 61 67 76 76 75 76 77 79 77 79 81 79 76 73 79 77 71 75 79 78 77 83 75 76 77 78 74 74 75 77 78
59 59 59 59 59 59 58 57 58 61 62 63 65 63 64 75 77 75 77 75 78 79 80 81 83 79 75 78 75 73 73 67 78 79 81 81 70 76 77 76 73 74 75 75 77
59 59 59 59 58 57 56 58 62 63 63 65 63 61 68 77 76 79 78 75 76 77 79 84 80 74 75 70 68 69 67 66 70 81 79 79 72 76 77 77 73 73 74 75 76
58 58 58 58 57 56 56 60 64 64 64 66 66 62 74 70 75 77 79 78 73 73 73 73 73 68 68 67 60 64 65 69 70 78 79 76 75 73 75 76 74 73 75 75 76
58 57 57 57 56 55 59 65 66 66 66 62 64 63 71 76 78 77 78 76 74 71 64 69 64 60 66 68 70 69 67 70 75 79 78 76 76 73 74 75 73 73 74 75 76
57 57 57 56 55 55 62 66 63 63 56 64 64 65 69 71 67 74 80 70 67 63 65 62 59 69 70 68 66 67 64 68 75 77 76 75 75 77 74 74 75 74 75 76 78
57 57 56 55 55 62 64 65 67 65 57 62 67 68 70 71 66 68 72 69 67 61 62 61 65 69 66 64 63 65 64 65 68 75 77 74 72 74 75 76 77 77 78 79 78
57 57 55 53 62 59 65 64 64 63 56 58 63 68 72 68 64 73 72 68 67 63 63 63 70 66 65 64 66 61 69 68 67 66 64 75 63 71 76 71 74 76 77 79 79
57 56 54 53 59 65 66 64 64 65 44 59 62 75 69 65 63 67 71 68 61 61 63 62 64 63 62 64 68 64 71 68 68 64 65 68 64 72 76 71 73 76 78 79 81
56 54 54 57 59 67 64 63 66 53 41 53 61 58 60 61 61 64 62 66 63 59 62 63 73 71 69 71 70 72 68 68 68 66 55 64 65 68 72 73 76 79 80 80 81
54 53 53 60 61 68 62 66 51 44 55 49 52 56 55 54 56 57 54 53 52 53 53 56 63 70 74 67 70 68 64 54 51 53 53 69 63 67 78 82 82 80 80 82 82
52 51 56 63 66 62 64 59 42 48 48 55 54 54 50 52 53 54 52 51 53 50 51 50 52 63 71 68 65 64 64 57 46 51 57 67 59 67 80 85 85 87 86 85 83
51 57 62 66 64 62 64 48 46 47 50 49 52 47 48 51 52 52 50 49 49 52 46 46 48 58 61 63 70 64 59 70 60 59 57 65 67 75 80 82 86 86 85 83 83
50 53 62 65 61 64 58 44 47 52 52 51 45 49 44 47 48 49 48 51 48 52 53 48 43 55 57 62 66 67 72 58 60 48 48 59 62 65 73 77 82 84 84 85 85
53 57 64 62 64 58 48 44 47 54 54 49 47 46 47 46 47 46 48 50 52 51 53 50 45 51 55 57 61 61 61 64 65 61 53 53 61 77 76 79 81 83 86 88 86
48 53 63 61 52 46 45 43 45 50 54 51 51 50 47 46 45 45 46 50 54 53 46 49 46 41 48 59 59 57 59 65 56 54 60 60 62 80 82 84 86 88 87 89 88
44 44 61 62 42 41 43 43 46 48 49 48 46 49 49 46 41 46 47 52 54 51 47 49 41 38 47 56 57 55 54 58 63 62 57 54 59 81 80 79 82 84 86 85 86
48 47 51 50 47 43 37 40 41 50 48 48 47 49 46 44 46 43 44 50 52 52 52 50 43 41 41 44 48 44 50 52 53 57 58 61 65 73 77 78 82 82 83 85 84
47 42 43 42 44 42 43 40 39 39 47 49 45 45 42 39 41 41 45 46 51 51 49 47 39 43 45 46 46 45 46 50 49 56 55 63 64 72 77 79 82 84 78 79 81
46 44 45 44 42 41 42 38 37 39 39 40 39 44 40 36 41 39 44 45 44 48 46 45 40 42 40 47 47 43 48 50 53 54 55 58 60 71 74 73 73 71 71 74 76
50 50 44 41 41 38 38 39 39 42 42 44 42 39 37 44 49 50 51 51 49 45 43 41 39 39 37 46 46 42 49 53 56 55 58 56 66 65 67 66 66 67 68 69 71

GFSSW_sfc_temp_060.txt.gz
Temp
62 62 62 62 62 62 62 62 63 63 63 63 63 63 62 62 61 68 73 80 81 77 78 90 89 88 89 84 85 84 76 74 76 77 79 84 78 87 89 84 85 87 86 88 85
62 62 62 62 62 62 62 62 62 62 62 62 62 62 62 63 70 72 81 74 75 77 87 85 83 85 83 84 80 79 76 78 85 85 79 83 84 84 83 83 81 83 88 87 83
62 62 61 61 62 62 62 62 62 62 62 62 62 62 62 66 71 80 77 77 75 79 93 91 90 86 82 86 84 83 76 81 85 86 88 81 85 89 85 80 84 81 83 83 81
61 61 61 61 61 61 61 61 61 61 61 61 62 62 63 71 73 83 77 77 78 86 91 88 86 82 81 79 86 79 84 84 86 88 86 85 90 86 87 87 91 88 86 83 83
60 60 60 60 60 61 61 61 60 60 60 61 62 62 67 73 78 87 79 78 83 86 87 84 82 83 80 84 83 81 84 85 87 88 88 88 86 85 86 89 91 88 85 84 86
60 60 60 60 60 60 60 60 59 59 61 63 63 62 72 74 85 87 84 84 86 87 87 88 85 88 84 82 82 85 86 86 87 88 89 86 87 87 86 89 87 85 84 86 87
59 59 59 59 60 60 59 59 59 60 62 63 63 71 76 75 86 88 86 86 89 90 86 90 90 86 86 81 87 87 80 85 86 87 85 89 83 83 87 87 84 84 85 86 87
59 59 59 59 59 59 58 58 60 62 63 64 65 74 76 86 90 87 87 85 88 89 92 92 90 88 84 87 83 81 82 76 87 87 86 87 78 87 88 86 83 83 84 85 86
59 59 59 59 58 58 57 58 63 64 64 66 72 74 75 79 83 86 87 82 85 86 88 89 88 84 84 77 77 80 75 76 80 89 87 85 81 86 89 88 83 83 84 84 85
58 58 58 58 57 56 56 59 64 64 70 74 76 73 81 76 83 84 87 86 81 81 80 81 81 77 78 77 69 74 75 81 78 84 86 84 83 85 87 88 84 83 84 84 85
58 58 58 57 56 55 67 77 77 76 80 71 74 74 77 83 88 83 85 83 82 78 72 78 72 69 76 79 81 77 80 78 83 86 84 83 84 83 85 86 84 83 84 84 85
58 57 57 56 55 56 73 75 69 70 67 75 74 76 79 80 76 80 85 77 75 70 76 72 67 78 81 80 76 76 74 75 83 86 81 84 83 88 85 85 86 84 85 85 86
57 57 56 55 55 69 76 72 77 74 68 72 76 75 76 80 74 75 81 77 74 72 72 70 75 80 77 74 71 73 73 75 77 83 80 82 80 84 87 87 87 88 88 88 87
57 57 55 53 63 77 76 77 79 76 65 65 70 73 77 77 71 79 79 76 74 70 73 73 80 73 74 70 74 70 79 77 75 74 70 83 70 80 86 83 85 87 87 89 88
57 56 54 52 75 77 74 79 79 75 52 65 69 81 77 73 72 73 79 76 71 72 73 69 71 72 69 72 77 72 81 77 75 73 74 76 72 79 87 82 84 87 88 90 90
56 55 53 67 76 78 80 78 76 61 50 60 67 65 68 69 69 73 72 76 73 69 73 72 79 77 76 78 77 80 75 75 74 73 63 72 74 75 80 84 88 89 91 90 92
54 53 60 74 71 79 78 75 61 54 62 57 60 65 64 62 64 66 64 65 64 60 62 69 70 76 79 73 78 75 71 61 59 61 61 76 72 76 87 91 92 92 91 92 93
53 51 58 74 79 77 75 67 50 57 58 63 61 62 58 61 62 62 61 62 63 63 63 61 60 72 77 74 71 71 72 64 53 60 65 75 67 75 88 92 96 96 96 95 94
52 75 77 77 76 76 69 57 57 57 59 58 60 56 58 59 59 59 59 59 60 63 57 59 59 71 71 78 77 72 66 77 70 73 69 74 76 85 89 89 91 92 95 95 95
65 73 73 78 76 74 65 52 57 60 60 59 52 57 53 57 55 57 58 60 58 61 64 60 52 68 69 70 73 72 79 65 68 56 55 67 70 72 78 83 88 90 92 95 97
69 68 73 78 77 71 61 55 56 61 60 55 54 54 55 54 55 56 55 59 60 59 62 61 57 61 64 64 66 68 67 69 72 69 60 60 69 85 83 85 86 90 94 97 96
68 65 73 77 67 65 58 52 48 57 60 57 57 56 54 55 53 53 52 57 61 61 55 61 58 52 58 71 71 68 67 70 62 60 67 68 71 89 88 90 91 92 95 98 99
64 65 74 76 58 55 55 54 55 54 55 54 53 55 57 53 47 53 55 60 60 59 56 59 54 47 53 62 68 63 67 70 70 72 64 61 67 88 88 86 91 91 94 96 97
64 61 64 64 61 54 50 49 49 56 55 55 55 57 54 52 55 49 52 57 59 59 54 55 55 50 49 53 57 52 59 63 65 61 64 68 71 79 83 84 87 89 92 95 95
62 55 55 52 53 54 54 51 48 46 53 55 51 50 49 43 46 46 51 54 57 57 56 56 48 52 54 56 56 55 55 57 57 62 60 69 70 78 82 85 87 91 90 88 89
60 55 59 49 50 47 47 44 43 43 43 43 46 48 48 43 47 44 50 52 50 56 54 55 46 51 48 54 56 53 58 58 59 60 62 65 68 84 86 84 82 85 82 84 87
62 61 58 47 49 46 44 42 41 43 45 47 45 42 41 42 50 52 57 57 55 50 47 47 48 47 43 54 54 48 56 59 61 63 64 61 70 80 80 79 79 78 80 81 82

GFSSW_sfc_temp_063.txt.gz
Temp
63 63 62 62 62 63 63 63 63 63 63 63 63 63 63 63 62 71 78 83 85 79 76 93 94 94 96 91 87 84 72 72 78 80 77 91 87 93 95 89 91 92 87 88 88
62 62 62 62 62 62 62 62 62 63 63 63 63 63 63 63 73 80 81 77 76 77 86 91 88 92 89 89 90 77 71 71 72 89 84 88 89 89 88 88 86 87 89 88 90
62 62 62 62 62 62 62 62 62 62 62 62 62 63 63 67 76 84 78 77 77 79 92 96 95 91 86 91 90 88 74 87 87 88 92 91 86 94 83 85 89 85 81 82 87
61 61 61 61 61 61 62 62 62 61 61 62 62 63 63 74 75 88 79 78 78 87 90 93 92 86 85 84 92 84 91 87 84 88 89 88 92 89 86 83 96 94 88 85 86
61 60 60 60 60 61 61 61 61 60 61 62 63 63 67 77 84 93 80 80 85 87 88 90 88 87 84 89 91 87 85 89 90 91 92 89 91 87 88 95 97 94 89 83 87
60 60 60 60 60 60 60 60 60 60 61 62 64 63 73 77 92 94 92 90 90 89 90 93 90 92 90 89 88 92 91 88 89 91 91 88 89 92 90 96 92 91 88 86 90
60 60 60 60 60 60 60 59 60 61 63 65 64 71 81 82 93 95 94 92 94 92 91 96 97 92 91 86 94 92 85 89 91 87 86 94 78 88 92 94 89 89 89 86 88
59 59 59 59 59 59 58 58 62 64 64 65 65 79 81 92 97 93 94 92 96 97 96 98 99 91 91 95 88 85 87 80 91 91 91 91 76 90 94 92 88 89 89 87 89
59 59 59 59 58 58 57 58 64 65 65 67 73 82 81 83 88 93 94 89 93 94 95 98 94 87 89 82 80 84 77 80 85 95 89 89 74 70 95 93 89 88 89 89 87
58 58 58 58 57 56 56 58 64 65 69 81 85 79 86 81 88 90 94 93 88 88 86 85 84 81 83 80 71 77 79 84 82 87 89 86 77 66 91 93 89 88 89 89 89
58 58 58 57 56 56 65 78 76 76 83 80 82 81 83 89 94 88 92 89 88 84 76 80 75 74 80 83 84 86 85 83 89 85 85 82 80 65 91 94 89 88 88 89 90
58 57 57 57 56 55 68 81 77 79 74 83 82 83 85 88 82 85 92 82 80 74 80 79 73 82 86 86 83 83 80 82 89 92 83 82 80 83 91 92 91 89 89 89 91
57 57 56 56 55 66 83 78 86 85 74 79 83 82 83 86 80 80 87 84 79 75 78 75 80 84 83 81 79 80 79 80 82 89 90 83 76 82 78 92 93 93 93 93 91
57 57 56 54 62 86 82 86 88 86 69 71 75 80 84 84 77 85 87 82 80 76 79 79 85 80 80 78 81 75 84 82 82 81 75 87 69 64 74 86 90 92 92 93 92
57 56 55 52 75 83 82 89 88 82 55 72 76 87 83 79 79 80 86 82 75 77 78 75 78 78 76 78 83 76 85 83 81 79 79 80 74 75 82 77 88 91 92 95 94
56 55 54 71 80 85 88 88 83 64 54 66 74 72 74 76 77 80 79 83 82 75 78 77 87 83 81 84 83 84 81 80 81 78 67 76 78 78 78 80 90 93 94 95 96
55 53 58 78 78 88 88 81 64 59 71 65 68 72 71 70 72 73 72 73 70 65 66 74 76 82 83 77 83 80 76 64 62 64 64 79 76 80 89 88 89 94 95 96 97
54 51 66 82 88 86 82 71 56 66 65 70 69 69 66 70 71 70 70 68 72 71 68 66 65 76 82 77 75 76 76 67 56 62 68 78 71 79 93 96 91 89 95 99 98
52 78 84 86 86 84 74 62 62 65 66 65 68 64 66 67 65 65 68 68 71 70 63 66 65 79 79 83 81 75 70 81 73 77 72 78 81 89 93 93 92 78 94 93 98
70 80 80 87 87 80 70 57 65 68 67 67 59 65 61 65 62 64 66 70 66 68 71 68 59 74 75 78 79 77 83 69 71 58 58 72 75 77 83 88 92 94 96 96 98
69 74 81 88 86 75 66 63 64 68 66 62 61 61 62 61 64 62 63 67 68 67 68 68 64 64 74 69 68 72 70 73 76 72 62 63 73 91 87 89 90 94 96 99 100
77 71 82 85 71 74 67 62 52 65 67 64 63 62 60 62 60 59 59 64 68 67 61 69 64 58 64 76 78 76 73 74 65 62 71 70 74 94 94 94 94 96 97 100 101
73 73 83 83 66 65 63 62 63 62 62 61 60 62 64 58 52 58 60 68 67 63 61 66 58 51 57 66 72 69 73 74 74 74 66 65 71 93 92 91 94 94 96 98 100
72 69 74 74 72 64 60 58 58 63 61 62 60 63 59 56 60 54 57 61 64 65 57 61 58 55 53 58 64 62 66 71 72 65 66 69 75 83 86 87 91 94 96 98 99
72 64 64 60 61 63 63 59 55 52 61 60 57 56 54 51 54 54 58 61 64 63 60 60 51 56 60 62 62 61 62 67 66 68 62 71 72 80 86 88 90 93 94 95 94
67 66 68 63 60 57 55 51 44 47 49 51 53 55 55 50 52 48 51 52 53 60 57 63 50 54 49 56 61 57 61 63 64 67 67 67 68 83 84 84 91 89 91 88 91
71 70 68 52 53 53 54 52 49 51 53 55 53 51 50 55 60 61 61 62 61 55 54 55 46 46 43 54 57 51 59 62 64 68 68 63 71 80 80 80 82 88 86 86 89

GFSSW_sfc_temp_066.txt.gz
Temp
63 63 62 62 62 63 63 63 63 63 63 63 63 63 63 63 63 69 75 84 85 80 78 92 90 92 93 90 91 89 71 68 72 63 67 73 86 91 89 89 90 88 85 87 89
62 62 62 62 62 62 62 62 63 63 63 63 63 63 63 63 69 75 84 80 79 79 86 88 85 90 86 88 89 81 70 73 81 80 73 81 86 90 87 85 85 85 88 89 89
62 62 62 62 62 62 62 62 62 62 62 62 63 63 63 65 71 84 79 80 79 80 88 94 94 90 84 89 88 86 76 71 72 81 80 83 87 94 86 81 82 78 83 85 87
61 61 61 61 61 61 62 62 62 62 62 62 63 63 63 71 72 86 80 79 79 87 87 87 91 85 83 82 91 80 84 87 80 90 85 72 80 78 78 68 87 87 86 86 85
61 60 60 60 60 61 61 61 60 61 61 62 63 63 65 73 81 90 80 80 86 85 85 85 87 87 81 87 89 86 87 89 84 91 80 83 73 68 76 79 88 89 86 85 86
60 60 60 60 60 61 61 60 60 61 62 62 63 64 70 73 96 97 95 88 90 87 86 89 90 92 87 87 88 92 91 90 90 89 85 81 74 75 78 81 88 85 83 85 87
59 59 59 59 60 60 60 59 60 63 64 65 65 70 77 83 96 98 96 93 92 90 87 92 96 91 90 86 93 92 86 90 91 89 87 89 76 78 83 90 89 84 84 83 86
59 59 59 59 59 59 58 58 60 64 65 65 66 74 78 96 98 95 98 95 95 95 94 97 98 93 90 93 89 85 86 77 89 91 90 88 74 78 84 87 87 85 83 83 85
59 59 59 59 58 58 57 58 61 65 66 67 70 74 80 85 90 96 97 91 93 94 95 99 96 88 87 80 78 82 73 77 82 94 90 85 71 72 71 78 86 87 83 83 84
58 58 58 58 57 57 56 57 67 66 70 79 81 77 87 85 90 93 96 95 90 90 87 87 86 80 80 77 66 73 76 80 80 89 90 85 69 71 70 75 87 87 85 83 85
58 58 58 57 57 56 63 82 75 72 78 80 83 83 86 92 94 91 94 90 90 85 75 82 75 70 76 80 82 82 81 81 86 93 88 83 70 67 74 74 74 85 86 84 85
58 57 57 57 56 56 65 80 80 83 72 87 86 86 89 91 83 87 94 83 81 74 79 77 69 79 84 84 81 81 78 80 88 93 88 77 63 66 69 74 70 87 88 87 87
57 57 57 56 55 67 82 82 90 89 73 81 86 86 85 88 83 84 88 85 80 75 76 72 79 83 82 81 79 80 77 79 81 89 90 86 62 64 71 71 69 86 91 91 89
57 57 56 54 61 86 83 89 91 89 65 73 78 82 85 86 79 89 90 84 81 75 78 77 84 83 79 78 81 74 85 83 81 79 73 88 67 58 69 64 63 66 90 90 91
57 57 55 53 71 80 85 92 90 84 52 74 78 89 86 80 81 81 89 83 74 78 78 75 78 78 77 79 83 77 86 83 81 77 77 79 75 74 71 64 63 66 86 92 93
57 56 54 73 72 86 91 91 85 62 53 68 77 75 75 79 79 82 81 85 84 76 78 78 87 84 81 85 84 86 81 80 80 77 66 74 74 76 72 68 64 64 78 92 93
55 54 55 74 79 90 90 81 62 57 75 67 70 74 75 73 74 76 75 73 69 64 66 74 76 83 85 78 83 81 74 62 60 62 62 77 73 77 87 79 73 73 78 94 94
53 52 67 79 89 89 83 70 54 69 69 74 72 72 68 74 72 73 70 69 76 72 67 64 64 76 82 78 74 76 74 63 53 58 64 77 68 77 91 90 83 79 75 78 95
53 78 78 85 90 86 74 61 61 66 70 68 70 66 67 72 69 69 69 69 74 74 62 63 65 82 83 83 80 73 70 79 69 73 67 73 79 86 91 92 90 82 77 73 82
65 79 82 90 90 82 69 60 65 70 69 70 60 68 63 69 66 67 67 73 71 72 73 66 56 73 78 82 81 77 81 68 69 55 55 67 71 76 81 87 92 86 76 76 75
68 74 84 90 88 75 64 64 68 72 69 65 63 62 65 64 66 64 65 71 72 70 71 67 62 63 72 70 69 72 68 71 72 70 60 58 68 87 87 87 90 87 82 72 73
76 71 86 89 70 75 65 66 55 69 71 67 66 64 62 63 62 62 62 66 71 70 62 68 61 55 63 74 78 76 70 72 63 60 67 68 69 91 93 94 94 95 85 84 80
71 76 87 87 64 67 67 66 67 65 66 64 63 66 66 61 55 61 63 71 70 65 61 64 58 51 55 65 71 68 72 73 72 72 63 62 68 89 91 92 94 94 96 92 81
70 68 76 77 74 67 63 62 62 67 65 65 63 65 62 59 63 58 60 66 67 66 61 63 57 52 48 56 63 60 67 69 68 63 64 67 70 79 85 87 88 91 95 96 95
75 67 70 60 63 65 64 62 57 55 62 64 60 59 58 53 57 57 62 63 67 65 63 61 51 55 57 60 61 61 62 65 63 66 62 69 71 78 80 79 82 78 88 94 94
68 66 70 63 64 63 57 55 54 55 55 56 54 57 57 52 55 52 58 56 56 62 57 61 50 55 51 58 58 55 60 63 64 65 67 69 70 82 82 75 77 78 77 85 89
76 77 72 58 63 60 55 57 54 55 58 58 56 54 54 57 61 62 63 63 62 57 55 55 50 45 42 54 54 48 57 61 63 66 67 62 72 79 77 75 76 77 75 73 86

GFSSW_sfc_temp_069.txt.gz
Temp
62 62 62 62 62 62 62 62 63 63 63 63 63 63 63 63 62 62 66 79 78 80 80 84 84 84 86 79 83 83 63 60 64 61 65 72 72 87 85 79 83 83 79 81 85
62 62 62 62 62 62 62 62 62 62 62 62 62 63 63 63 62 64 78 80 79 78 81 79 77 81 76 78 81 74 61 67 75 72 68 74 72 82 79 80 79 79 82 84 84
62 62 61 61 62 62 62 62 62 62 62 62 62 63 63 63 62 75 81 80 79 79 84 86 86 81 74 79 79 80 68 77 78 74 71 76 73 70 80 73 76 73 77 81 82
61 61 61 61 61 61 61 61 61 61 61 62 62 63 63 63 62 81 79 79 79 83 82 80 79 75 73 73 82 73 82 83 79 81 79 71 71 68 70 73 82 82 82 82 81
60 60 60 60 60 61 61 61 60 60 62 62 62 63 58 60 69 85 80 80 80 80 78 77 75 76 72 77 80 79 83 87 88 82 79 74 72 67 68 78 84 82 82 80 82
60 60 60 60 60 60 61 60 59 60 62 63 63 64 57 60 89 85 83 80 83 80 77 79 79 83 79 79 77 84 86 87 87 81 77 72 69 73 76 79 81 81 79 81 82
59 59 59 59 60 60 60 59 59 60 63 66 65 66 66 68 91 89 87 80 81 82 77 83 85 80 81 77 85 83 77 82 84 79 79 76 65 66 70 76 76 79 80 81 82
59 59 59 59 59 59 58 58 59 61 64 65 66 66 62 87 86 90 89 87 87 85 84 86 88 82 79 83 82 75 72 64 80 83 84 78 62 68 70 73 76 79 81 81 82
59 59 59 59 58 58 57 57 60 62 65 66 61 61 66 84 83 87 87 86 84 84 84 91 86 77 78 69 63 67 59 66 73 85 84 77 61 66 69 69 71 77 79 81 82
58 58 58 58 57 57 56 58 65 63 65 73 74 62 74 79 84 88 88 90 84 81 80 78 74 69 66 59 52 58 61 66 69 79 84 75 63 67 70 69 69 75 78 79 80
58 58 57 57 57 56 55 65 62 59 65 66 67 73 83 85 88 84 88 85 84 76 65 73 61 58 64 68 71 71 69 68 75 82 77 75 64 66 69 72 70 69 76 77 79
58 57 57 57 56 56 53 61 70 71 62 78 80 81 84 83 79 84 88 75 74 66 70 65 60 70 76 75 72 71 68 67 75 82 73 67 63 67 68 70 70 64 75 78 80
58 57 57 56 55 58 67 72 81 77 60 73 80 79 78 76 77 77 79 78 72 67 68 62 69 78 75 72 70 69 64 67 68 77 74 65 59 62 71 73 71 69 70 79 80
57 57 57 55 56 70 72 77 81 79 51 66 70 76 79 77 71 87 85 77 73 67 70 67 75 75 72 70 71 58 74 76 75 67 56 71 55 58 63 66 69 69 68 71 80
57 57 55 53 56 64 76 81 78 71 41 71 72 82 76 70 73 75 85 76 68 70 67 65 71 70 70 72 75 68 76 73 72 64 57 67 56 56 66 61 66 70 73 72 75
57 56 55 64 59 68 79 80 72 50 46 66 74 70 67 70 74 78 77 76 77 69 70 69 78 73 72 79 78 79 72 69 65 59 50 59 58 51 60 65 65 73 75 73 77
55 54 52 65 66 79 81 70 48 44 70 64 64 68 67 67 70 68 69 63 57 48 50 65 68 74 78 68 74 71 55 46 44 47 48 60 57 61 67 72 69 71 72 77 76
54 52 60 71 76 78 72 57 45 62 62 70 69 66 61 68 65 69 63 59 66 63 53 50 52 66 74 68 62 62 58 48 40 43 49 61 52 62 74 76 75 74 75 76 70
53 66 67 75 77 77 61 49 50 58 64 63 65 57 59 66 62 64 58 59 64 62 49 48 52 70 74 75 71 62 55 62 53 59 51 56 63 73 78 75 73 73 75 71 72
54 63 70 82 81 71 56 55 58 65 66 65 55 61 55 61 57 58 58 65 64 66 62 54 44 61 69 72 72 66 66 52 52 42 40 52 56 58 68 72 73 74 72 69 70
59 61 75 82 78 63 55 57 64 69 68 61 57 56 57 56 58 56 58 62 67 64 62 53 48 51 61 57 58 60 56 54 53 50 44 45 53 69 72 73 73 76 71 70 70
64 59 79 80 59 62 56 61 57 65 68 64 63 61 57 58 54 55 57 59 67 63 54 56 47 41 50 63 67 64 57 54 45 47 50 49 54 78 77 79 74 78 76 74 75
57 66 81 79 55 57 62 64 63 62 60 60 60 61 60 54 48 56 58 67 67 62 50 54 44 37 43 51 58 55 60 58 56 52 50 44 53 76 74 73 75 72 71 75 77
59 58 66 69 66 59 56 58 57 64 60 62 60 60 56 52 54 50 56 65 66 63 63 58 44 39 35 44 52 50 55 58 53 44 47 51 56 68 67 69 71 73 74 74 77
62 60 63 52 56 58 57 56 53 51 59 58 56 55 51 44 49 49 55 56 61 61 57 50 39 44 48 53 55 53 54 55 51 53 44 53 56 64 66 68 70 72 73 71 72
59 58 62 58 60 57 54 52 51 51 53 51 50 53 53 44 48 45 49 48 48 53 50 50 39 44 43 51 53 51 55 56 56 57 57 57 57 64 71 70 70 70 72 67 69
67 68 61 56 57 52 51 53 53 53 56 58 54 50 50 51 54 54 54 53 53 48 46 46 41 37 34 44 44 40 50 54 55 59 58 52 59 66 66 68 66 68 67 67 66

GFSSW_sfc_temp_072.txt.gz
Temp
62 62 62 62 62 62 62 62 62 62 63 63 63 62 62 62 62 60 60 73 74 79 81 79 77 79 79 74 79 82 61 60 63 63 67 73 69 77 80 76 79 80 77 79 81
62 62 61 61 62 62 62 62 62 62 62 62 62 62 62 62 59 59 73 78 79 79 78 75 73 77 69 72 75 69 58 66 75 73 67 71 70 72 73 74 76 74 81 82 82
62 61 61 61 61 61 62 62 62 61 61 61 62 62 62 62 57 68 78 78 79 80 80 80 78 76 68 71 73 72 64 73 76 76 75 72 69 71 71 70 73 71 76 80 80
61 61 61 61 61 61 61 61 61 61 61 62 62 62 62 59 60 80 79 78 79 79 79 77 74 67 66 66 75 66 76 78 80 78 75 70 70 66 69 70 77 78 80 80 79
61 60 60 60 60 61 61 61 60 60 61 62 62 62 56 54 62 82 80 79 78 77 74 73 70 68 64 70 74 71 76 81 84 81 75 73 68 67 68 73 78 80 81 79 79
60 60 60 60 60 60 60 60 59 60 61 64 63 63 53 55 81 81 79 76 77 75 72 74 73 75 71 73 71 78 79 80 85 75 74 72 69 72 73 77 76 78 78 79 79
59 59 59 59 60 60 59 59 59 60 61 64 65 64 59 64 84 80 79 73 74 76 71 77 79 72 73 70 80 78 71 76 78 75 73 73 65 67 70 78 74 77 78 78 79
59 59 59 59 59 59 58 58 58 60 62 65 66 60 55 80 77 79 78 76 79 77 77 79 81 74 72 77 76 69 65 60 74 75 74 72 59 66 73 74 73 76 78 79 77
59 59 59 58 58 58 57 57 60 63 63 66 55 55 59 81 79 82 83 79 77 76 77 88 76 69 70 64 59 61 54 61 68 77 72 69 61 66 71 71 72 75 77 78 77
58 58 58 58 57 57 56 57 61 63 63 68 69 56 68 75 79 83 82 83 77 76 74 72 66 60 59 56 47 53 55 58 62 74 73 65 62 66 69 70 72 75 76 77 78
58 58 58 57 57 56 53 54 59 57 58 58 61 66 76 78 83 78 82 80 77 71 59 66 57 52 59 62 65 64 60 61 69 75 72 70 62 64 66 69 69 70 72 77 78
58 57 57 57 56 55 51 55 63 67 57 69 72 72 78 79 73 78 81 71 69 61 63 59 53 64 70 70 67 64 60 60 68 73 67 61 59 63 65 67 69 71 72 76 78
57 57 57 56 55 55 57 64 72 64 53 65 71 72 73 73 71 73 77 73 67 63 63 56 63 72 70 67 65 60 57 61 62 66 66 64 58 60 66 69 69 73 73 76 78
57 57 56 54 57 56 62 68 70 69 46 57 63 71 74 74 66 82 81 73 68 64 65 60 70 70 67 65 64 50 67 70 68 61 53 64 51 58 62 62 66 68 69 71 77
57 57 55 53 48 56 69 70 68 65 39 67 64 77 70 66 69 72 79 73 63 64 61 60 65 65 64 66 68 63 71 67 65 57 53 58 52 53 62 59 63 66 69 72 75
57 56 55 53 48 58 64 66 64 46 43 61 69 65 63 63 67 73 72 73 71 64 62 64 71 68 67 73 72 75 66 61 56 53 45 52 54 50 54 63 64 68 70 73 75
55 54 52 58 59 63 66 60 44 39 62 59 58 62 59 60 63 65 64 57 53 47 47 60 63 67 72 62 67 65 53 43 43 43 43 51 52 57 64 68 69 68 70 74 75
53 52 52 61 58 62 60 52 39 55 52 61 61 60 57 61 59 64 59 53 59 54 46 46 48 60 68 59 57 57 53 45 38 39 43 55 47 60 70 74 75 74 74 76 74
52 53 56 63 65 61 54 43 42 50 59 57 58 53 52 59 60 60 56 53 58 55 46 43 48 64 67 66 62 58 51 56 47 41 44 49 57 67 69 70 72 71 72 72 72
46 50 56 69 66 60 50 45 50 61 62 58 47 53 46 51 52 51 53 59 58 61 54 48 43 53 64 64 63 56 60 50 45 37 36 46 48 53 63 66 69 69 70 71 71
51 53 65 69 66 55 43 46 57 63 63 56 51 49 49 48 50 48 50 57 61 59 57 47 43 47 56 49 48 51 49 48 46 45 39 39 47 59 61 63 66 68 73 73 71
47 51 72 68 52 46 45 50 58 57 60 57 57 53 50 51 49 48 50 54 62 57 49 48 41 38 43 55 60 55 48 44 39 40 42 43 47 66 65 67 70 68 73 73 73
45 48 66 64 43 43 49 56 57 55 54 55 53 54 53 47 44 51 54 62 63 56 47 49 37 32 40 44 51 49 52 45 43 39 40 41 46 67 69 68 69 67 68 70 70
48 47 53 53 48 46 44 48 49 59 55 55 52 52 48 44 45 45 48 57 61 59 62 54 37 36 31 36 44 44 50 52 42 34 37 40 49 56 61 65 67 67 67 70 72
50 48 49 43 46 46 47 48 47 45 52 52 49 50 44 37 40 41 45 48 55 58 52 45 35 38 39 47 48 47 48 51 45 44 38 46 47 54 58 62 64 66 67 67 68
50 49 50 44 49 47 44 42 45 46 46 45 44 49 45 37 37 36 40 39 40 47 46 44 36 38 38 47 46 44 49 50 51 51 50 50 47 56 59 63 62 63 64 64 65
53 53 51 47 44 42 41 45 48 48 52 53 50 45 44 45 47 46 45 44 44 38 40 39 37 33 26 41 42 36 44 48 49 51 47 41 46 53 53 57 56 59 62 62 64

GFSSW_sfc_temp_075.txt.gz
Temp
62 62 62 61 62 62 62 62 62 62 62 62 62 62 62 62 61 59 58 71 72 77 80 75 74 75 77 71 76 78 62 59 63 64 66 70 68 75 77 74 78 78 74 74 77
62 61 61 61 61 62 62 62 62 62 62 62 61 62 62 62 57 57 70 76 77 78 75 71 68 73 66 69 72 66 59 65 73 72 67 70 67 67 67 72 73 72 76 78 75
61 61 61 61 61 61 61 61 61 61 61 61 62 61 61 60 55 67 76 78 78 78 78 77 75 73 64 68 69 68 62 72 74 75 70 66 66 70 68 67 72 69 72 74 73
61 61 61 61 61 61 61 61 61 60 60 61 62 61 62 56 56 76 77 78 79 77 76 74 71 66 63 64 71 65 74 73 74 77 75 70 68 66 68 69 74 76 76 74 73
60 60 60 60 60 60 61 60 60 60 60 61 62 62 55 52 62 78 78 79 76 74 72 70 67 65 62 66 70 69 72 76 79 79 73 70 69 68 67 71 74 79 78 75 74
60 60 60 60 60 60 60 59 59 59 60 62 63 62 52 53 78 78 77 74 73 72 70 71 70 71 66 68 67 75 74 75 77 72 71 69 69 71 72 72 72 77 76 77 76
59 59 59 59 59 60 59 59 59 59 60 62 64 62 56 63 79 77 75 70 72 74 68 71 74 70 69 66 74 74 68 72 71 71 70 72 64 67 72 75 72 75 77 77 78
59 59 59 59 59 59 58 57 58 59 61 62 65 57 54 76 75 76 73 72 74 70 72 74 76 69 67 73 72 65 62 58 68 71 70 70 58 66 71 70 71 74 77 76 77
58 58 58 58 58 57 57 57 59 61 63 64 55 52 58 78 73 75 75 73 71 71 73 85 74 66 66 61 55 58 52 56 63 71 69 66 59 66 71 69 70 73 75 76 76
58 58 58 58 57 56 56 56 61 62 63 66 66 53 65 71 75 77 74 78 73 72 71 69 63 58 55 54 46 51 52 54 58 68 68 63 61 65 68 70 70 73 75 76 75
58 57 57 57 56 55 52 52 56 55 56 57 59 62 70 76 79 75 79 76 73 68 56 62 56 51 57 60 62 60 57 57 63 72 65 62 61 64 66 66 68 70 72 75 76
57 57 57 57 55 55 51 55 58 61 54 65 67 67 72 71 69 74 80 68 67 58 60 56 51 61 66 65 63 60 57 55 64 69 63 59 59 63 67 66 68 70 71 75 76
57 57 56 55 55 52 55 60 67 60 51 62 66 67 68 70 68 70 74 70 65 59 58 53 61 69 66 62 60 54 54 55 59 64 63 61 58 61 66 67 68 70 73 75 77
57 57 56 54 55 54 60 63 64 64 45 56 59 69 71 71 63 77 78 72 65 61 61 57 66 67 63 61 61 48 62 64 63 57 51 60 48 58 61 62 66 67 70 73 78
57 56 55 53 48 56 66 61 60 63 37 63 61 73 67 63 65 70 76 71 62 62 60 58 60 61 60 63 64 59 66 63 62 54 50 54 50 52 60 58 62 66 71 73 76
56 55 54 51 47 55 59 60 62 46 41 59 66 64 61 61 65 69 70 72 68 63 59 62 68 65 64 69 68 70 61 57 52 49 43 50 51 50 52 60 63 66 70 73 73
55 53 52 56 59 58 60 59 44 37 57 55 54 59 58 56 60 61 61 56 51 46 46 57 59 62 66 57 63 59 51 42 41 41 42 46 50 55 61 65 67 67 69 72 74
53 51 52 58 53 59 58 52 37 51 48 57 57 57 55 57 56 59 55 50 57 51 44 45 46 57 64 55 52 53 52 43 37 37 43 47 46 57 65 69 72 72 72 73 74
52 52 54 59 60 57 54 40 40 46 55 54 52 49 49 55 56 55 49 48 54 50 44 42 45 60 63 62 57 52 46 49 42 38 43 45 53 61 66 67 67 67 70 70 72
48 51 56 65 63 58 51 43 48 56 57 55 45 49 43 48 51 49 48 54 55 57 49 44 41 50 60 61 60 53 55 46 43 36 35 43 46 48 57 60 64 65 66 70 72
51 55 64 62 62 54 41 43 54 58 59 53 47 46 45 45 46 44 47 55 59 57 53 41 43 46 51 48 47 47 44 41 41 40 37 37 41 60 57 60 61 63 65 68 72
49 49 68 62 50 41 40 48 55 53 56 54 53 50 47 46 45 45 45 48 59 54 48 46 38 36 41 51 57 54 44 39 35 35 37 39 41 59 61 63 64 64 65 68 71
47 46 63 61 43 39 45 52 54 50 49 51 48 50 48 43 41 46 49 57 58 53 45 48 38 35 38 44 48 45 47 41 38 35 34 33 41 62 60 61 64 63 64 66 68
49 46 51 50 42 42 41 44 46 56 52 51 48 48 45 41 42 41 45 54 57 55 59 51 35 36 33 34 41 40 46 46 39 34 34 37 42 50 54 54 59 61 64 66 66
48 44 45 40 44 43 43 44 45 43 50 49 46 46 40 34 36 37 42 45 53 53 49 43 34 35 36 44 44 43 44 46 41 40 37 43 43 45 50 54 56 60 63 63 64
48 46 46 41 42 43 41 39 43 44 44 43 42 46 43 36 36 33 37 36 37 45 42 41 33 34 35 43 43 40 45 47 47 47 45 45 43 49 54 56 55 56 60 59 61
48 48 49 43 41 39 39 42 45 46 49 50 48 43 40 43 45 44 43 42 38 36 38 37 34 31 27 38 40 34 41 45 44 45 46 40 42 50 50 53 53 54 56 56 58

GFSSW_sfc_temp_078.txt.gz
Temp
62 62 62 61 62 62 62 62 62 62 62 62 62 61 62 62 61 57 55 69 71 77 78 74 73 73 74 70 75 77 58 60 64 64 63 68 66 68 74 72 77 77 72 72 73
62 62 61 61 62 62 62 62 62 62 61 61 61 61 61 62 55 54 68 75 77 78 72 70 66 70 65 67 70 67 59 62 71 70 67 68 66 66 67 68 69 68 72 73 73
61 61 61 61 61 61 61 61 61 61 61 61 62 62 61 59 53 66 75 76 78 78 75 74 72 70 63 65 67 68 61 71 73 73 73 69 65 69 66 65 69 65 68 70 70
61 61 61 61 61 61 61 61 61 60 60 61 62 61 61 54 54 72 76 77 78 76 75 71 68 63 61 61 68 64 73 74 73 74 70 67 68 66 68 68 73 72 72 71 69
60 60 60 60 60 60 60 60 60 60 60 60 62 62 54 50 60 75 78 78 74 72 71 68 65 63 60 64 67 66 70 73 75 75 70 71 67 67 67 71 73 75 73 71 70
59 59 60 60 60 60 60 60 59 59 60 61 63 61 50 51 74 76 74 72 71 70 68 69 67 69 65 64 65 71 71 72 73 69 69 68 68 71 68 72 71 72 71 72 71
59 59 59 59 59 60 59 59 59 59 60 61 63 61 54 63 75 75 71 66 69 71 66 68 72 67 65 63 71 70 64 69 68 69 68 71 64 67 70 72 70 70 72 72 74
59 59 59 59 59 59 58 58 58 59 60 61 64 56 54 72 72 73 71 69 71 67 70 70 73 67 64 70 69 62 60 56 65 69 69 67 58 68 71 71 69 72 73 73 73
58 58 58 58 58 57 57 56 59 61 62 63 53 51 57 74 69 72 71 69 68 67 70 82 71 63 64 59 55 57 51 55 60 69 67 63 58 67 71 71 69 72 73 73 73
58 58 58 58 57 56 56 56 63 62 63 65 64 51 64 68 71 71 71 74 69 67 67 65 59 55 54 52 46 51 52 53 56 64 65 60 59 65 68 69 68 71 73 73 73
58 57 57 57 57 55 53 52 54 53 53 55 56 61 67 73 75 70 73 73 70 64 53 58 53 49 54 58 60 59 57 55 60 67 61 58 58 63 66 66 67 69 71 72 73
57 57 57 57 56 55 50 56 58 58 52 61 63 63 68 68 66 70 76 66 64 56 57 54 49 59 63 62 60 58 55 54 64 65 61 56 56 62 63 64 67 68 70 73 74
57 57 57 56 54 51 52 58 62 55 49 59 62 63 66 67 66 68 73 67 62 57 55 51 59 66 64 60 58 52 52 54 60 62 60 58 57 61 64 66 67 69 71 73 75
57 57 56 54 54 52 58 58 58 59 44 53 56 66 67 66 61 76 75 71 62 58 58 56 63 65 60 59 59 43 61 62 60 54 49 57 46 53 61 63 66 66 68 70 74
57 56 55 53 46 57 62 56 56 61 35 60 60 71 63 61 65 67 73 68 61 60 58 56 60 59 57 60 62 57 63 61 59 52 48 52 49 51 57 55 60 65 69 72 75
56 55 54 49 46 55 57 56 60 45 38 55 62 59 59 60 62 66 68 69 66 60 58 59 64 60 62 65 65 66 59 53 49 47 42 47 50 51 52 57 60 66 69 73 74
54 53 51 55 58 55 57 58 43 36 54 52 51 56 54 55 59 60 56 52 48 46 44 55 56 60 62 56 60 58 49 39 39 40 41 45 49 49 59 63 63 65 68 71 76
53 51 51 57 54 56 57 51 37 48 46 53 53 53 50 53 55 54 50 47 53 48 43 44 44 54 61 53 50 51 49 41 35 35 42 47 45 51 62 65 67 67 68 71 74
51 51 55 59 59 55 53 39 37 44 52 51 50 48 50 54 53 53 46 46 50 47 41 42 43 57 60 58 54 50 45 47 41 36 42 44 49 57 63 63 65 65 66 67 73
49 52 58 61 58 56 48 41 45 55 56 52 43 45 42 49 50 47 48 53 51 54 47 42 41 48 57 58 57 52 51 45 42 37 35 41 42 44 52 55 61 62 63 64 67
51 55 63 59 59 53 41 42 50 55 57 51 46 45 42 41 47 47 44 55 56 55 52 40 42 44 49 45 42 46 42 41 40 38 37 34 39 53 51 54 57 60 62 64 66
50 49 63 60 49 38 39 43 50 50 53 52 51 46 44 43 40 42 43 46 57 56 49 48 40 34 37 49 52 46 41 37 39 37 34 37 40 55 55 56 58 60 63 64 67
49 46 58 57 41 37 42 49 50 48 47 48 47 48 46 39 39 43 46 55 55 53 48 49 39 32 35 42 46 43 44 37 36 35 33 37 39 55 55 55 57 58 62 63 64
48 44 49 47 39 41 38 41 44 53 48 49 46 46 44 40 40 39 44 52 53 53 57 52 39 37 32 35 39 39 44 44 37 35 34 37 41 47 49 52 54 56 61 64 64
47 42 42 38 42 40 39 41 43 41 48 47 44 43 39 34 36 37 41 45 51 51 47 42 34 36 37 42 42 41 42 45 39 38 37 40 42 45 48 51 53 56 58 59 62
47 45 42 38 40 40 40 37 42 42 43 42 41 43 41 35 35 34 37 37 36 45 40 39 32 33 33 41 41 40 44 45 45 45 44 44 41 48 52 54 53 53 55 55 58
46 46 48 41 39 37 37 40 43 44 47 48 45 41 40 41 44 41 41 39 36 36 37 35 33 30 26 35 37 33 39 42 43 44 43 38 42 49 48 51 50 51 53 54 56

GFSSW_sfc_temp_081.txt.gz
Temp
62 62 62 62 62 62 62 62 62 62 62 62 62 61 61 61 61 61 64 77 76 77 80 79 79 79 80 76 76 80 65 65 67 66 63 67 66 68 72 74 77 78 78 78 79
62 62 62 62 62 62 62 62 62 62 62 61 61 62 62 61 60 61 74 75 77 78 80 77 75 77 75 75 74 72 61 68 76 72 68 67 68 67 66 71 69 70 77 76 78
61 61 60 61 61 62 62 62 61 61 61 61 62 62 61 62 61 75 76 76 78 80 83 82 80 78 72 75 74 72 68 74 76 75 76 68 67 70 66 68 71 67 69 73 77
60 60 60 60 61 61 61 61 61 61 60 60 61 62 61 61 67 78 76 77 78 82 83 79 78 74 71 69 75 68 75 77 77 77 75 71 71 70 69 68 75 75 74 76 77
60 60 60 60 60 60 61 60 60 60 60 60 61 62 61 64 71 79 77 79 80 82 80 77 75 73 71 72 73 71 75 77 80 79 77 74 72 69 68 71 75 76 76 75 77
59 59 60 60 60 60 60 60 59 59 60 60 62 61 62 64 80 81 80 78 80 81 78 80 77 78 75 73 73 76 77 79 79 79 76 73 71 73 67 69 71 75 76 77 78
59 59 59 59 59 60 59 58 58 59 60 61 63 63 62 72 80 81 80 79 80 80 77 79 82 78 76 73 78 77 73 75 75 74 73 76 65 67 72 69 70 73 76 77 79
59 59 59 59 59 59 58 57 58 59 60 61 65 63 65 78 80 78 80 77 80 82 81 81 83 79 76 78 76 73 74 70 73 75 73 73 64 69 73 70 70 73 76 76 78
58 59 58 58 58 58 57 57 62 62 62 64 63 62 67 76 74 79 82 77 78 79 81 84 81 75 76 71 69 71 68 69 68 75 73 72 68 72 73 71 71 73 75 77 78
58 58 58 58 57 57 56 56 62 64 65 67 67 62 70 73 77 78 79 80 75 76 75 74 74 70 71 69 61 65 67 68 68 72 74 70 70 71 73 70 72 73 75 77 78
58 58 58 58 57 55 56 63 66 63 62 67 68 67 72 79 80 76 81 78 77 74 66 70 66 62 67 70 70 70 69 68 71 75 73 71 72 73 73 70 70 71 74 77 79
58 58 58 57 56 55 57 68 67 68 62 68 67 68 73 77 73 73 81 73 71 65 69 66 62 69 72 70 69 69 67 67 71 73 73 69 66 73 74 73 70 72 74 78 81
58 58 57 56 55 56 63 69 70 68 63 67 69 70 75 76 75 72 78 75 70 65 66 64 68 71 70 68 67 67 67 67 68 70 71 69 65 66 69 74 74 76 77 79 80
58 57 56 54 57 62 67 70 68 69 60 62 67 74 75 76 72 81 83 78 71 66 67 67 72 69 68 67 70 65 71 71 68 69 66 69 64 63 65 67 71 74 75 79 81
57 56 55 53 61 68 70 68 69 71 46 66 69 81 76 74 76 75 82 78 69 67 68 65 67 67 66 69 72 67 71 71 69 68 67 66 68 64 67 64 70 74 76 74 80
56 55 54 55 57 68 68 68 71 57 44 60 69 69 71 72 72 75 75 78 75 70 69 69 74 72 72 74 74 73 69 67 67 68 61 67 67 61 64 65 69 73 77 79 77
55 53 53 61 71 67 67 71 56 47 61 57 59 64 66 63 66 67 64 63 63 59 60 66 65 69 70 69 72 72 68 57 56 57 59 62 65 59 66 69 70 71 75 79 82
52 51 56 64 68 65 70 64 46 52 54 62 60 63 60 62 62 62 60 59 63 62 62 59 55 64 68 65 67 68 69 61 50 53 60 62 58 59 69 72 72 74 74 77 81
52 65 69 71 67 67 69 51 47 51 56 57 60 58 56 61 63 61 57 57 60 61 59 58 55 65 66 66 65 63 62 67 60 57 62 62 63 67 70 68 69 69 71 72 74
64 69 71 69 69 70 62 48 54 57 57 58 52 55 53 54 58 58 55 58 57 61 62 58 54 60 63 66 67 65 65 61 63 51 52 53 55 58 59 60 64 63 64 68 75
66 69 74 71 72 65 53 52 56 59 59 56 53 52 52 52 55 51 49 57 58 60 62 60 60 56 61 56 53 62 61 58 63 57 57 52 54 62 59 60 58 60 64 66 73
67 63 72 73 62 55 53 53 51 56 58 58 57 53 51 51 51 51 49 52 58 60 57 58 58 51 52 59 59 58 55 56 61 52 54 60 53 63 62 62 60 61 64 65 68
62 62 72 71 55 53 55 54 56 55 53 54 52 54 53 50 49 52 53 58 58 57 55 60 53 48 50 57 59 55 56 55 55 58 53 57 53 63 64 63 62 62 63 65 65
62 58 63 60 54 55 52 50 51 57 54 54 52 55 53 50 53 49 52 57 58 59 57 60 52 52 53 50 54 51 53 55 56 57 53 55 54 58 59 60 62 63 64 66 66
59 53 53 51 53 53 53 51 49 48 55 55 51 50 49 48 48 47 51 55 59 56 56 58 48 50 51 52 52 51 52 54 53 53 54 54 56 55 57 58 60 64 64 64 65
60 59 55 52 51 54 49 49 49 50 52 50 48 49 51 47 47 47 50 51 49 56 53 54 46 49 45 49 50 49 52 52 53 54 54 55 54 58 60 61 60 60 62 62 63
56 57 61 48 52 53 51 50 50 52 54 54 52 51 49 50 53 54 55 54 53 51 50 50 49 46 42 46 48 46 51 52 53 55 55 53 55 57 56 57 57 59 59 59 60

GFSSW_sfc_temp_084.txt.gz
Temp
62 62 62 62 62 62 63 63 63 63 63 62 62 62 62 61 61 71 75 83 83 77 79 89 90 89 89 86 82 84 72 67 72 72 70 74 68 69 73 78 79 83 86 87 89
62 62 61 61 62 62 62 62 62 62 62 62 62 62 62 61 72 75 82 78 78 78 88 87 85 87 85 85 82 77 75 73 82 82 75 73 70 67 71 74 75 80 87 88 89
61 61 61 61 61 62 62 62 62 62 62 61 62 62 62 67 73 84 80 77 78 80 93 93 91 88 83 86 76 79 71 81 83 84 82 76 71 73 69 74 77 76 79 85 86
60 60 61 61 61 61 61 61 61 61 61 61 62 63 62 73 73 85 77 77 78 90 91 89 87 83 82 79 84 76 82 84 85 84 82 78 76 72 74 74 80 79 83 86 85
60 60 60 60 60 60 61 61 60 60 61 61 62 63 67 74 81 86 77 79 86 90 87 86 84 85 81 83 78 80 82 84 85 86 84 81 77 75 74 77 80 79 85 85 87
60 60 60 60 60 60 60 60 59 59 60 61 62 63 72 75 88 87 88 88 88 89 89 90 87 88 85 83 81 84 84 83 86 86 83 80 78 77 72 77 76 81 84 87 88
59 59 60 59 60 60 60 59 58 58 60 61 62 69 74 78 89 91 90 90 92 92 87 92 91 87 87 81 87 84 80 84 84 84 80 84 74 74 72 74 72 82 85 86 88
59 60 60 60 59 59 58 58 58 59 60 61 64 73 77 85 92 89 90 88 91 94 93 91 92 88 86 87 83 81 83 78 82 84 81 82 68 76 73 70 73 80 84 85 86
59 59 59 59 59 58 57 57 62 62 62 64 71 72 76 78 82 89 91 85 89 90 90 90 89 85 84 80 78 80 73 75 76 83 81 81 72 74 74 73 74 80 84 85 86
59 58 58 58 58 57 56 57 62 65 69 75 76 70 77 78 86 87 91 90 84 85 82 82 84 78 81 80 70 74 78 79 76 80 84 81 77 75 75 78 76 80 83 85 86
58 58 58 58 57 55 61 74 71 70 73 77 78 75 82 86 89 85 88 85 84 81 75 79 75 72 78 82 81 82 80 78 80 83 82 80 79 77 76 75 76 77 81 85 87
58 58 58 57 56 55 70 78 75 76 72 79 78 78 83 88 77 82 90 80 77 72 79 74 71 81 83 80 78 79 78 76 80 82 83 80 79 80 74 75 78 78 78 84 88
58 58 57 56 55 63 79 78 82 80 73 74 79 80 82 85 79 79 85 82 77 74 74 73 77 81 78 76 75 78 78 76 77 79 82 81 74 77 79 74 77 76 83 83 85
58 57 56 54 59 81 78 81 84 82 68 68 75 80 83 86 78 87 89 84 78 73 76 76 80 76 75 75 78 74 80 78 77 77 72 82 64 72 74 71 74 76 76 85 85
57 56 55 51 75 79 79 85 86 80 53 71 76 88 87 80 81 81 91 84 75 75 75 73 75 74 73 76 80 76 81 79 78 77 76 76 75 71 70 68 73 77 76 80 85
56 55 55 66 76 82 84 85 81 64 48 66 75 75 76 80 80 82 81 86 85 77 78 76 84 80 79 81 81 81 77 77 78 79 67 77 77 69 73 71 76 80 83 82 87
55 53 58 74 81 84 84 81 64 57 68 63 67 75 76 74 75 77 75 74 71 65 66 72 74 77 79 76 80 78 76 65 63 64 67 79 75 68 73 75 76 77 81 87 87
52 52 62 77 82 81 82 72 54 58 62 69 67 73 69 73 72 73 72 69 73 72 71 66 60 72 75 76 73 75 77 69 57 62 68 74 67 66 76 78 80 81 82 84 90
51 80 87 84 82 82 77 64 57 57 62 63 68 66 66 69 71 70 69 67 68 71 67 67 62 72 72 76 75 74 71 82 73 77 71 72 68 74 77 75 75 72 73 79 83
81 84 82 87 84 82 75 54 61 63 64 66 62 65 62 66 67 67 66 67 66 71 74 70 61 69 70 75 76 76 81 69 72 60 60 66 64 66 68 67 68 65 65 70 84
80 78 83 88 84 80 66 61 63 65 65 63 61 62 65 60 65 60 60 65 66 68 73 74 70 65 70 67 68 71 72 73 77 72 65 61 65 71 67 64 63 63 64 65 68
82 74 85 85 76 74 65 63 55 65 68 65 65 64 63 64 62 59 57 60 66 69 66 70 72 64 65 68 69 70 70 72 68 64 71 72 60 72 71 68 69 66 64 65 67
78 76 86 85 67 64 65 63 65 64 63 62 61 64 65 62 58 62 62 64 65 66 64 69 68 58 60 66 68 67 68 70 72 74 67 66 58 73 73 70 70 67 68 65 65
78 70 75 76 73 67 63 61 59 65 63 64 62 65 63 62 66 60 61 64 67 65 61 67 68 62 62 62 68 62 63 66 70 68 69 69 60 66 69 69 71 68 71 68 66
75 65 65 64 64 66 65 62 58 57 64 65 60 60 60 58 60 59 63 65 67 64 66 68 58 63 62 63 64 62 62 63 65 66 65 66 64 66 67 68 69 72 71 71 71
73 72 71 66 62 65 58 60 58 59 61 58 57 59 61 57 58 56 62 64 60 66 65 66 57 61 57 59 60 59 61 61 62 63 66 69 62 69 69 70 68 68 69 68 69
75 74 73 55 64 66 61 59 58 60 61 62 59 60 57 57 62 64 66 64 64 62 59 61 60 56 55 57 57 55 62 63 63 64 67 63 65 68 66 65 66 67 68 67 68

GFSSW_sfc_temp_087.txt.gz
Temp
63 62 62 62 62 63 63 63 63 63 63 63 63 63 63 63 62 72 79 87 88 78 78 95 96 95 96 92 91 89 71 69 73 73 73 78 70 72 77 81 85 89 91 92 95
62 62 62 62 62 62 62 62 63 63 63 62 62 63 63 63 73 82 84 81 80 79 87 91 89 93 90 91 89 82 73 74 82 84 78 78 71 70 74 81 82 87 92 94 95
61 61 61 62 62 62 62 62 62 62 62 62 62 62 63 66 76 88 79 79 79 81 96 97 97 93 89 91 87 83 74 82 86 88 86 79 73 76 73 73 82 83 87 90 92
61 61 61 61 61 61 61 62 62 62 62 62 62 62 64 76 75 89 78 78 79 90 96 95 94 88 88 86 84 77 84 86 87 89 86 80 80 74 76 75 86 87 90 91 91
60 61 61 61 61 61 61 61 61 60 61 62 62 63 68 77 83 87 78 80 88 90 93 92 89 89 86 90 83 79 85 90 90 91 85 85 78 76 76 82 86 87 90 90 92
60 60 60 60 60 61 61 61 60 60 60 61 62 63 73 76 95 91 91 89 92 92 94 94 92 95 91 90 85 89 89 89 92 92 88 78 80 82 76 83 82 85 88 91 93
60 60 60 60 61 60 60 60 59 59 60 61 63 73 78 83 96 96 94 93 96 96 92 97 98 92 93 87 94 89 85 89 90 90 87 88 76 74 76 82 79 83 89 91 93
60 60 60 60 60 60 59 59 59 60 61 62 63 78 80 94 99 95 98 95 98 100 99 99 97 94 92 94 90 85 87 76 88 89 87 83 67 75 73 76 79 85 89 90 92
60 60 60 60 59 59 58 58 60 64 62 63 71 79 80 83 89 96 98 92 95 98 98 96 94 90 90 84 81 84 78 75 81 87 87 79 71 77 80 75 78 83 87 90 91
59 59 59 59 58 58 57 57 60 64 69 78 83 77 83 83 92 93 98 96 91 91 87 86 88 84 86 82 73 77 78 82 76 85 88 75 77 77 79 75 74 82 83 85 87
59 58 58 58 58 56 60 74 73 75 79 81 83 83 86 94 95 90 95 92 91 86 78 84 79 76 82 85 89 88 83 78 72 90 82 77 79 75 73 76 78 79 82 82 86
59 59 58 58 56 56 66 83 82 84 76 86 85 86 91 93 82 88 94 84 82 76 83 79 75 85 89 89 86 85 84 81 79 89 87 85 78 80 80 82 80 80 80 80 87
58 58 57 56 56 64 84 84 92 90 76 81 86 85 86 91 83 84 90 87 80 78 80 77 82 88 86 84 81 84 84 82 81 85 89 85 75 77 76 82 83 82 83 82 85
58 58 56 55 58 90 84 90 94 91 70 73 79 84 89 88 82 92 93 88 83 78 81 81 88 84 82 80 83 79 89 86 84 80 75 87 69 76 76 76 79 79 80 82 85
58 57 56 52 77 84 87 94 94 88 54 77 81 95 90 84 86 84 94 89 80 81 81 77 81 79 77 80 85 83 89 85 84 81 80 80 66 59 81 74 77 79 80 83 82
57 56 55 68 78 90 94 93 88 65 53 71 81 78 79 83 83 86 85 90 90 82 83 83 89 85 84 87 87 87 86 83 84 82 72 80 77 56 74 78 81 81 79 85 85
55 54 58 82 85 94 93 85 66 58 73 68 72 77 78 77 79 80 77 76 75 69 69 76 80 86 87 82 86 83 79 68 66 68 69 83 77 62 78 82 84 82 86 88 87
53 52 68 87 92 92 87 74 52 64 67 75 71 74 73 78 78 77 76 74 80 80 75 69 66 78 85 82 78 79 80 71 59 65 72 83 70 71 82 85 85 82 87 88 93
52 82 89 97 94 91 79 60 53 65 65 70 67 64 70 76 77 77 75 74 77 78 67 71 70 81 81 85 82 78 74 88 78 81 75 75 71 78 81 79 75 70 76 83 90
83 90 92 95 95 87 74 57 67 69 67 73 60 64 64 70 71 72 72 74 74 77 81 75 66 77 79 81 83 79 86 75 77 64 64 69 67 70 73 72 67 65 69 76 84
82 83 91 98 95 81 60 68 69 70 72 69 65 62 65 67 69 68 69 71 73 76 80 80 75 71 76 74 75 77 75 80 82 79 69 63 66 79 72 70 64 64 65 67 74
88 77 92 96 77 81 72 71 59 70 73 71 73 72 65 67 67 67 67 69 73 76 73 79 76 67 71 78 79 80 78 79 71 68 76 69 64 79 77 75 69 65 65 69 72
83 83 95 92 69 72 72 70 72 70 70 69 68 72 74 67 60 69 67 69 72 74 72 76 72 64 65 72 77 74 78 79 82 81 71 70 63 78 77 76 74 67 68 67 71
83 75 82 86 83 74 69 68 66 71 69 70 68 72 71 69 73 67 68 70 73 70 61 69 74 69 62 67 75 69 72 75 76 71 72 73 65 71 73 70 67 69 69 69 69
83 74 75 71 73 73 72 69 65 64 70 71 66 66 68 65 67 67 71 70 73 66 71 74 65 69 69 70 73 73 72 71 71 74 70 67 68 72 73 73 71 69 70 70 70
80 80 80 74 71 71 63 66 65 66 68 65 64 66 69 65 66 65 70 71 69 73 72 74 66 67 65 67 69 66 69 69 71 72 74 72 65 73 76 76 75 74 71 68 69
85 84 80 63 71 72 68 66 65 66 67 68 67 67 65 65 70 73 75 74 73 70 67 68 69 63 60 66 65 61 69 70 71 74 76 68 70 74 72 72 73 73 72 71 71

GFSSW_sfc_temp_090.txt.gz
Temp
62 62 62 62 62 63 63 63 63 63 63 63 63 63 63 63 63 71 75 87 89 80 81 93 92 93 96 90 90 85 69 67 73 69 68 75 71 70 74 76 81 89 88 91 95
62 62 62 62 62 62 62 63 63 63 63 63 63 63 63 64 72 76 86 82 81 81 87 90 88 92 88 87 88 78 70 75 81 80 76 75 71 69 70 72 82 86 91 93 95
62 62 62 62 62 62 62 62 62 62 62 62 63 63 63 66 74 85 85 80 80 83 93 95 96 92 87 90 85 72 72 82 81 84 83 78 74 76 72 72 83 82 86 90 93
61 61 61 61 62 62 62 62 62 61 61 62 62 63 63 72 71 87 80 80 80 90 90 93 93 87 85 84 87 75 82 88 85 86 83 78 79 75 74 70 87 88 90 91 91
61 61 61 61 61 61 61 61 61 61 61 61 62 63 68 74 81 87 79 81 89 87 87 90 89 88 84 89 87 81 83 87 91 87 84 83 78 76 74 74 85 90 90 90 92
61 61 60 61 61 61 61 61 60 60 61 61 62 63 69 71 98 91 91 88 91 88 89 94 92 94 91 89 84 74 78 88 92 86 85 79 77 80 77 83 85 88 88 91 92
60 60 60 61 61 61 61 60 60 60 61 62 63 69 75 82 98 96 94 91 94 91 90 97 98 93 93 89 95 78 78 89 91 86 82 82 72 72 79 83 82 85 88 89 93
60 60 61 61 61 60 60 59 59 60 61 62 63 73 74 97 99 96 96 93 96 97 97 100 101 95 92 96 92 85 85 77 87 88 84 82 62 74 80 80 80 84 87 89 92
60 60 60 60 60 60 58 58 59 64 65 63 67 72 78 87 90 97 98 92 94 96 98 101 96 88 90 83 81 83 71 77 81 88 85 80 67 74 75 80 80 83 86 89 90
59 59 60 60 59 58 57 57 63 62 66 75 79 74 83 83 92 96 99 97 91 92 90 89 85 80 83 80 70 75 77 77 75 69 74 74 72 74 75 80 80 83 85 86 88
59 59 59 58 58 57 60 73 71 70 77 78 82 82 86 94 97 92 96 93 91 87 77 82 75 73 80 83 85 85 83 78 75 83 80 74 71 72 76 78 80 80 82 85 86
59 59 58 58 57 56 64 74 84 87 75 83 86 87 93 94 83 88 96 84 82 75 81 78 72 83 87 87 84 83 82 73 72 78 64 73 70 76 75 73 73 74 81 82 84
59 58 58 57 55 61 78 86 94 93 76 82 86 87 88 91 83 84 89 86 80 76 78 75 80 87 85 84 82 82 81 77 73 75 68 64 61 71 74 77 78 81 82 84 83
58 58 57 55 59 85 84 93 96 94 68 75 79 85 89 89 81 93 93 87 82 76 80 79 87 84 83 81 84 78 88 81 71 72 68 80 59 68 72 70 75 78 78 79 84
58 57 56 53 72 82 90 96 96 89 53 77 80 96 90 82 85 86 94 88 79 79 81 76 81 81 80 82 87 81 89 81 81 80 79 78 68 58 58 72 73 77 79 79 80
57 56 55 67 71 86 96 96 89 65 53 73 81 79 79 82 84 87 85 90 90 82 83 82 90 87 84 87 88 89 86 85 83 82 69 72 72 60 55 61 76 80 82 83 85
55 54 57 79 83 96 95 86 65 57 73 69 74 78 77 76 79 80 77 76 73 68 70 78 81 87 88 81 87 85 79 67 65 66 66 78 72 62 61 61 63 78 82 85 85
53 53 65 81 93 96 89 74 49 56 58 72 76 77 71 77 78 78 75 72 79 79 74 68 66 80 86 83 79 80 79 69 58 62 68 80 65 63 67 70 77 84 83 72 72
53 80 82 91 92 94 79 56 46 51 64 71 73 68 67 71 74 76 74 74 79 81 63 69 70 85 86 87 82 78 73 85 75 77 71 69 71 73 76 73 75 76 77 77 73
73 86 88 99 98 90 67 49 64 71 73 72 63 65 58 67 69 73 72 76 73 81 81 75 64 80 82 83 83 79 85 72 75 61 60 64 64 65 70 67 68 69 68 71 74
76 79 93 100 96 75 48 53 71 74 75 67 66 63 65 62 67 56 64 73 77 77 80 78 72 72 79 74 73 75 73 76 79 76 65 59 62 76 71 68 66 68 70 71 69
82 74 95 98 76 68 52 73 62 73 76 73 70 67 65 66 64 62 57 69 77 78 70 79 73 66 71 81 84 82 78 78 68 66 67 56 53 70 73 71 69 67 69 71 69
77 84 97 93 59 59 74 73 75 73 72 71 69 71 72 66 60 60 69 75 76 76 67 73 71 63 67 74 78 75 78 80 80 79 63 58 59 70 73 69 69 67 68 69 70
78 75 83 88 84 75 71 70 69 74 72 73 72 74 69 62 69 66 68 73 76 76 65 72 71 64 55 65 75 69 75 78 77 69 70 60 64 64 66 66 67 68 68 69 69
81 76 79 70 74 75 74 72 68 67 73 74 68 71 67 62 65 64 72 72 75 68 75 74 63 68 69 72 74 75 74 76 72 73 59 62 64 65 66 67 67 69 71 71 70
77 77 82 77 75 73 64 68 68 69 69 68 67 69 71 57 64 61 70 71 68 75 71 76 62 67 65 70 71 69 73 73 74 74 71 62 59 67 70 72 70 70 70 69 71
85 86 80 67 75 73 69 69 68 69 70 71 70 69 68 67 72 74 77 76 75 70 70 69 65 63 58 68 67 61 69 70 73 76 71 61 59 68 70 70 70 71 71 71 71

GFSSW_sfc_temp_093.txt.gz
Temp
62 62 62 62 62 62 63 63 63 63 63 63 63 63 63 63 62 63 66 79 79 81 81 84 85 85 84 82 85 82 63 62 66 65 65 70 69 70 74 76 84 86 82 84 87
62 62 62 62 62 62 62 62 62 63 63 62 62 62 63 63 62 65 79 82 83 81 82 81 79 82 76 81 83 71 63 69 78 74 69 72 71 70 72 73 70 82 87 89 89
62 62 61 61 62 62 62 62 62 62 62 62 62 62 62 62 62 75 82 82 82 82 86 86 87 83 76 81 79 69 63 79 79 78 76 73 70 74 70 70 79 78 82 86 87
61 61 61 61 61 61 61 61 61 61 61 61 62 62 63 62 62 82 81 82 81 84 84 83 82 78 75 75 70 60 70 79 80 81 77 73 76 71 72 70 82 85 86 85 84
61 61 61 61 61 61 61 61 61 60 61 61 62 62 60 60 68 83 81 81 82 82 81 79 76 78 74 79 72 65 78 80 85 82 79 79 74 72 69 72 80 87 86 84 84
61 61 60 60 61 61 61 61 61 60 60 61 62 62 57 58 88 84 84 81 84 81 81 81 80 85 81 82 78 80 78 78 83 80 80 74 74 76 70 75 80 85 83 83 84
60 60 60 60 61 61 61 60 60 60 60 62 62 65 62 66 89 86 85 78 80 82 78 85 86 82 83 80 84 79 73 74 82 80 77 79 70 69 74 80 82 83 84 84 85
60 60 60 60 61 60 60 59 59 60 60 61 63 63 59 86 87 88 86 82 85 85 85 88 90 84 80 85 81 77 68 61 78 78 78 74 60 72 75 76 79 82 84 84 86
60 60 60 60 60 59 58 58 59 62 64 64 57 57 63 85 84 88 88 83 83 84 86 93 87 75 79 71 66 70 61 65 70 79 76 71 63 73 76 74 76 81 81 82 85
60 60 60 59 58 57 57 57 61 61 64 69 72 60 71 78 85 89 89 90 83 82 82 81 73 65 66 62 55 62 65 68 66 65 67 66 66 70 73 76 78 78 80 80 84
59 59 58 58 58 56 56 62 58 59 66 64 67 72 81 86 91 86 90 87 84 78 66 73 61 57 64 70 74 75 72 68 63 70 63 64 65 67 71 74 75 77 78 79 82
59 58 58 58 57 56 54 63 71 76 64 73 78 80 85 85 79 84 89 76 75 66 71 64 59 70 76 77 76 75 72 61 64 68 66 64 64 69 70 73 76 74 75 80 81
59 58 57 57 56 53 64 72 84 82 63 74 79 77 81 84 78 78 82 79 72 68 68 62 69 78 76 75 73 72 67 67 65 65 64 63 58 64 70 75 76 76 78 78 78
58 58 57 55 56 73 74 81 82 83 54 67 71 78 82 83 74 88 87 80 75 68 70 67 77 77 74 73 74 61 78 78 67 63 54 66 48 56 65 65 71 74 73 76 80
57 57 56 55 54 67 79 85 84 75 43 73 74 88 80 73 76 79 88 80 70 72 69 66 72 72 72 74 78 71 79 76 73 66 60 60 53 57 62 63 66 71 75 76 82
57 56 55 57 57 67 80 83 77 53 48 69 77 74 72 74 77 81 80 82 81 73 72 73 82 78 75 82 81 83 77 72 65 59 52 62 58 52 56 63 65 74 76 77 79
55 54 54 69 69 84 85 74 52 43 64 62 64 69 70 69 72 74 72 67 62 53 56 70 73 78 82 71 76 75 64 52 51 49 50 63 59 52 63 64 66 66 66 78 75
54 53 57 68 78 83 78 62 45 53 55 66 66 69 65 70 70 74 67 62 71 68 59 56 55 72 79 69 65 66 62 52 50 49 56 65 48 54 65 69 69 69 70 70 71
53 66 69 78 75 76 65 47 47 54 62 62 66 61 61 70 65 67 65 64 70 71 58 54 60 78 80 79 75 66 61 69 60 61 54 54 55 60 66 64 67 67 67 67 68
56 68 75 89 87 73 60 48 53 64 66 68 57 61 55 62 57 53 57 71 66 75 68 64 52 71 79 78 74 63 68 56 56 50 44 51 50 52 60 64 66 64 64 65 67
63 65 82 90 81 63 47 52 64 72 72 65 60 58 59 58 55 51 54 64 71 71 71 64 57 62 73 62 61 63 58 58 59 55 50 44 48 59 60 62 63 64 64 63 65
70 61 85 86 63 57 52 57 63 70 73 68 68 64 61 61 56 56 54 62 73 71 61 61 58 54 59 69 76 68 62 60 51 50 54 49 46 61 64 64 64 64 63 64 65
62 68 84 82 58 55 59 68 71 69 67 68 67 66 66 59 55 56 59 71 74 68 60 60 55 49 54 54 65 62 66 62 61 57 55 49 47 61 63 64 65 64 64 64 64
63 62 70 72 71 67 63 65 64 73 71 71 67 69 64 59 58 59 62 72 74 70 66 62 59 51 44 50 59 58 66 67 57 52 54 50 51 58 60 59 62 63 65 65 65
65 64 68 60 64 66 65 67 66 63 70 69 64 67 61 52 56 57 64 65 71 66 64 59 52 53 60 64 66 65 67 68 58 62 54 54 55 58 61 60 63 65 66 66 66
63 63 69 65 67 65 59 60 63 65 64 62 62 68 61 53 54 51 57 60 58 64 59 64 50 58 54 66 66 63 68 69 69 64 59 57 55 63 64 65 65 66 67 67 67
71 73 66 62 66 63 60 63 66 66 67 69 67 63 59 62 64 64 66 65 63 59 56 56 53 53 46 58 60 52 61 64 64 65 62 53 53 61 63 64 65 66 68 66 65

GFSSW_sfc_temp_096.txt.gz
Temp
62 62 62 62 62 62 63 63 63 63 63 63 62 62 62 62 62 62 60 75 74 78 81 81 78 79 81 75 81 79 61 59 60 62 65 69 69 71 74 77 80 82 78 80 82
62 62 62 62 61 62 62 62 62 62 62 62 62 62 62 62 59 59 73 79 79 79 78 76 74 77 70 74 77 69 61 66 71 72 68 72 70 69 71 74 75 76 82 83 83
61 61 61 61 61 61 61 61 61 62 61 62 62 62 62 61 57 67 79 79 80 81 82 81 79 77 70 76 74 67 62 68 75 76 75 72 71 74 69 67 76 73 77 81 80
61 61 61 61 61 61 61 61 61 61 61 61 62 62 62 58 59 81 81 79 80 80 80 78 76 69 69 68 72 64 69 69 75 76 75 72 74 72 72 72 77 80 81 81 79
61 61 61 61 61 61 61 61 61 61 60 61 62 62 57 53 61 81 80 80 79 78 76 75 72 70 65 72 70 69 70 69 73 78 75 77 71 71 72 77 81 84 83 82 80
61 61 60 60 61 61 61 61 60 60 60 61 62 62 52 53 81 80 79 77 78 76 74 77 74 77 73 72 71 74 73 70 74 76 76 71 70 74 72 77 82 83 81 81 82
60 60 61 60 60 61 60 60 60 60 60 60 62 62 57 61 83 79 78 73 73 76 73 80 80 73 73 77 85 78 71 74 75 72 72 76 67 68 74 75 80 82 80 81 81
60 60 60 60 61 60 59 59 59 60 61 61 63 58 53 76 76 78 77 74 77 75 78 79 80 75 72 79 78 71 69 62 69 73 75 71 60 70 74 72 78 81 80 81 82
60 60 60 60 59 58 57 58 59 61 63 64 53 52 56 80 75 79 80 77 74 75 78 88 77 71 73 66 60 63 58 59 65 71 74 67 61 70 73 73 77 80 77 79 79
60 59 59 59 58 57 56 57 58 60 64 66 67 55 65 74 78 81 81 82 75 74 75 73 67 62 60 57 50 56 58 60 62 65 67 62 63 70 72 74 77 79 74 79 78
59 58 58 58 57 56 53 56 56 54 55 59 61 64 73 78 83 79 83 79 75 70 61 67 59 55 60 62 66 65 63 60 61 65 63 62 63 67 69 71 74 77 72 79 80
59 58 58 57 56 55 50 54 63 65 58 66 71 70 77 74 74 79 83 72 68 61 63 60 55 65 70 70 68 65 64 60 63 65 64 62 63 67 68 66 74 74 72 77 80
58 58 57 57 56 50 53 61 72 69 55 67 69 69 72 75 72 74 77 73 67 62 62 56 63 73 70 67 65 63 60 61 61 62 63 62 57 60 69 71 74 76 76 78 78
58 58 56 55 54 58 62 70 70 70 48 59 63 73 75 76 69 83 81 75 68 63 64 62 71 71 66 65 65 54 70 71 62 59 51 63 48 55 61 65 72 74 74 76 80
57 57 55 55 51 59 71 68 72 66 38 67 65 81 74 70 71 73 83 73 66 67 63 61 65 65 65 67 70 66 77 73 66 57 58 55 50 53 59 61 67 71 74 76 80
57 56 55 53 49 59 66 66 66 49 41 62 70 68 65 66 70 73 76 74 74 66 65 66 74 70 69 75 75 78 69 67 62 55 47 54 55 52 55 61 67 72 73 77 78
55 54 53 62 61 67 67 63 47 40 60 58 57 61 61 62 66 67 66 62 57 49 50 63 66 72 74 65 68 71 56 44 46 45 47 58 54 55 64 68 70 72 73 68 71
53 53 51 59 58 65 63 54 40 52 50 61 61 61 56 62 62 63 63 57 63 59 51 50 51 65 74 68 63 61 58 47 42 44 49 61 53 54 66 70 72 71 71 70 70
52 50 53 61 61 63 57 42 43 48 57 58 58 53 57 62 58 59 55 56 62 60 53 49 53 70 73 74 71 60 55 61 53 50 50 50 53 62 62 62 65 66 66 66 70
51 56 62 73 71 62 51 44 48 58 60 60 49 53 47 51 52 50 53 61 62 69 61 57 50 60 71 72 69 66 66 55 50 46 44 46 47 48 55 58 63 62 62 64 67
56 59 69 74 69 55 44 45 56 64 64 59 55 51 50 49 49 47 51 59 65 66 64 55 51 56 62 57 59 60 56 57 54 51 47 42 47 60 59 62 60 61 63 63 64
56 54 72 71 57 46 44 51 58 62 64 61 61 59 53 54 51 51 51 55 66 65 57 55 50 45 54 66 70 63 58 54 50 53 47 44 48 62 61 62 61 61 62 63 63
54 56 69 70 51 47 49 57 61 60 60 62 62 61 58 51 49 54 58 65 67 63 55 56 48 42 50 56 62 57 59 55 54 54 48 44 49 61 61 60 62 60 61 62 63
55 53 61 61 55 56 51 53 55 69 66 65 63 63 57 53 56 55 55 67 70 67 66 60 47 47 43 49 53 55 61 60 53 48 45 45 52 56 57 58 60 61 63 63 62
56 55 57 52 55 53 55 58 58 56 62 62 60 64 60 49 53 53 60 62 70 69 62 56 45 48 57 59 60 58 60 60 55 54 50 51 53 56 56 59 61 63 64 62 63
56 55 58 53 57 54 51 50 57 57 57 57 55 60 57 50 50 50 53 52 54 62 57 54 53 49 53 60 60 58 61 63 65 59 56 55 53 59 62 62 62 64 64 63 64
59 60 58 54 52 53 50 54 59 59 60 62 60 57 56 58 59 56 58 55 56 56 56 50 47 49 45 54 55 49 56 59 59 59 56 51 56 61 60 62 63 64 65 64 65

GFSSW_sfc_temp_102.txt.gz
Temp
62 62 62 62 62 62 62 62 61 61 62 61 62 62 62 62 61 57 56 71 70 78 79 74 73 73 74 71 77 74 60 57 58 60 61 69 69 73 75 71 74 76 72 72 74
62 62 61 61 61 61 61 61 61 61 61 61 61 61 62 61 55 53 69 76 77 78 73 71 67 72 67 71 72 66 59 63 66 67 64 69 72 71 69 68 67 68 73 73 73
62 62 61 61 61 61 61 61 61 61 61 61 61 61 62 60 53 64 78 77 78 78 76 76 73 72 67 72 72 66 61 66 66 67 71 69 70 75 68 63 67 64 67 70 71
61 61 61 61 61 61 61 61 61 61 61 61 61 62 62 54 53 72 77 78 78 76 76 73 70 66 62 65 69 63 69 68 67 70 72 69 71 71 69 69 72 72 72 72 70
61 61 61 61 61 61 61 61 61 60 60 60 61 62 54 49 59 75 79 78 74 73 72 70 67 66 63 69 68 67 68 69 73 73 72 75 70 67 65 74 74 74 73 71 71
61 60 60 60 60 60 60 60 60 60 60 60 60 62 50 51 73 74 74 71 71 70 69 70 69 71 67 71 66 73 71 71 71 69 72 67 68 70 66 73 73 73 71 72 72
60 60 60 60 60 60 60 60 60 60 60 60 61 61 52 60 74 73 71 65 68 71 67 71 74 70 68 69 73 72 65 70 68 69 69 72 64 64 66 71 71 71 72 73 74
60 60 60 59 59 59 59 58 58 59 60 61 62 54 53 69 70 72 70 69 71 67 71 73 75 71 67 71 70 65 65 59 66 68 69 69 58 65 67 67 71 71 72 73 73
59 60 59 59 58 57 57 57 59 60 61 63 50 48 55 74 69 72 71 70 68 67 70 83 72 65 66 62 56 60 54 58 62 68 68 67 58 66 67 68 70 71 72 73 72
59 59 59 58 57 56 56 57 61 60 61 63 62 50 63 68 71 72 71 74 68 67 68 66 62 57 56 54 48 53 53 60 61 64 66 62 62 66 69 71 71 71 72 71 72
59 58 58 58 57 56 51 52 53 51 51 58 58 62 68 73 75 69 73 73 68 63 55 60 55 52 57 60 62 61 59 58 60 63 61 59 62 64 67 71 69 71 71 70 73
58 58 57 57 57 56 50 54 59 59 53 60 62 63 68 69 66 70 75 65 63 55 59 56 52 60 65 65 63 59 58 56 60 63 62 61 60 65 65 67 67 70 71 71 75
58 58 57 56 56 51 50 58 63 59 49 60 61 63 65 68 67 67 71 65 60 57 56 53 58 66 65 62 62 57 60 56 58 61 61 59 57 60 66 69 70 70 74 74 72
57 57 56 55 51 54 56 61 61 61 46 57 58 67 67 69 63 75 75 71 62 58 59 56 63 64 60 60 61 54 66 65 59 56 49 60 48 56 62 62 67 71 71 72 73
57 56 56 54 50 57 65 60 57 60 37 63 62 72 64 63 67 66 75 70 60 60 59 56 60 59 58 61 63 62 69 64 61 53 52 55 49 53 59 58 61 65 70 72 73
57 56 56 51 49 58 62 59 62 48 40 56 63 61 59 61 64 68 69 71 68 61 59 60 65 64 63 65 67 68 62 57 55 51 45 52 52 49 53 59 62 66 70 73 75
55 54 53 57 61 60 61 62 47 39 55 54 52 55 53 57 60 61 62 56 54 47 45 56 58 63 66 58 60 61 51 41 41 41 43 48 50 50 58 64 67 67 71 73 75
53 51 51 56 55 60 61 55 40 49 47 55 54 53 51 54 55 57 56 52 58 53 46 46 46 59 64 61 57 55 53 44 38 39 43 52 47 54 61 65 69 73 72 71 72
52 47 48 54 55 55 58 42 42 46 53 53 53 49 49 52 53 53 50 51 55 52 47 43 48 63 66 64 66 55 49 56 47 44 45 46 51 58 62 63 66 65 68 69 70
47 51 57 58 58 59 52 42 45 53 54 53 45 47 43 47 47 49 48 55 56 59 53 49 45 55 64 65 61 58 61 50 45 40 38 43 46 49 56 59 61 61 62 65 68
51 57 62 58 59 56 44 42 51 58 58 52 48 46 44 45 45 44 49 56 59 58 56 48 47 53 55 52 55 55 50 48 48 45 40 39 44 56 57 60 60 61 63 64 65
50 54 62 62 54 41 45 47 54 54 56 55 54 51 47 48 46 47 49 53 60 56 52 50 46 44 53 57 58 55 52 51 46 42 42 43 44 60 60 62 61 61 62 64 65
50 50 62 62 48 45 46 53 55 56 54 56 55 55 54 48 44 49 54 60 61 58 51 53 44 41 48 52 55 52 52 47 47 46 43 44 44 60 60 60 62 61 62 62 63
51 52 55 53 48 50 45 48 51 61 56 55 55 55 51 48 47 47 54 61 62 59 64 58 44 46 43 46 47 49 54 53 48 46 43 45 51 56 58 58 60 60 61 61 62
50 49 49 48 51 46 46 50 52 51 56 56 54 56 51 44 46 48 52 54 62 62 54 51 46 44 50 54 53 53 51 54 50 49 50 50 51 55 58 59 60 61 61 60 60
51 51 49 46 47 47 47 45 50 50 51 52 51 54 53 47 46 44 48 48 47 55 50 49 44 44 48 55 55 52 55 54 54 53 51 52 49 57 61 61 60 60 61 60 60
51 52 52 47 47 47 45 48 52 52 53 55 55 53 53 57 56 57 54 51 46 46 50 47 43 41 40 49 53 45 51 50 52 54 53 49 53 58 56 58 60 61 60 60 60

GFSSW_sfc_temp_105.txt.gz
Temp
62 62 62 62 62 62 62 62 62 62 61 62 61 61 61 62 61 62 65 78 76 77 80 80 80 81 81 78 77 78 62 60 58 60 62 71 72 75 80 76 79 79 79 80 80
62 62 62 62 62 62 62 62 62 62 61 61 61 61 61 62 60 62 76 76 77 78 80 79 76 78 76 76 76 72 65 62 65 65 65 72 73 74 73 73 72 73 77 79 79
62 61 61 61 62 62 62 62 62 61 61 61 61 61 62 63 62 75 79 76 78 79 83 84 82 80 74 76 75 71 64 67 65 67 68 70 73 78 72 69 73 71 73 77 78
62 61 61 61 61 61 61 61 61 61 61 61 61 61 62 59 66 78 77 77 78 83 82 80 78 75 69 70 76 67 71 70 66 68 68 68 74 70 72 73 79 78 78 78 78
61 61 61 61 60 60 61 61 61 60 60 60 60 61 61 63 70 82 78 79 80 82 80 79 76 76 71 72 73 70 70 71 69 72 76 71 71 68 69 75 78 79 78 78 80
60 60 61 60 60 60 61 60 60 60 60 60 60 62 61 64 80 79 80 78 80 80 80 81 79 80 75 74 73 72 74 72 72 71 75 67 67 71 69 77 76 78 78 80 79
60 60 60 60 60 60 60 60 60 60 60 60 61 63 60 70 79 79 79 78 80 81 78 81 83 79 77 73 78 75 68 72 72 72 71 69 63 63 71 77 75 77 78 79 80
60 60 60 59 59 58 58 58 58 59 60 60 62 62 64 77 79 78 81 78 82 83 82 82 84 80 77 77 76 70 70 63 68 71 69 69 57 63 67 73 74 75 77 78 80
59 59 59 59 58 57 56 56 58 60 61 63 60 61 67 76 75 80 82 78 79 81 82 85 82 77 77 72 66 69 63 62 63 68 67 65 59 63 67 70 74 76 76 78 79
59 59 59 58 58 57 55 58 61 62 64 65 64 60 72 73 77 79 81 81 76 77 77 76 76 72 73 72 63 63 61 65 60 65 68 66 65 64 65 67 74 76 78 78 79
59 58 58 58 57 56 57 62 64 62 61 67 69 67 73 79 82 77 82 79 77 75 68 72 68 65 71 73 73 71 68 63 63 65 64 63 65 62 63 69 71 73 75 78 79
58 58 58 58 57 56 55 65 71 72 64 67 66 67 73 77 72 74 82 74 71 66 69 68 64 70 73 73 73 71 67 62 62 63 64 61 62 66 65 67 74 73 77 79 78
58 58 57 56 55 55 59 67 73 74 64 68 68 69 73 76 73 72 79 75 70 66 68 67 70 73 71 70 70 68 67 62 64 64 64 60 58 60 66 68 71 73 79 81 81
57 57 57 55 55 63 65 70 70 71 61 64 70 74 75 75 72 80 83 78 71 67 68 69 72 71 70 69 71 65 72 69 62 62 59 65 48 58 63 62 65 72 74 80 82
57 57 56 55 59 65 71 70 68 69 47 67 70 81 76 73 75 73 83 78 70 69 69 66 69 68 67 70 72 67 75 68 68 63 62 59 54 60 62 61 64 67 77 81 82
57 56 55 55 56 67 69 70 71 58 46 62 69 67 69 73 74 76 76 80 77 71 71 70 75 75 74 75 73 72 70 67 65 62 53 63 60 55 59 65 69 71 72 80 82
55 54 54 61 71 68 70 71 58 49 62 59 60 65 64 65 69 71 70 69 66 60 61 67 69 74 75 71 72 71 66 57 53 53 55 61 60 68 67 70 73 73 74 76 81
53 52 54 60 65 65 71 66 48 55 56 63 62 63 61 63 63 66 66 64 66 66 62 59 57 69 74 73 69 68 70 62 49 52 57 60 57 67 69 73 75 77 79 78 79
52 59 62 67 63 64 70 55 53 56 60 60 62 60 59 62 63 63 62 63 65 69 61 59 60 71 72 76 76 67 63 74 63 62 61 59 61 67 68 69 73 74 75 74 75
58 66 69 67 67 72 66 51 58 61 62 63 56 58 56 58 60 62 61 65 65 67 68 65 58 69 72 75 73 73 77 64 65 53 53 56 57 61 62 66 71 72 73 76 79
65 71 70 70 69 70 59 58 60 65 65 63 60 58 57 57 58 58 59 64 67 66 66 66 63 65 68 69 69 68 67 67 70 64 59 56 60 67 66 67 67 70 74 74 75
67 68 72 73 68 56 61 60 55 66 66 65 65 63 60 59 58 58 61 63 67 68 64 65 64 60 65 70 71 71 72 72 64 58 62 61 61 67 69 69 67 67 70 74 77
65 66 73 73 63 62 61 62 64 65 64 65 64 65 64 60 56 60 61 67 68 67 65 66 60 57 61 67 68 67 68 68 68 69 61 62 62 66 67 64 67 66 68 67 68
65 65 68 66 62 64 62 61 62 67 64 64 64 67 63 60 61 58 61 66 69 68 63 66 61 60 57 60 64 62 63 66 69 66 65 66 60 60 61 61 63 64 65 64 65
63 61 61 63 63 61 63 61 60 60 65 65 62 62 61 58 59 58 61 64 68 65 64 65 59 60 62 61 64 61 61 63 65 67 65 67 64 66 62 62 63 63 62 62 62
64 64 61 59 58 62 56 59 60 60 61 60 59 62 62 59 60 57 60 61 59 65 63 64 57 59 59 62 64 61 63 64 64 63 65 67 65 72 66 66 62 62 62 62 62
62 62 65 53 59 63 60 61 61 62 62 63 61 62 61 61 65 65 66 64 63 61 60 60 58 56 55 59 62 58 60 61 60 64 64 63 66 68 61 61 61 62 63 63 63

GFSSW_sfc_temp_108.txt.gz
Temp
62 62 63 62 62 62 62 62 63 62 62 62 62 62 62 62 62 73 76 84 84 78 78 90 91 90 90 86 83 83 65 66 66 63 66 81 77 82 85 82 86 86 88 87 89
62 62 62 62 62 62 62 62 62 62 62 62 62 62 61 62 72 76 84 79 78 78 88 86 85 88 85 84 85 77 71 69 71 68 70 78 79 80 80 81 81 84 88 89 89
62 62 61 61 61 62 62 62 62 62 62 62 62 61 62 66 72 84 79 78 78 80 93 93 92 89 84 83 84 79 68 74 69 68 74 79 79 84 80 77 82 80 83 86 87
61 61 61 61 62 61 61 61 61 61 61 61 61 61 62 72 72 85 77 77 78 90 92 90 88 84 81 77 84 73 76 78 72 69 72 75 81 77 81 82 87 87 87 87 86
61 61 61 61 61 61 61 61 61 60 61 61 61 61 68 73 80 89 78 79 86 89 88 87 84 85 80 80 82 76 73 74 70 69 72 69 75 73 77 84 88 88 88 87 88
61 60 61 60 60 61 61 61 60 60 61 61 61 61 72 72 88 89 88 88 90 89 89 90 86 90 84 81 80 79 77 73 68 69 69 71 71 74 77 85 85 86 87 89 89
60 61 60 60 60 60 59 59 59 60 61 61 61 69 72 79 88 89 90 90 92 93 88 92 92 87 87 81 85 75 73 73 70 74 72 69 66 65 77 84 83 85 87 88 89
60 60 60 60 59 59 58 58 58 60 61 61 62 72 74 87 90 86 89 87 92 93 93 93 93 88 86 86 83 75 74 65 66 70 73 74 61 66 74 81 82 85 86 86 88
60 60 59 59 59 59 57 57 58 61 61 63 70 72 76 80 82 89 92 85 89 90 91 91 90 85 85 80 75 78 64 64 61 67 65 63 60 65 73 81 82 84 86 86 87
59 59 59 59 59 58 57 58 61 63 67 72 74 69 81 80 85 88 91 90 85 86 84 84 84 80 82 80 64 72 67 67 62 66 65 62 61 65 67 78 82 84 86 86 87
59 58 58 58 58 57 62 72 71 70 73 76 78 76 81 86 90 86 89 86 86 83 77 82 76 73 79 82 81 80 77 64 67 70 62 62 61 63 67 75 81 83 85 86 88
59 58 58 57 57 57 67 77 79 80 72 79 77 78 82 86 78 83 91 80 78 74 80 75 72 82 82 81 80 79 76 68 67 69 66 62 63 62 64 70 82 83 86 87 87
58 58 57 57 56 61 76 79 85 83 73 76 79 80 82 84 81 80 86 82 78 75 75 75 79 81 77 78 77 78 75 72 67 65 64 62 59 59 62 68 79 84 87 89 88
58 58 57 55 59 82 79 83 85 81 69 70 76 79 82 85 78 88 90 84 78 74 77 78 81 77 77 75 79 74 78 77 71 69 58 65 53 59 59 62 72 79 84 88 88
58 57 56 54 74 80 81 86 85 80 54 72 76 88 85 80 81 80 91 84 75 76 77 74 76 75 74 77 77 73 77 75 76 72 71 67 61 59 63 60 63 70 82 88 90
57 56 55 64 73 82 85 85 81 66 50 67 76 74 76 79 80 82 81 87 84 78 79 77 84 82 81 82 77 78 75 73 73 72 65 70 66 57 65 71 74 72 82 87 90
56 54 56 74 83 86 86 81 66 59 69 65 68 75 75 74 75 77 75 74 73 66 67 73 75 81 83 78 78 73 71 59 55 59 61 74 68 71 74 75 81 80 78 84 90
53 52 59 75 85 81 83 74 56 62 65 72 71 73 70 73 74 74 74 72 75 75 73 67 63 76 81 79 74 73 71 64 51 56 64 68 65 72 78 81 83 87 85 83 88
52 77 79 84 81 80 79 68 61 65 69 68 71 68 68 72 72 72 71 73 76 77 69 68 68 81 82 83 82 75 70 81 72 74 64 64 70 75 74 77 81 83 84 84 84
80 85 83 83 83 82 78 59 67 71 72 72 64 68 65 68 69 70 70 74 73 76 80 73 65 77 80 83 83 81 83 71 72 60 59 65 66 72 70 72 78 80 82 85 81
80 82 83 87 84 83 69 67 70 75 74 70 67 66 67 67 69 69 69 73 75 75 76 77 73 71 77 74 74 75 74 77 79 74 65 62 66 79 74 76 79 81 84 85 84
84 77 87 87 78 79 72 71 58 74 77 74 74 71 68 68 68 68 68 72 75 77 71 77 74 68 72 81 84 83 77 78 69 65 72 71 64 75 76 80 80 81 83 87 86
83 82 89 85 72 72 73 72 74 74 74 72 70 73 73 68 64 68 69 74 75 75 73 76 71 63 67 74 77 75 79 80 81 79 70 67 71 75 76 75 76 74 79 82 83
79 74 81 85 82 75 70 70 69 74 73 74 72 74 71 68 71 66 69 72 75 76 64 71 74 67 63 67 76 71 74 77 78 71 72 74 75 73 72 72 72 73 75 75 76
81 76 74 73 75 76 75 71 67 67 73 74 70 70 68 65 67 66 70 72 75 68 73 75 66 70 72 71 72 72 74 75 74 76 72 76 77 81 77 73 72 72 69 71 71
76 78 78 76 72 73 64 69 67 69 69 68 67 69 71 66 68 64 68 70 69 74 74 75 66 69 66 71 71 69 71 74 77 78 77 78 77 82 82 76 68 67 67 66 66
79 79 75 61 74 73 73 70 68 70 70 71 69 69 68 69 73 75 76 74 73 70 68 69 69 65 62 69 69 64 68 71 73 74 76 74 76 80 73 69 67 67 68 65 67

GFSSW_sfc_temp_111.txt.gz
Temp
63 63 63 63 63 63 63 63 63 63 63 63 63 62 62 62 62 74 80 86 88 80 77 95 96 96 97 89 90 85 69 69 68 69 68 82 82 89 89 88 91 92 91 93 96
63 63 63 62 62 63 63 63 63 63 63 63 63 62 62 62 73 81 85 81 80 79 89 92 90 94 90 86 85 78 68 69 79 75 71 81 83 84 85 85 86 89 94 94 96
62 62 62 62 62 62 62 62 62 62 62 62 62 62 62 66 77 89 80 79 79 82 96 98 97 93 89 88 82 81 72 74 75 74 80 81 84 89 85 78 87 85 88 91 93
62 62 62 62 62 62 62 62 62 62 62 62 62 62 62 74 74 89 79 78 79 91 95 94 93 88 87 83 89 76 80 79 75 75 78 80 85 83 83 86 92 91 92 92 91
62 61 61 61 61 62 62 61 61 61 61 61 62 62 68 76 83 91 78 80 88 90 92 91 89 89 85 86 87 79 80 79 77 73 76 81 78 80 83 90 93 93 92 91 93
61 61 61 61 61 61 61 61 61 61 61 62 62 61 72 74 95 96 93 89 93 92 93 95 92 95 88 84 82 83 77 76 75 69 74 76 77 81 84 91 90 91 91 93 93
61 61 61 61 61 60 60 60 60 61 61 62 63 70 77 83 95 97 96 94 97 96 92 97 98 93 93 85 88 77 71 73 69 70 70 75 72 72 86 90 88 89 91 93 94
60 60 60 60 60 60 60 58 58 60 61 62 63 76 78 94 98 94 97 95 99 100 99 100 99 94 92 91 86 74 73 63 67 67 67 69 62 68 85 87 86 90 91 91 93
59 60 60 60 59 59 58 58 59 60 62 64 70 77 80 82 89 95 97 92 95 97 99 98 95 90 91 83 76 75 64 63 61 67 65 66 65 69 78 87 87 89 91 91 90
59 59 59 59 59 58 58 58 62 62 67 77 81 76 85 84 91 94 98 95 91 91 88 87 88 84 85 83 70 71 69 67 60 63 64 62 64 67 71 83 83 87 89 86 85
59 59 58 58 58 58 62 75 74 73 80 81 82 82 85 92 95 91 95 92 91 87 80 85 80 77 83 86 81 72 71 62 67 68 62 59 61 64 73 73 78 83 85 85 85
59 59 58 58 57 57 66 82 85 87 77 87 85 85 89 93 83 88 96 85 82 77 84 81 76 86 85 84 84 76 62 61 67 65 61 58 60 63 65 77 78 78 85 86 87
58 58 58 57 56 62 83 87 94 92 78 81 86 85 86 89 84 85 91 88 82 78 81 78 83 89 85 78 79 81 69 65 66 63 64 58 56 58 67 73 76 81 84 85 85
58 58 58 56 58 91 86 93 94 92 72 74 78 84 87 89 82 93 94 88 83 79 82 82 89 85 83 79 83 72 80 70 68 66 57 69 48 56 61 65 68 74 83 85 89
58 58 57 54 74 85 90 96 95 89 46 76 80 93 90 84 86 85 95 89 80 80 82 79 82 81 78 81 85 76 84 64 75 71 67 62 57 53 58 58 66 74 79 86 91
57 56 56 66 76 90 96 96 90 69 53 72 81 79 80 84 83 87 86 91 90 83 84 84 90 86 85 87 85 84 80 78 74 71 62 66 64 56 59 62 68 74 81 83 81
56 54 57 80 87 97 95 87 66 60 76 70 73 80 78 78 79 81 78 78 76 70 71 78 79 87 89 83 83 80 76 60 53 59 61 70 68 67 70 77 78 77 77 86 85
53 52 64 83 94 93 89 77 60 69 71 78 77 78 72 78 78 79 78 76 82 81 77 71 68 81 86 83 78 78 78 59 52 55 58 76 65 63 79 83 81 85 79 81 89
52 80 88 94 93 91 80 70 67 71 76 74 76 73 72 77 75 77 77 77 81 83 73 73 72 85 86 88 86 79 73 84 63 71 66 66 76 77 84 82 85 84 80 81 88
80 91 92 94 95 87 77 62 72 78 79 79 66 72 68 73 73 74 74 80 77 82 85 78 69 82 84 87 87 83 87 73 75 58 53 60 59 70 73 79 83 85 79 84 86
80 86 94 98 95 83 75 72 76 81 80 76 73 71 72 72 73 71 71 77 80 80 82 82 77 77 82 78 77 79 78 80 81 75 62 57 60 80 76 78 79 85 88 82 87
89 81 96 98 79 85 77 77 65 79 82 78 79 77 73 73 73 73 71 74 83 83 75 82 78 71 75 85 87 86 81 81 72 68 76 71 59 78 84 83 85 87 89 91 87
83 86 98 94 75 78 78 78 80 78 78 77 75 77 78 74 68 73 74 79 81 80 75 79 73 67 69 80 84 80 83 83 84 82 71 69 66 80 83 83 85 86 88 89 85
84 78 86 89 88 81 75 75 74 80 78 79 76 79 75 73 77 69 73 78 80 82 69 76 75 70 61 63 73 74 78 82 82 74 74 76 70 76 79 76 79 82 84 89 87
86 83 85 81 80 81 79 76 72 72 78 79 74 75 73 68 71 70 75 77 80 69 76 79 69 72 73 73 76 77 78 80 77 79 74 79 79 79 82 80 79 79 78 81 78
80 82 86 85 79 78 67 74 72 74 74 73 72 74 75 70 70 64 74 75 73 79 77 81 69 72 67 71 72 74 78 79 80 80 80 81 78 87 84 83 79 73 73 73 71
89 88 83 69 79 78 77 75 73 75 75 77 75 74 73 75 79 80 82 80 80 74 73 73 72 64 63 74 73 66 74 77 79 83 82 75 74 84 75 76 74 69 71 69 73

GFSSW_sfc_temp_114.txt.gz
Temp
63 63 63 63 63 63 64 64 64 64 64 64 63 63 63 62 62 71 76 86 89 80 80 94 94 94 96 90 90 87 69 66 68 64 63 75 81 82 89 86 89 91 89 92 96
63 63 63 63 63 63 63 63 63 64 63 63 63 63 63 62 69 76 87 82 82 81 88 89 89 93 89 88 86 76 68 70 78 76 68 78 76 82 84 86 86 86 91 95 96
63 63 62 62 62 63 63 63 63 62 63 63 63 62 62 65 73 86 84 81 81 83 93 95 96 93 86 90 86 78 68 77 79 78 73 75 83 89 85 79 85 83 88 92 93
62 62 62 62 62 62 62 62 62 62 62 62 62 62 62 70 70 87 81 80 80 91 90 92 93 87 85 83 88 75 80 78 78 78 71 74 85 84 86 84 91 91 91 92 91
62 62 62 62 62 62 62 62 62 62 62 62 62 62 68 73 80 89 80 80 88 88 87 89 88 88 83 86 83 77 78 79 79 79 74 74 80 81 78 87 93 92 92 91 91
61 61 61 61 61 61 61 61 61 61 62 62 63 62 70 70 98 97 93 87 92 89 89 93 91 94 90 84 78 79 79 77 75 76 74 77 78 83 80 92 90 90 89 91 92
61 61 61 61 61 61 61 60 60 60 61 62 63 69 74 80 97 99 96 91 95 92 89 96 98 93 92 81 86 83 73 73 72 70 73 79 72 77 87 91 88 89 89 91 93
60 60 60 60 60 60 60 59 59 60 61 62 63 72 73 97 99 96 98 94 97 97 97 100 100 94 91 85 81 77 69 61 67 69 68 70 64 76 88 87 86 88 90 90 92
60 60 60 60 59 59 58 59 60 61 62 64 67 72 78 86 89 97 98 93 96 97 98 101 97 89 89 79 74 74 62 58 59 65 64 66 65 76 83 87 85 88 89 90 88
60 59 59 59 59 58 58 58 64 61 66 77 79 74 84 85 93 95 98 97 92 92 90 89 87 80 82 77 67 66 69 62 59 61 63 61 62 74 73 78 86 87 88 88 88
59 59 59 58 58 57 60 74 71 72 75 79 81 82 87 94 95 92 96 93 92 87 77 83 76 73 79 83 79 76 69 60 63 64 61 57 57 64 70 72 79 85 85 83 87
59 59 58 58 57 56 63 78 87 89 77 87 88 87 91 93 82 89 96 84 83 76 82 79 73 83 87 83 75 77 73 60 63 63 61 58 59 62 65 69 77 82 84 84 84
59 58 58 57 57 60 80 86 97 95 77 83 88 86 86 91 84 85 91 87 80 77 79 77 81 87 86 80 75 75 74 64 60 60 62 59 54 57 63 66 70 77 85 85 80
58 58 57 55 59 87 87 95 97 97 68 74 80 85 88 89 82 94 94 89 84 78 81 80 88 85 83 79 79 73 72 65 59 56 53 63 49 55 59 62 64 69 82 79 74
58 58 57 56 69 82 93 99 98 91 49 78 81 95 91 83 86 86 95 89 79 81 82 78 81 82 80 82 80 70 78 68 63 57 59 58 54 54 58 57 62 70 78 82 83
58 57 56 67 70 85 97 98 92 64 52 73 82 80 78 84 84 87 86 91 91 83 84 83 91 88 85 87 86 83 75 68 59 54 50 60 60 55 55 61 68 75 78 81 84
56 55 57 74 86 99 98 89 63 58 77 72 75 79 78 78 80 81 78 77 75 69 71 79 81 87 89 81 86 80 75 57 49 52 53 66 62 62 66 72 74 73 77 82 81
53 52 63 78 96 96 91 76 56 72 73 80 79 77 66 76 79 79 77 74 81 80 76 70 67 80 87 83 78 78 77 63 50 51 54 63 58 61 74 78 78 80 79 84 84
53 80 84 91 89 93 81 64 65 73 78 77 77 71 71 76 76 77 77 77 81 83 72 70 72 86 87 88 86 78 72 82 67 54 57 52 55 73 76 75 76 77 78 79 76
74 87 92 100 99 90 76 64 74 81 81 80 68 73 66 69 74 75 73 81 77 84 86 78 68 84 85 87 87 82 86 72 69 51 50 52 54 52 68 72 79 78 80 82 81
80 81 96 102 98 83 70 74 77 83 82 77 74 72 71 68 73 72 71 78 83 81 83 80 75 76 82 77 76 78 75 78 79 70 53 52 61 66 66 61 77 78 82 83 84
86 75 98 100 79 82 77 79 66 81 84 81 80 78 75 74 72 71 67 76 84 84 76 82 77 69 74 85 88 84 79 79 70 66 72 69 68 72 70 72 81 79 81 84 86
79 84 99 96 72 76 80 79 82 80 80 79 77 79 80 75 69 71 69 80 82 81 73 78 73 64 69 78 83 78 81 82 82 80 69 66 62 76 75 76 82 83 82 81 85
79 76 87 89 88 81 77 77 76 82 80 81 78 80 77 74 78 70 73 77 82 82 71 77 74 69 59 65 71 70 75 81 80 71 72 74 70 75 80 80 84 85 85 78 74
82 79 86 76 82 81 80 78 74 74 80 81 76 76 75 69 72 72 76 74 79 72 78 78 67 71 73 74 74 72 72 76 76 77 72 77 74 75 80 82 83 86 86 77 79
78 79 85 83 81 79 69 75 74 77 75 75 73 77 77 71 71 68 73 75 72 77 75 80 67 71 68 75 74 70 74 76 79 80 80 80 78 82 75 65 63 80 81 76 77
89 89 83 72 80 78 77 77 76 77 78 79 77 75 74 76 80 81 83 82 79 71 61 62 69 65 61 70 67 64 72 72 78 83 80 74 68 73 68 60 59 70 77 72 72

GFSSW_sfc_temp_117.txt.gz
Temp
63 63 63 63 63 63 63 63 64 64 64 64 63 63 62 62 62 66 66 80 80 81 81 85 87 86 86 82 86 84 61 61 63 63 66 73 76 80 87 82 84 87 82 85 87
63 63 62 62 62 63 63 63 62 63 63 63 63 63 62 62 62 66 79 82 81 81 84 81 81 84 77 81 80 71 61 66 67 72 68 70 76 81 76 77 80 82 85 89 85
63 62 62 62 62 62 62 62 62 62 62 62 62 62 62 62 62 75 81 81 81 82 85 87 87 85 77 83 81 76 65 75 72 74 73 70 73 83 73 72 80 79 83 87 84
62 62 62 62 62 62 62 62 62 62 62 62 62 62 62 61 61 83 80 82 81 84 83 82 82 77 75 75 83 71 78 79 77 75 73 69 71 71 77 79 85 86 87 87 83
61 61 61 61 61 62 62 61 61 61 61 62 62 63 60 60 68 86 81 81 82 82 80 79 77 77 74 80 76 73 76 77 78 73 72 70 68 73 78 84 88 88 89 84 83
61 61 61 61 61 61 61 61 60 60 61 62 63 63 56 58 89 88 83 81 83 80 79 81 80 84 80 77 73 76 70 74 73 71 71 68 66 75 78 85 86 86 85 84 83
61 60 60 61 61 61 61 60 60 60 61 62 63 65 64 65 90 89 86 79 79 82 77 84 86 82 82 75 81 76 68 70 69 68 69 69 63 71 79 86 83 84 84 87 85
60 60 60 60 60 60 59 59 59 60 61 62 63 62 60 87 87 89 88 83 85 84 85 88 90 83 78 81 74 68 66 58 66 68 67 68 60 72 80 83 80 82 84 87 86
60 60 60 60 59 59 58 58 60 62 62 63 58 57 64 85 84 87 88 84 83 84 86 93 87 77 79 68 61 62 55 57 59 65 65 64 63 72 77 83 79 81 83 85 84
60 59 59 59 58 57 57 57 63 61 63 70 72 61 73 79 85 88 89 90 84 83 82 81 74 67 66 66 57 53 55 60 57 61 62 60 59 65 70 73 78 80 84 79 82
59 59 59 58 58 57 57 63 58 57 66 67 70 75 84 87 90 84 89 86 84 78 66 74 61 58 65 71 73 71 65 58 59 63 60 59 58 62 66 69 70 78 81 78 82
59 59 58 58 57 57 54 64 74 78 67 80 81 82 87 85 79 84 88 75 74 66 71 64 59 71 77 76 71 68 62 57 60 62 61 57 57 61 65 66 68 69 78 79 80
59 58 57 57 56 54 64 74 86 85 66 77 81 81 80 81 79 79 81 79 72 68 69 62 70 79 78 75 69 63 62 59 58 60 60 57 55 57 64 65 68 70 76 81 80
58 58 57 55 57 71 72 84 84 86 57 69 72 80 83 82 76 89 87 81 75 68 71 68 79 78 75 73 73 58 65 64 59 57 51 58 47 55 59 60 64 67 69 76 76
58 58 57 56 55 67 81 89 88 78 44 75 76 89 80 74 79 80 89 80 71 73 69 67 73 73 73 76 72 61 65 64 62 55 54 54 50 54 58 57 60 65 70 75 76
57 57 56 58 56 68 80 85 81 56 49 71 79 76 72 77 79 82 81 83 81 74 73 73 82 78 76 81 76 71 65 59 58 55 47 55 53 51 53 58 62 67 70 73 73
56 55 54 67 72 84 86 77 55 51 74 69 70 74 71 72 76 75 73 68 62 53 56 70 73 79 82 68 73 68 60 47 44 46 47 57 53 56 61 66 69 70 69 72 72
54 53 56 68 78 82 80 64 50 68 68 74 73 72 67 72 71 75 69 63 71 68 59 57 56 72 80 72 67 64 61 49 43 45 49 54 50 57 68 70 73 73 74 76 73
53 63 70 76 70 75 66 54 57 66 74 73 72 65 64 71 70 70 67 66 71 71 59 56 61 78 81 80 76 67 58 67 49 52 49 52 56 60 68 69 71 71 74 74 77
58 73 79 90 83 77 63 56 65 76 77 75 63 66 58 65 67 64 64 74 75 78 72 65 55 69 80 80 78 65 75 58 54 44 43 50 48 50 57 67 71 73 74 76 73
66 69 86 93 88 70 58 65 73 80 78 71 68 66 65 63 66 63 65 74 78 77 73 65 57 62 72 64 64 64 60 59 61 57 47 46 50 60 62 66 66 70 76 77 76
73 65 88 90 67 68 64 70 66 74 78 75 73 72 70 71 66 60 63 68 79 76 64 67 59 54 62 75 78 71 62 62 51 51 57 52 55 71 67 68 71 70 74 79 77
64 73 89 86 62 67 70 76 76 76 74 74 72 73 72 65 56 63 67 78 80 72 61 65 56 49 58 64 70 66 67 60 61 58 53 53 52 69 71 69 77 75 74 75 77
64 65 74 76 77 72 70 71 71 80 76 76 73 73 70 65 67 60 66 76 79 75 71 68 57 52 47 51 62 60 67 68 59 51 54 58 59 63 66 68 71 73 77 77 74
67 69 76 67 70 72 71 71 73 70 76 74 69 73 67 59 63 63 70 68 74 71 71 63 53 56 62 66 67 66 67 69 61 58 52 59 62 62 61 65 62 68 71 72 73
63 67 76 72 73 70 62 67 71 72 70 68 67 74 70 61 63 60 65 59 63 68 62 61 53 56 57 66 66 64 67 67 66 60 57 64 60 64 64 65 64 63 66 67 70
73 75 70 66 70 67 68 71 73 72 74 76 73 69 68 70 72 70 70 70 65 60 58 56 53 52 47 60 61 55 60 61 64 63 57 53 60 63 61 63 64 64 66 66 64

GFSSW_sfc_temp_120.txt.gz
Temp
63 63 63 62 62 63 63 63 63 63 63 63 63 63 62 62 62 63 62 75 74 79 81 81 80 81 80 77 81 80 62 57 58 61 64 75 73 81 83 78 80 82 78 79 82
63 63 63 62 62 63 62 62 62 62 62 62 62 62 62 62 58 60 75 79 79 81 78 77 76 78 71 73 76 69 59 64 66 69 67 71 76 78 77 77 77 78 81 82 81
62 62 62 62 62 62 62 62 62 62 62 62 62 62 62 61 57 69 79 79 80 81 81 80 80 77 71 71 75 72 63 72 68 72 73 71 73 81 75 68 77 73 76 79 79
62 62 61 62 62 62 62 62 61 62 61 62 62 62 62 57 58 81 81 79 80 81 79 77 75 68 68 68 77 70 77 76 72 75 72 71 73 72 72 75 82 80 81 80 78
61 61 61 61 61 61 61 61 61 61 61 61 62 63 57 54 63 82 80 80 78 78 75 74 71 70 67 73 73 71 72 74 73 71 71 71 67 68 69 79 84 83 81 79 78
61 60 60 60 61 61 61 60 60 60 61 61 63 63 53 54 81 82 80 78 78 76 74 75 73 76 73 73 70 72 71 69 71 70 70 67 65 66 74 84 84 83 81 79 79
60 60 60 60 60 60 60 59 59 60 61 61 63 64 57 62 82 81 79 73 73 76 72 78 78 71 73 69 76 73 66 67 67 68 68 70 63 63 76 83 82 81 81 80 83
60 60 60 60 60 60 59 59 59 60 61 61 63 57 55 78 77 78 78 75 77 74 77 78 79 73 72 74 71 70 65 57 64 67 67 68 57 68 76 76 76 79 81 81 81
59 60 60 59 59 58 57 58 59 61 63 63 54 53 59 81 77 81 81 78 74 73 77 88 76 70 71 63 56 59 54 57 58 64 65 64 61 65 72 79 76 77 78 79 80
59 59 59 58 58 57 56 58 59 60 63 66 67 56 67 75 79 83 83 83 77 74 75 73 68 62 61 57 49 55 55 59 56 60 62 60 62 65 66 73 75 76 78 80 78
59 58 58 58 57 56 52 56 60 57 56 63 65 68 76 81 85 80 84 81 76 70 61 66 59 54 62 64 68 64 59 58 59 62 59 59 59 62 65 67 69 69 74 79 78
58 58 57 57 56 55 52 56 66 69 61 68 73 72 79 80 75 79 82 72 70 62 63 61 56 65 69 72 71 65 62 58 60 62 60 57 57 60 63 67 66 68 73 77 74
58 58 57 56 56 52 54 64 75 73 58 71 74 73 75 75 74 74 78 74 67 62 63 57 64 73 72 67 66 63 61 57 58 60 61 57 54 56 64 66 68 69 72 77 75
58 58 57 56 55 58 63 72 73 73 51 62 65 75 77 76 71 84 81 75 68 64 64 61 72 71 70 68 64 52 70 64 59 56 50 58 47 54 59 61 65 67 67 70 74
58 57 56 56 48 57 74 68 73 69 40 71 68 85 75 69 70 74 83 75 67 66 62 63 67 67 66 71 69 58 68 64 62 55 54 53 49 53 58 57 61 66 69 71 73
57 56 56 52 50 57 66 68 69 52 44 66 73 70 65 69 73 78 76 77 76 68 66 67 75 71 70 76 71 68 62 58 58 53 46 53 51 51 53 59 64 67 70 72 72
56 54 54 60 62 68 70 66 51 44 68 64 62 65 63 66 69 70 69 64 59 52 51 64 68 71 71 61 65 63 55 46 45 44 45 54 52 55 63 67 68 69 70 71 71
54 52 52 59 58 64 66 58 43 62 59 69 67 67 61 68 66 70 64 60 67 61 55 52 54 68 72 65 59 59 55 47 41 44 48 54 48 54 68 68 72 75 72 72 72
52 49 53 60 60 63 61 47 49 58 67 66 65 57 61 64 66 65 61 61 67 66 57 50 56 72 75 72 69 60 54 61 47 48 48 50 55 61 64 66 67 71 70 69 72
52 57 63 72 69 65 56 48 55 67 70 67 56 59 54 62 60 61 58 67 67 71 64 57 52 62 72 74 71 64 66 52 47 41 42 48 49 51 61 63 66 69 70 72 72
56 61 72 74 72 60 50 52 64 72 72 63 61 58 58 60 62 60 60 69 73 70 66 54 55 59 65 60 62 61 57 56 53 49 45 43 48 59 62 64 65 68 72 72 74
54 56 73 73 60 54 52 61 66 67 70 69 67 64 62 62 56 57 59 66 75 67 60 58 54 48 58 68 69 62 58 53 48 48 47 51 53 67 64 66 69 70 73 75 78
51 55 73 73 54 52 59 68 71 66 65 66 66 66 64 58 53 57 62 73 76 67 59 61 53 45 51 59 64 60 61 52 52 47 45 45 54 65 66 66 70 70 72 74 77
50 53 61 63 59 56 57 63 63 74 70 68 65 66 62 59 57 56 63 72 74 71 69 64 49 52 45 52 59 57 62 58 51 44 45 49 55 57 63 66 67 69 71 74 75
51 54 59 55 59 60 59 64 67 63 70 66 65 66 58 52 55 58 63 65 71 70 65 58 48 51 53 62 62 60 61 58 52 49 47 52 53 55 60 64 63 64 69 70 68
51 55 58 57 58 58 55 56 64 64 64 60 60 67 62 54 55 54 56 54 56 64 58 55 49 49 50 61 59 55 60 60 59 58 55 56 53 59 61 63 62 63 65 64 67
56 59 57 54 56 55 56 63 66 67 67 71 67 62 61 63 64 62 60 57 55 54 54 52 49 47 42 55 55 47 53 57 58 59 55 51 54 58 57 59 59 61 62 63 64